[[{"header":{"parameterUnit":"m.s-1","parameterCategory":1,"la1":30.6,"la2":28.766,"lo1":-90.7593,"lo2":-88.6598,"dx":0.0162,"dy":0.0183,"nx":116,"ny":114,"refTime":"2023-01-01T06:00:00:Z","depth":0,"parameterNumber":2,"parameterNumberName":"U-component_of_WINDS"},"data":[0.0,0.0,0.0,0.0,0.0,0.0,0.0,0.0,0.0,0.0,0.0,0.0,0.0,0.0,0.0,0.0,0.0,0.0,0.0,0.0,0.0,0.0,0.0,0.0,0.0,0.0,0.0,0.0,0.0,0.0,0.0,0.0,0.0,0.0,0.0,0.0,0.0,0.0,0.0,0.0,0.0,0.0,0.0,0.0,0.0,0.0,0.0,0.0,0.0,0.0,0.0,0.0,0.0,0.0,0.0,0.0,0.0,0.0,0.0,0.0,0.0,0.0,0.0,0.0,0.0,0.0,0.0,0.0,0.0,0.0,0.0,0.0,0.0,0.0,0.0,0.0,0.0,0.0,0.0,0.0,0.0,0.0,0.0,0.0,0.0,0.0,0.0,0.0,0.0,0.0,0.0,0.0,0.0,0.0,0.0,0.0,0.0,0.0,0.0,0.0,0.0,0.0,0.0,0.0,0.0,0.0,0.0,0.0,0.0,0.0,0.0,0.0,0.0,0.0,0.0,0.0,0.0,0.0,0.0,0.0,0.0,0.0,0.0,0.0,0.0,0.0,0.0,0.0,0.0,0.0,0.0,0.0,0.0,0.0,0.0,0.0,0.0,0.0,0.0,0.0,0.0,0.0,0.0,0.0,0.0,0.0,0.0,0.0,0.0,0.0,0.0,0.0,0.0,0.0,0.0,0.0,0.0,0.0,0.0,0.0,0.0,0.0,0.0,0.0,0.0,0.0,0.0,0.0,0.0,0.0,0.0,0.0,0.0,0.0,0.0,0.0,0.0,0.0,0.0,0.0,0.0,0.0,0.0,0.0,0.0,0.0,0.0,0.0,0.0,0.0,0.0,0.0,0.0,0.0,0.0,0.0,0.0,0.0,0.0,0.0,0.0,0.0,0.0,0.0,0.0,0.0,0.0,0.0,0.0,0.0,0.0,0.0,0.0,0.0,0.0,0.0,0.0,0.0,0.0,0.0,0.0,0.0,0.0,0.0,0.0,0.0,0.0,0.0,0.0,0.0,0.0,0.0,0.0,0.0,0.0,0.0,0.0,0.0,0.0,0.0,0.0,0.0,0.0,0.0,0.0,0.0,0.0,0.0,0.0,0.0,0.0,0.0,0.0,0.0,0.0,0.0,0.0,0.0,0.0,0.0,0.0,0.0,0.0,0.0,0.0,0.0,0.0,0.0,0.0,0.0,0.0,0.0,0.0,0.0,0.0,0.0,0.0,0.0,0.0,0.0,0.0,0.0,0.0,0.0,0.0,0.0,0.0,0.0,0.0,0.0,0.0,0.0,0.0,0.0,0.0,0.0,0.0,0.0,0.0,0.0,0.0,0.0,0.0,0.0,0.0,0.0,0.0,0.0,0.0,0.0,0.0,0.0,0.0,0.0,0.0,0.0,0.0,0.0,0.0,0.0,0.0,0.0,0.0,0.0,0.0,0.0,0.0,0.0,0.0,0.0,0.0,0.0,0.0,0.0,0.0,0.0,0.0,0.0,0.0,0.0,0.0,0.0,0.0,0.0,0.0,0.0,0.0,0.0,0.0,0.0,0.0,0.0,0.0,0.0,0.0,0.0,0.0,0.0,0.0,0.0,0.0,0.0,0.0,0.0,0.0,0.0,0.0,0.0,0.0,0.0,0.0,0.0,0.0,0.0,0.0,0.0,0.0,0.0,0.0,0.0,0.0,0.0,0.0,0.0,0.0,0.0,0.0,0.0,0.0,0.0,0.0,0.0,0.0,0.0,0.0,0.0,0.0,0.0,0.0,0.0,0.0,0.0,0.0,0.0,0.0,0.0,0.0,0.0,0.0,0.0,0.0,0.0,0.0,0.0,0.0,0.0,0.0,0.0,0.0,0.0,0.0,0.0,0.0,0.0,0.0,0.0,0.0,0.0,0.0,0.0,0.0,0.0,0.0,0.0,0.0,0.0,0.0,0.0,0.0,0.0,0.0,0.0,0.0,0.0,0.0,0.0,0.0,0.0,0.0,0.0,0.0,0.0,0.0,0.0,0.0,0.0,0.0,0.0,0.0,0.0,0.0,0.0,0.0,0.0,0.0,0.0,0.0,0.0,0.0,0.0,0.0,0.0,0.0,0.0,0.0,0.0,0.0,0.0,0.0,0.0,0.0,0.0,0.0,0.0,0.0,0.0,0.0,0.0,0.0,0.0,0.0,0.0,0.0,0.0,0.0,0.0,0.0,0.0,0.0,0.0,0.0,0.0,0.0,0.0,0.0,0.0,0.0,0.0,0.0,0.0,0.0,0.0,0.0,0.0,0.0,0.0,0.0,0.0,0.0,0.0,0.0,0.0,0.0,0.0,0.0,0.0,0.0,0.0,0.0,0.0,0.0,0.0,0.0,0.0,0.0,0.0,0.0,0.0,0.0,0.0,0.0,0.0,0.0,0.0,0.0,0.0,0.0,0.0,0.0,0.0,0.0,0.0,0.0,0.0,0.0,0.0,0.0,0.0,0.0,0.0,0.0,0.0,0.0,0.0,0.0,0.0,0.0,0.0,0.0,0.0,0.0,0.0,0.0,0.0,0.0,0.0,0.0,0.0,0.0,0.0,0.0,0.0,0.0,0.0,0.0,0.0,0.0,0.0,0.0,0.0,0.0,0.0,0.0,0.0,0.0,0.0,0.0,0.0,0.0,0.0,0.0,0.0,0.0,0.0,0.0,0.0,0.0,0.0,0.0,0.0,0.0,0.0,0.0,0.0,0.0,0.0,0.0,0.0,0.0,0.0,0.0,0.0,0.0,0.0,0.0,0.0,0.0,0.0,0.0,0.0,0.0,0.0,0.0,0.0,0.0,0.0,0.0,0.0,0.0,0.0,0.0,0.0,0.0,0.0,0.0,0.0,0.0,0.0,0.0,0.0,0.0,0.0,0.0,0.0,0.0,0.0,0.0,0.0,0.0,0.0,0.0,0.0,0.0,0.0,0.0,0.0,0.0,0.0,0.0,0.0,0.0,0.0,0.0,0.0,0.0,0.0,0.0,0.0,0.0,0.0,0.0,0.0,0.0,0.0,0.0,0.0,0.0,0.0,0.0,0.0,0.0,0.0,0.0,0.0,0.0,0.0,0.0,0.0,0.0,0.0,0.0,0.0,0.0,0.0,0.0,0.0,0.0,0.0,0.0,0.0,0.0,0.0,0.0,0.0,0.0,0.0,0.0,0.0,0.0,0.0,0.0,0.0,0.0,0.0,0.0,0.0,0.0,0.0,0.0,0.0,0.0,0.0,0.0,0.0,0.0,0.0,0.0,0.0,0.0,0.0,0.0,0.0,0.0,0.0,0.0,0.0,0.0,0.0,0.0,0.0,0.0,0.0,0.0,0.0,0.0,0.0,0.0,0.0,0.0,0.0,0.0,0.0,0.0,0.0,0.0,0.0,0.0,0.0,0.0,0.0,0.0,0.0,0.0,0.0,0.0,0.0,0.0,0.0,0.0,0.0,0.0,0.0,0.0,0.0,0.0,0.0,0.0,0.0,0.0,0.0,0.0,0.0,0.0,0.0,0.0,0.0,0.0,0.0,0.0,0.0,0.0,0.0,0.0,0.0,0.0,0.0,0.0,0.0,0.0,0.0,0.0,0.0,0.0,0.0,0.0,0.0,0.0,0.0,0.0,0.0,0.0,0.0,0.0,0.0,0.0,0.0,0.0,0.0,0.0,0.0,0.0,0.0,0.0,0.0,0.0,0.0,0.0,0.0,0.0,0.0,0.0,0.0,0.0,0.0,0.0,0.0,0.0,0.0,0.0,0.0,0.0,0.0,0.0,0.0,0.0,0.0,0.0,0.0,0.0,0.0,0.0,0.0,0.0,0.0,0.0,0.0,0.0,0.0,0.0,0.0,0.0,0.0,0.0,0.0,0.0,0.0,0.0,0.0,0.0,0.0,0.0,0.0,0.0,0.0,0.0,0.0,0.0,0.0,0.0,0.0,0.0,0.0,0.0,0.0,0.0,0.0,0.0,0.0,0.0,0.0,0.0,0.0,0.0,0.0,0.0,0.0,0.0,0.0,0.0,0.0,0.0,0.0,0.0,0.0,0.0,0.0,0.0,0.0,0.0,0.0,0.0,0.0,0.0,0.0,0.0,0.0,0.0,0.0,0.0,0.0,0.0,0.0,0.0,0.0,0.0,0.0,0.0,0.0,0.0,0.0,0.0,0.0,0.0,0.0,0.0,0.0,0.0,0.0,0.0,0.0,0.0,0.0,0.0,0.0,0.0,0.0,0.0,0.0,0.0,0.0,0.0,0.0,0.0,0.0,0.0,0.0,0.0,0.0,0.0,0.0,0.0,0.0,0.0,0.0,0.0,0.0,0.0,0.0,0.0,0.0,0.0,0.0,0.0,0.0,0.0,0.0,0.0,0.0,0.0,0.0,0.0,0.0,0.0,0.0,0.0,0.0,0.0,0.0,0.0,0.0,0.0,0.0,0.0,0.0,0.0,0.0,0.0,0.0,0.0,0.0,0.0,0.0,0.0,0.0,0.0,0.0,0.0,0.0,0.0,0.0,0.0,0.0,0.0,0.0,0.0,0.0,0.0,0.0,0.0,0.0,0.0,0.0,0.0,0.0,0.0,0.0,0.0,0.0,0.0,0.0,0.0,0.0,0.0,0.0,0.0,0.0,0.0,0.0,0.0,0.0,0.0,0.0,0.0,0.0,0.0,0.0,0.0,0.0,0.0,0.0,0.0,0.0,0.0,0.0,0.0,0.0,0.0,0.0,0.0,0.0,0.0,0.0,0.0,0.0,0.0,0.0,0.0,0.0,0.0,0.0,0.0,0.0,0.0,0.0,0.0,0.0,0.0,0.0,0.0,0.0,0.0,0.0,0.0,0.0,0.0,0.0,0.0,0.0,0.0,0.0,0.0,0.0,0.0,0.0,0.0,0.0,0.0,0.0,0.0,0.0,0.0,0.0,0.0,0.0,0.0,0.0,0.0,0.0,0.0,0.0,0.0,0.0,0.0,0.0,0.0,0.0,0.0,0.0,0.0,0.0,0.0,0.0,0.0,0.0,0.0,0.0,0.0,0.0,0.0,0.0,0.0,0.0,0.0,0.0,0.0,0.0,0.0,0.0,0.0,0.0,0.0,0.0,0.0,0.0,0.0,0.0,0.0,0.0,0.0,0.0,0.0,0.0,0.0,0.0,0.0,0.0,0.0,0.0,0.0,0.0,0.0,0.0,0.0,0.0,0.0,0.0,0.0,0.0,0.0,0.0,0.0,0.0,0.0,0.0,0.0,0.0,0.0,0.0,0.0,0.0,0.0,0.0,0.0,0.0,0.0,0.0,0.0,0.0,0.0,0.0,0.0,0.0,0.0,0.0,0.0,0.0,0.0,0.0,0.0,0.0,0.0,0.0,0.0,0.0,0.0,0.0,0.0,0.0,0.0,0.0,0.0,0.0,0.0,0.0,0.0,0.0,0.0,0.0,0.0,0.0,0.0,0.0,0.0,0.0,0.0,0.0,0.0,0.0,0.0,0.0,0.0,0.0,0.0,0.0,0.0,0.0,0.0,0.0,0.0,0.0,0.0,0.0,0.0,0.0,0.0,0.0,0.0,0.0,0.0,0.0,0.0,0.0,0.0,0.0,0.0,0.0,0.0,0.0,0.0,0.0,0.0,0.0,0.0,0.0,0.0,0.0,0.0,0.0,0.0,0.0,0.0,0.0,0.0,0.0,0.0,0.0,0.0,0.0,0.0,0.0,0.0,0.0,0.0,0.0,0.0,0.0,0.0,0.0,0.0,0.0,0.0,0.0,0.0,0.0,0.0,0.0,0.0,0.0,0.0,0.0,0.0,0.0,0.0,0.0,0.0,0.0,0.0,0.0,0.0,0.0,0.0,0.0,0.0,0.0,0.0,0.0,0.0,0.0,0.0,0.0,0.0,0.0,0.0,0.0,0.0,0.0,0.0,0.0,0.0,0.0,0.0,0.0,0.0,0.0,0.0,0.0,0.0,0.0,0.0,0.0,0.0,0.0,0.0,0.0,0.0,0.0,0.0,0.0,0.0,0.0,0.0,0.0,0.0,0.0,0.0,0.0,0.0,0.0,0.0,0.0,0.0,0.0,0.0,0.0,0.0,0.0,0.0,0.0,0.0,0.0,3.3403,3.1127,0.0,0.0,0.0,0.0,0.0,0.0,0.0,0.0,0.0,0.0,0.0,0.0,0.0,0.0,0.0,0.0,0.0,0.0,0.0,0.0,0.0,0.0,0.0,1.5086,1.5233,1.5625,1.5307,0.0,0.0,0.0,0.0,0.0,0.0,0.0,0.0,0.0,1.7436,1.8632,1.9582,2.1845,2.5295,2.3408,2.2077,2.1161,0.0,0.0,0.0,0.0,0.0,0.0,0.0,0.0,0.0,0.0,0.0,0.0,0.0,0.0,0.0,0.0,0.0,0.0,0.0,0.0,0.0,0.0,0.0,0.0,0.0,0.0,0.0,0.0,0.0,0.0,0.0,0.0,0.0,0.0,0.0,0.0,0.0,0.0,0.0,0.0,0.0,0.0,0.0,0.0,0.0,0.0,0.0,0.0,0.0,0.0,0.0,0.0,0.0,0.0,0.0,0.0,0.0,0.0,0.0,0.0,0.0,0.0,0.0,0.0,0.0,0.0,0.0,0.0,0.0,0.0,3.5459,3.3917,0.0,0.0,0.0,0.0,0.0,0.0,0.0,0.0,0.0,0.0,0.0,0.0,0.0,0.0,0.0,0.0,0.0,0.0,0.0,0.0,0.0,1.4976,1.5637,1.5821,1.6188,1.6835,1.6298,1.5967,1.6114,1.549,0.0,0.0,0.0,0.0,1.6334,1.7766,1.9396,2.1226,2.3746,2.6057,2.8113,2.8791,2.7979,2.5844,2.2263,0.0,0.0,0.0,0.0,0.0,0.0,0.0,0.0,0.0,0.0,0.0,0.0,0.0,0.0,0.0,0.0,0.0,0.0,0.0,0.0,0.0,0.0,0.0,0.0,0.0,0.0,0.0,0.0,0.0,0.0,0.0,0.0,0.0,0.0,0.0,0.0,0.0,0.0,0.0,0.0,0.0,0.0,0.0,0.0,0.0,0.0,0.0,0.0,0.0,0.0,0.0,0.0,0.0,0.0,0.0,0.0,0.0,0.0,0.0,0.0,0.0,0.0,0.0,3.8065,3.8102,3.8102,3.7441,3.7477,3.8065,3.7441,3.689,3.6486,3.6046,0.0,0.0,0.0,0.0,0.0,0.0,0.0,0.0,0.0,0.0,0.0,0.0,0.0,0.0,0.0,0.0,0.0,0.0,0.0,1.5564,1.5674,1.6334,1.6798,1.6908,1.6798,1.7018,1.7729,1.7693,0.0,0.0,0.0,0.0,1.8845,1.9711,2.1475,2.4073,2.8966,3.1202,3.0863,3.0973,3.1211,3.1386,2.782,2.6685,2.71,0.0,0.0,0.0,0.0,0.0,0.0,0.0,0.0,0.0,0.0,0.0,0.0,0.0,0.0,0.0,0.0,0.0,0.0,0.0,0.0,0.0,0.0,0.0,0.0,0.0,0.0,0.0,0.0,0.0,0.0,0.0,0.0,0.0,0.0,0.0,0.0,0.0,0.0,0.0,0.0,0.0,3.0687,3.0907,0.0,0.0,0.0,0.0,0.0,0.0,0.0,0.0,0.0,0.0,0.0,0.0,0.0,3.7331,3.8065,3.9056,3.957,3.957,4.0304,4.0634,4.0634,4.0524,4.0524,4.0634,4.0524,0.0,3.7441,3.8726,0.0,0.0,0.0,0.0,0.0,0.0,0.0,0.0,0.0,0.0,0.0,0.0,0.0,0.0,0.0,0.0,0.0,0.0,0.0,0.0,0.0,1.9014,1.9659,2.151,2.1253,2.0776,2.0225,2.0189,0.0,0.0,2.0205,2.0482,2.0005,2.2728,2.5581,2.8419,3.1676,3.3172,3.2979,3.3465,3.3873,3.4103,3.1593,2.9746,2.8464,2.6095,0.0,0.0,0.0,0.0,0.0,0.0,0.0,0.0,0.0,0.0,0.0,0.0,0.0,0.0,0.0,0.0,0.0,0.0,0.0,0.0,0.0,0.0,0.0,0.0,0.0,0.0,0.0,0.0,0.0,0.0,0.0,0.0,0.0,0.0,0.0,0.0,0.0,0.0,0.0,2.9843,3.1054,3.1971,3.2155,3.2412,0.0,0.0,0.0,0.0,0.0,0.0,0.0,0.0,0.0,3.8762,3.7955,3.8322,4.0047,4.1295,4.1919,4.1919,4.2727,4.313,4.313,4.2653,4.2433,4.247,4.2947,4.2543,4.1515,4.0855,3.9974,3.8982,0.0,0.0,0.0,0.0,3.6707,3.6597,0.0,0.0,0.0,0.0,0.0,0.0,0.0,0.0,0.0,0.0,0.0,0.0,2.1804,2.173,2.2611,2.5438,2.4961,2.4153,2.3401,2.3364,2.2868,2.184,2.2978,2.3235,2.2391,2.5872,2.9011,3.1713,3.3196,3.4242,3.4853,3.5276,3.5622,3.5738,3.4237,3.2248,2.9946,2.866,2.7961,2.7552,0.0,0.0,0.0,0.0,0.0,0.0,0.0,0.0,0.0,0.0,0.0,0.0,0.0,0.0,0.0,0.0,0.0,0.0,0.0,0.0,0.0,0.0,0.0,0.0,0.0,0.0,0.0,0.0,0.0,0.0,0.0,0.0,0.0,0.0,0.0,0.0,0.0,3.1531,3.2596,3.399,3.4688,3.5385,0.0,0.0,0.0,0.0,0.0,0.0,3.8102,3.7551,3.8322,4.0744,3.9643,4.001,4.1992,4.3424,4.4011,4.3828,4.4635,4.5002,4.5002,4.4378,4.4085,4.4158,4.4745,4.5002,4.4892,4.3094,4.2213,4.1956,4.1148,4.0561,4.0084,3.9093,3.8579,3.8652,0.0,0.0,0.0,0.0,0.0,0.0,0.0,0.0,0.0,0.0,0.0,2.0979,2.2758,2.3566,2.4704,2.6392,2.5805,2.5972,2.7383,2.7493,2.7787,2.8462,2.8572,2.8264,2.7457,2.8895,3.0598,3.2516,3.3632,3.5007,3.6546,3.5853,3.593,3.6622,3.5738,3.4839,3.3749,3.1082,3.0873,3.1966,2.851,0.0,0.0,0.0,0.0,0.0,0.0,0.0,0.0,0.0,0.0,0.0,0.0,0.0,0.0,0.0,0.0,0.0,0.0,0.0,0.0,0.0,0.0,0.0,0.0,0.0,0.0,0.0,0.0,0.0,0.0,0.0,0.0,0.0,0.0,0.0,0.0,0.0,0.0,3.8285,3.8432,0.0,0.0,0.0,0.0,3.8579,3.8615,3.8982,3.9717,3.9717,4.0818,4.324,4.324,4.3608,4.4525,4.5369,4.5406,4.4672,4.5443,4.5847,4.5847,4.581,4.5773,4.5773,4.581,4.5847,4.5847,4.57,4.5223,4.4452,4.3644,4.2396,4.1148,4.1809,4.1589,4.1148,0.0,0.0,0.0,1.4488,1.4488,1.4671,1.5197,1.5967,1.6958,1.828,2.0115,2.2354,2.5034,2.5585,2.6612,2.8741,2.8668,2.8521,2.8594,2.9549,2.9769,2.9012,2.9989,3.0545,3.0617,3.1252,3.2004,3.2774,3.4826,3.5853,3.5968,3.6738,3.7276,3.7507,3.6661,3.5815,3.493,3.3377,3.3094,3.3426,3.0935,2.9093,0.0,0.0,0.0,0.0,0.0,0.0,0.0,0.0,0.0,0.0,0.0,0.0,0.0,0.0,0.0,0.0,0.0,0.0,0.0,0.0,0.0,0.0,0.0,0.0,0.0,0.0,0.0,0.0,0.0,0.0,0.0,0.0,0.0,0.0,0.0,0.0,0.0,3.8542,3.8689,0.0,4.0561,4.0414,4.0267,4.0267,4.1185,4.1919,4.2176,4.2727,4.3608,4.5002,4.4525,4.4672,4.5443,4.6287,4.6544,4.625,4.7058,4.7462,4.7462,4.7462,4.7462,4.7462,4.7462,4.7462,4.7462,4.7462,4.6985,4.6177,4.5369,4.5002,4.4929,4.4709,4.4452,4.4342,0.0,0.0,0.0,1.4488,1.4488,1.4793,1.5564,1.6628,1.7986,1.9895,2.1821,2.4116,2.709,2.742,2.8264,3.043,3.0356,3.0099,2.9843,3.0797,3.1054,3.0222,3.1041,3.2076,3.3146,3.2499,3.2819,3.4199,3.5622,3.6469,3.6815,3.793,3.843,3.8392,3.7815,3.7123,3.6276,3.5122,3.4468,3.4083,3.2837,3.1465,2.997,0.0,0.0,0.0,0.0,0.0,0.0,0.0,0.0,0.0,0.0,0.0,0.0,0.0,0.0,0.0,0.0,0.0,0.0,0.0,0.0,0.0,0.0,0.0,0.0,0.0,0.0,0.0,0.0,0.0,0.0,0.0,0.0,0.0,0.0,3.6156,3.7294,3.8909,3.935,4.0157,4.1772,4.2176,4.2323,4.2323,4.3534,4.4305,4.4305,4.4819,4.548,4.6287,4.581,4.592,4.6691,4.7241,4.7498,4.7535,4.8049,4.8306,4.8306,4.8306,4.8306,4.8306,4.8306,4.8306,4.8306,4.8306,4.8012,4.7425,4.6617,4.6654,4.7058,4.6507,4.6324,4.6434,0.0,0.0,1.4488,1.4488,1.4524,1.4829,1.56,1.7105,1.9014,2.1527,2.3915,2.6319,2.8705,2.8975,2.9622,3.1201,3.0613,3.0503,3.1311,3.1421,3.1825,3.2632,3.2154,3.2876,3.4992,3.2683,3.3172,3.6699,3.6007,3.693,3.9392,3.9392,3.9392,3.9392,3.9392,3.8892,3.793,3.6315,3.5084,3.4276,3.4199,3.3541,3.2454,0.0,0.0,0.0,0.0,0.0,0.0,0.0,0.0,0.0,0.0,0.0,0.0,0.0,0.0,0.0,0.0,0.0,0.0,0.0,0.0,0.0,0.0,0.0,0.0,0.0,0.0,0.0,0.0,0.0,0.0,0.0,0.0,0.0,3.656,3.7074,3.8175,3.9827,4.0708,4.1809,4.3424,4.4268,4.4745,4.4745,4.548,4.5957,4.5957,4.5957,4.6324,4.7131,4.7168,4.7535,4.8306,4.8306,4.8306,4.8306,4.8306,4.8306,4.8306,4.8306,4.8306,4.8306,4.8306,4.8306,4.8306,4.8343,4.8343,4.8269,4.7462,4.7168,4.7168,4.7168,4.7168,4.7278,1.4488,1.4488,1.4488,1.4488,1.4976,1.5637,1.6431,1.795,1.9858,2.2354,2.4263,2.6119,2.7934,2.8668,2.9159,2.9622,2.9475,2.9659,3.0467,3.1641,3.2889,3.4257,3.406,3.3881,3.3885,3.4542,3.5506,3.6699,3.8315,3.9815,4.1123,4.1777,4.1739,4.1123,4.1123,4.0315,3.8892,3.843,3.7392,3.593,3.4699,3.3647,3.2839,0.0,0.0,0.0,0.0,0.0,0.0,0.0,0.0,0.0,0.0,0.0,0.0,0.0,0.0,0.0,0.0,0.0,0.0,0.0,0.0,0.0,0.0,0.0,0.0,0.0,0.0,0.0,0.0,0.0,0.0,0.0,3.8175,3.935,3.9753,3.946,4.0267,4.3057,4.3057,4.3461,4.5076,4.5443,4.5553,4.5553,4.6324,4.6764,4.6764,4.7315,4.7755,4.7976,4.7976,4.8086,4.8306,4.8306,4.8306,4.8306,4.8306,4.8306,4.8306,4.8306,4.8306,4.8306,4.8306,4.8306,4.8343,4.8967,4.9224,4.915,4.8306,4.7976,4.7976,4.7976,4.7976,4.8012,1.4488,1.4488,1.4488,1.4488,1.516,1.5967,1.6798,1.8559,2.0703,2.3199,2.4887,2.6502,2.8117,2.8741,2.8975,2.8975,2.9329,2.9843,3.065,3.2228,3.3419,3.4102,3.4358,3.4642,3.4915,3.6023,3.7262,3.8618,4.013,4.1332,4.2354,4.2854,4.2816,4.2316,4.197,4.1277,4.0315,3.9585,3.87,3.7661,3.6315,3.5084,3.4007,3.416,3.3276,3.1917,3.1213,3.1123,3.1211,3.0769,0.0,0.0,0.0,0.0,0.0,0.0,0.0,0.0,0.0,0.0,0.0,0.0,0.0,0.0,0.0,0.0,0.0,0.0,0.0,0.0,0.0,0.0,0.0,0.0,3.9496,4.0524,4.2359,4.1625,4.1735,4.3938,4.4085,4.4488,4.5773,4.6214,4.6397,4.6397,4.7168,4.7609,4.7609,4.8049,4.8306,4.8306,4.8306,4.8306,4.8306,4.8306,4.8306,4.8306,4.8673,4.882,4.8857,4.9187,4.937,4.937,4.937,4.937,4.9407,4.9884,5.0105,5.0031,0.0,0.0,0.0,0.0,4.937,4.937,1.4488,1.4488,1.4488,1.4488,1.5233,1.6078,1.6798,1.9036,2.151,2.3896,2.5695,2.731,2.8828,2.9085,2.9085,2.9012,2.9732,3.0577,3.1458,3.2904,3.3585,3.3236,3.4041,3.5315,3.7167,3.7356,3.8742,4.1434,4.1569,4.2259,4.3393,4.3393,4.3316,4.3201,4.2431,4.197,4.17,4.02,3.9508,3.9354,3.8507,3.7161,3.5584,3.4891,3.4507,3.4045,3.1891,3.2006,3.2942,3.1322,0.0,0.0,0.0,0.0,0.0,0.0,0.0,0.0,0.0,0.0,0.0,0.0,0.0,0.0,0.0,0.0,0.0,0.0,0.0,0.0,0.0,0.0,0.0,0.0,4.0744,4.1405,4.4195,4.3571,4.3094,4.3828,4.4525,4.5296,4.6104,4.6838,4.7241,4.7241,4.7902,4.8306,4.8306,4.8306,0.0,0.0,0.0,4.8453,4.8453,4.8526,4.86,4.86,4.937,4.9738,4.9738,5.0472,5.0802,5.0802,5.0802,5.0802,5.0802,5.0986,5.1169,5.1316,5.0949,5.0802,5.0802,5.0802,5.0802,5.0802,1.4488,1.4488,1.4488,1.4488,1.5698,1.6725,1.6872,1.9565,2.2171,2.3969,2.6172,2.7934,2.8902,2.9586,2.9732,2.9049,2.9732,3.0834,3.2265,3.2847,3.3599,3.4549,3.5625,3.667,3.7716,3.9325,4.0836,4.2273,4.3234,4.4205,4.5124,4.5124,4.4739,4.4047,4.3893,4.3085,4.1777,4.147,4.0893,4.02,3.9392,3.8007,3.6546,3.7046,3.643,3.5276,3.543,3.5276,3.5032,3.5311,3.462,3.3813,3.4616,3.3563,0.0,0.0,0.0,0.0,0.0,0.0,0.0,0.0,0.0,0.0,0.0,0.0,0.0,0.0,0.0,0.0,0.0,0.0,0.0,4.1066,4.2616,4.3754,4.3718,4.5149,4.625,4.6397,4.6544,4.6948,4.7755,4.7976,4.8086,4.8086,4.8233,4.8306,4.8306,4.8306,4.8306,4.8306,4.8967,4.9334,4.9334,4.9994,5.0325,5.0325,5.0508,0.0,5.0582,5.0729,5.0802,5.0802,5.0802,5.0802,5.0912,5.2197,5.3518,5.4399,5.1793,5.0802,5.0802,5.0802,5.0802,5.0802,1.4488,1.4488,1.4488,1.4488,1.5845,1.6908,1.6908,1.9344,2.173,2.3382,2.5328,2.7053,2.8264,2.9475,3.0063,2.9659,3.0723,3.1935,3.3109,3.3338,3.388,3.4945,3.6362,3.7664,3.8884,4.083,4.241,4.3559,4.4302,4.5016,4.5586,4.5586,4.5355,4.4932,4.447,4.3816,4.3008,4.2162,4.1546,4.1085,4.0239,3.9392,3.8546,3.8161,3.7469,3.6738,3.6699,3.643,3.6122,3.6122,3.5815,3.5545,3.5968,3.5339,3.417,0.0,0.0,0.0,0.0,0.0,0.0,0.0,0.0,0.0,0.0,0.0,0.0,0.0,0.0,3.9661,4.0394,0.0,4.2179,4.2797,4.3938,4.4856,4.5259,4.6361,4.7131,4.7131,4.7462,4.7865,4.8269,4.8306,4.8306,4.8306,4.8306,4.8306,4.8306,4.871,4.893,4.893,4.9738,5.0178,5.0178,5.0618,5.0802,5.0802,5.1206,5.1389,5.1426,5.183,5.2013,5.2013,5.2417,5.2601,5.2711,5.3885,5.4876,5.5427,5.3812,5.2968,5.2637,5.3041,5.2931,5.2674,1.4488,1.4646,1.4719,1.4719,1.5918,1.6945,1.7092,1.9036,2.109,2.2777,2.441,2.5972,2.742,2.9145,3.0246,3.043,3.1751,3.2889,3.3513,3.3697,3.4247,3.521,3.6707,3.8322,4.0084,4.1883,4.3381,4.4599,4.4943,4.5263,4.5586,4.5586,4.5586,4.5547,4.4855,4.447,4.4201,4.2701,4.197,4.1739,4.0854,4.0508,4.0315,3.8815,3.8238,3.8123,3.7276,3.6853,3.6584,3.5776,3.6045,3.6699,3.6699,3.6558,3.6107,3.4716,3.4944,0.0,0.0,0.0,0.0,0.0,0.0,0.0,0.0,3.83,3.8852,3.9548,4.0424,4.139,4.2442,4.275,4.3339,4.4812,4.5147,4.5626,4.6948,4.7241,4.7352,4.7352,4.7902,4.8306,4.8306,4.8306,4.8306,4.8306,4.8453,4.8563,4.8563,4.937,4.9811,4.9811,5.0618,5.1022,5.1022,5.1206,5.1279,5.1279,5.2087,5.238,5.227,5.3225,5.3592,5.3482,5.4436,5.506,5.539,5.6014,5.6381,5.6528,5.6528,5.6051,5.5354,5.5537,5.528,5.495,1.4488,1.5086,1.5564,1.5564,1.6321,1.7128,1.7876,1.9402,2.109,2.2777,2.441,2.5731,2.6649,2.8815,3.0503,3.1201,3.2082,3.2632,3.2742,3.3403,3.4504,3.6083,3.7,3.8579,4.0928,4.218,4.3381,4.4599,4.4943,4.5263,4.5586,4.5586,4.5586,4.5586,4.5509,4.5009,4.4239,4.3355,4.2508,4.1739,4.0854,4.0508,4.0392,3.9508,3.9161,3.9046,3.8161,3.7353,3.6584,3.5776,3.6045,3.6699,3.6699,3.6685,3.655,3.6146,3.5458,3.4651,3.3904,3.4605,3.6189,3.8915,3.8892,3.8904,0.0,4.1686,4.1161,4.168,4.2654,4.3512,4.3855,4.442,4.5201,4.6126,4.6611,4.6911,4.7095,4.7719,4.8196,4.8196,4.8269,4.8306,4.8306,4.8306,4.8306,4.8306,4.9003,4.9444,4.9444,5.0215,5.0655,5.0655,5.1463,5.1867,5.1867,5.2564,5.2931,5.2968,5.3739,5.3775,5.3115,5.462,5.495,5.4363,5.5868,5.7336,5.8694,5.8767,5.9245,5.9869,5.9869,5.9391,5.8437,5.6345,5.5978,5.6565,1.5881,1.6175,1.6555,1.6995,1.7362,1.7715,1.806,1.9087,2.0225,2.1383,2.2575,2.3786,2.5071,2.8191,3.0503,3.1311,3.2155,3.2596,3.2596,3.2926,3.3844,3.5495,3.634,3.7698,3.968,4.129,4.2585,4.3549,4.4583,4.518,4.5303,4.5532,4.5586,4.5586,4.5047,4.4624,4.4201,4.2893,4.2124,4.1739,4.0854,4.02,3.9815,3.9931,3.97,3.92,3.8315,3.7777,0.0,3.7084,3.7199,3.7469,3.7469,3.7469,3.7194,3.5954,3.5625,3.5913,3.7275,3.8021,3.8899,4.1016,4.1223,4.1203,4.2508,4.2654,4.2762,4.3681,4.4431,4.5142,4.5735,4.627,4.6754,4.7159,4.7533,4.7792,4.7792,4.8086,4.8306,4.8306,4.8306,4.8306,4.8306,4.8306,4.8526,4.9003,4.937,4.9774,5.0251,5.1059,5.1499,5.1499,5.227,5.2931,5.3371,5.3739,5.4142,5.4583,5.495,5.517,5.5317,5.5978,5.6638,5.7226,5.7923,5.8841,5.9905,5.9905,6.0126,6.0419,6.0419,6.0199,5.9795,5.8767,5.8327,5.829,1.6908,1.7092,1.7422,1.8023,1.828,1.8427,1.8427,1.8941,1.9601,2.0393,2.107,2.2208,2.43,2.7126,2.9365,3.0613,3.1458,3.2045,3.2265,3.2485,3.344,3.5275,3.5752,3.6817,3.8652,4.0059,4.1229,4.2126,4.3793,4.4554,4.4412,4.4978,4.5124,4.4893,4.4239,4.397,4.3855,4.2431,4.1816,4.17,4.0623,3.9931,3.9623,3.9508,3.9392,3.92,3.8584,3.8354,3.8315,3.8084,3.8007,3.8007,3.8007,3.7924,3.7578,3.6205,3.6291,3.7452,4.0101,4.0784,4.1178,4.2986,4.3426,4.3426,4.3426,4.3874,4.4524,4.5284,4.5718,4.624,4.7257,4.759,4.776,4.7984,4.8198,4.8306,4.8306,4.8306,4.8306,4.8306,4.8526,4.8673,4.8673,4.8673,4.9003,4.9848,5.0141,5.0508,5.1096,5.1903,5.2344,5.2344,5.3115,5.3812,5.4399,5.484,5.5354,5.5941,5.6381,5.6785,5.7152,5.7373,5.8364,5.9869,5.9869,6.0346,6.108,6.108,6.108,6.108,6.108,6.108,6.108,6.108,6.0566,5.9942,1.6908,1.7532,1.806,1.8096,1.8757,1.9271,1.9271,1.9271,1.9601,2.0393,2.0503,2.1767,2.5017,2.5495,2.6502,2.8888,2.9806,3.0613,3.1384,3.2192,3.3697,3.6156,3.5495,3.6164,3.8652,3.8762,3.9372,4.0449,4.2396,4.3095,4.2716,4.3826,4.3932,4.3162,4.3162,4.3124,4.3085,4.22,4.1816,4.1662,4.0008,3.9777,4.02,3.7738,3.7853,3.9277,3.9277,3.9238,3.9123,3.8277,3.8007,3.8007,3.8007,3.7792,3.7526,3.7432,3.7887,3.8975,4.1836,4.203,4.203,4.4802,4.5509,4.5509,4.5509,4.6183,4.6686,4.6326,4.626,4.6701,4.8002,4.7965,4.7947,4.8729,4.8568,4.8306,4.8306,4.8306,4.8306,4.8306,4.904,4.9554,4.9554,4.9554,4.9884,5.0692,5.1499,5.194,5.194,5.2747,5.3188,5.3188,5.3959,5.4363,5.4399,5.5941,5.6748,5.6785,5.8364,5.8694,5.7997,5.8767,6.0015,6.152,6.152,6.1998,6.2732,6.2732,6.2732,6.2732,6.2732,6.2732,6.2732,6.2732,6.2218,6.152,1.85,1.872,1.8904,1.8904,1.9124,1.9323,1.9323,1.9323,1.9381,1.9675,2.0189,0.0,0.0,0.0,0.0,0.0,2.8815,3.0099,2.9843,3.1568,3.2963,3.3807,3.41,3.5128,3.7074,3.7624,3.8633,4.0043,4.1455,4.2077,4.1945,4.2785,4.2888,4.2417,4.2294,4.181,4.1073,4.0406,4.0123,4.0046,3.8892,3.8584,3.8854,3.9123,3.8431,3.7611,0.0,3.9687,3.8392,3.8084,3.8262,3.855,3.855,3.884,3.9242,3.9223,4.0557,4.2252,4.3232,4.4269,4.5265,4.6222,4.6471,4.6471,4.6471,4.6493,4.6699,4.7376,4.7114,4.715,4.839,4.8566,4.858,4.8841,4.8568,4.8306,4.8306,4.8306,4.8526,4.9077,4.9407,4.9994,5.1096,5.0692,5.0729,5.1536,5.2344,5.3041,5.3555,5.4363,5.4803,5.4803,5.506,5.5721,5.6785,5.7336,5.8143,5.9208,6.0272,6.0639,6.0419,6.1227,6.1887,6.2401,6.2401,6.2548,6.2805,6.2805,6.2805,6.2805,6.2805,6.2805,6.2805,6.2805,6.2658,6.2401,0.0,1.9323,1.9323,1.9323,1.9323,0.0,0.0,0.0,0.0,0.0,0.0,0.0,0.0,0.0,0.0,0.0,0.0,2.8631,2.8975,3.0467,3.1715,3.2559,3.3109,3.388,3.4945,3.6046,3.6964,3.7698,3.9463,4.0178,3.9879,4.0753,4.0848,4.0329,4.0196,3.9757,3.9031,3.8706,3.9047,3.9679,3.7632,3.7517,3.8532,3.8108,3.7045,0.0,3.8479,3.8461,3.7343,3.806,3.8229,3.8213,3.8458,3.9222,4.0348,4.1532,4.3041,4.4551,4.5571,4.6801,4.7855,4.8163,4.8471,4.8625,4.8317,4.8048,4.8081,4.8856,4.8289,4.8022,4.9238,4.9401,4.9294,4.9191,4.8938,4.8673,4.8343,4.8563,4.8967,4.9517,5.0105,5.0839,5.1903,5.205,5.2307,5.2821,5.3335,5.3995,5.4803,5.5317,5.5721,5.6014,5.6308,5.7079,5.8437,5.8988,5.9942,6.1263,6.1777,6.2034,6.2034,6.2585,6.2805,6.2805,6.2805,6.2805,6.2805,6.2805,6.2805,6.2842,6.3135,6.3282,6.3319,6.3613,6.3686,6.3613,0.0,0.0,1.9323,0.0,0.0,0.0,0.0,0.0,0.0,0.0,0.0,0.0,0.0,0.0,0.0,0.0,0.0,0.0,2.8645,2.8865,2.9965,3.2313,3.2485,3.2522,3.2596,3.4073,3.4541,3.3807,3.6456,3.7355,3.6584,3.7755,3.7813,3.7036,3.7079,3.7041,3.6982,3.7003,3.8357,4.016,3.6205,3.6545,3.8977,3.5073,3.4035,3.4733,3.5677,3.5883,3.6037,3.7966,3.7925,3.7217,3.7983,3.9155,4.0882,4.4204,4.5218,4.5893,4.8683,4.9471,4.9663,5.0548,5.1318,5.1664,5.0856,5.0664,5.0625,5.0606,4.9609,4.9163,5.0371,5.0338,5.0006,4.9708,4.9706,4.9412,4.8565,4.9189,4.974,4.9774,5.1169,5.2123,5.216,5.3555,5.4473,5.4509,5.4509,5.484,5.5611,5.5721,5.6124,5.6895,5.7703,5.851,5.9318,6.0896,6.2034,6.2805,6.2805,6.2805,6.2805,6.2805,6.2805,6.2805,6.2805,6.2842,6.2879,6.2879,6.2915,6.3025,6.3833,6.4163,6.4237,6.5007,6.5301,6.5081,0.0,0.0,0.0,0.0,0.0,0.0,0.0,0.0,0.0,0.0,0.0,0.0,0.0,0.0,0.0,0.0,0.0,0.0,2.6282,2.742,2.8668,2.9855,3.0503,3.1384,3.2596,3.2999,3.3403,3.3807,3.4502,3.4739,3.4555,3.5118,3.5104,3.4698,3.5211,3.4898,3.4098,3.4353,3.5151,3.6092,3.4413,3.498,3.681,3.6377,3.5082,3.3777,3.6494,3.5752,3.3696,3.5458,3.6252,3.7091,4.0368,4.1686,4.2545,4.5573,4.6877,4.778,4.9798,5.0356,5.0548,5.1395,5.1318,5.0933,5.0741,5.0202,4.9643,4.9357,4.8783,4.856,4.9225,4.9803,5.0368,5.0859,5.1211,5.1199,5.0672,5.1342,5.1972,5.2238,5.3188,5.4032,5.462,5.5023,5.5537,5.6161,5.6198,5.6271,5.6492,5.7629,5.84,5.8584,5.9391,6.0162,6.097,6.1998,6.2622,6.2805,6.2805,6.2805,6.2805,6.2805,6.2805,6.2805,6.2805,6.3172,6.3759,6.3759,6.4127,6.4677,6.4934,6.5007,6.5007,6.5228,6.5301,6.5264,0.0,0.0,0.0,0.0,0.0,0.0,0.0,0.0,0.0,0.0,0.0,0.0,0.0,0.0,0.0,0.0,0.0,0.0,0.0,2.6266,2.709,2.7934,2.8705,2.9586,3.0467,3.1531,3.2118,3.2228,3.3293,3.3623,3.3293,3.382,3.3979,3.3834,3.4189,3.379,3.2858,3.3403,3.433,0.0,0.0,3.3508,3.489,3.3941,3.2396,3.1043,3.3647,3.3881,3.3254,3.5179,3.6616,3.8202,4.1571,4.2718,4.3426,4.6511,4.7509,4.8125,5.0548,5.1241,5.1433,5.2279,5.2433,5.2164,5.1395,5.043,4.9537,4.8976,4.8094,4.7859,4.9176,4.9846,5.0519,5.1528,5.2001,5.2023,5.1269,5.2119,5.2927,5.3193,5.4216,5.5097,5.5537,5.5904,5.6308,5.6785,5.6822,5.7116,5.7813,5.8731,5.9538,6.0236,6.0676,6.13,6.2108,6.2585,6.2805,6.2805,6.2805,6.2805,6.2805,6.2805,6.3025,6.3392,6.3392,6.3833,6.464,6.464,6.4897,6.5338,6.5705,6.5852,6.5888,6.6219,6.6366,6.6366,0.0,0.0,0.0,0.0,0.0,0.0,0.0,0.0,0.0,0.0,0.0,2.1437,2.1185,2.1673,0.0,0.0,0.0,0.0,0.0,0.0,2.5585,2.6429,2.709,2.753,2.764,2.9696,3.043,2.9732,3.1825,3.2559,3.1971,3.2559,3.2889,3.2999,3.2889,3.2449,3.1861,3.2559,3.3733,3.4908,3.2045,3.1825,3.2852,0.0,2.8521,2.797,2.9365,3.1474,3.3843,3.6045,3.7905,3.9707,4.2126,4.3119,4.4047,4.7048,4.7702,4.8048,5.1087,5.2087,5.2433,5.3164,5.3857,5.3857,5.2164,5.0878,4.9868,4.8982,4.7664,4.7313,4.9445,4.9961,5.0449,5.1738,5.2345,5.2307,5.1369,5.2573,5.3603,5.3518,5.495,5.5948,5.6036,5.6573,5.7051,5.7169,5.7161,5.774,5.9134,5.9428,6.0236,6.1704,6.1741,6.2108,6.2805,6.2805,6.2805,6.2805,6.2805,6.2805,6.2805,6.2915,6.3392,6.409,6.42,6.4714,6.5485,6.5485,6.5521,6.5705,6.6402,6.6659,6.6733,6.743,6.7687,6.7687,0.0,0.0,0.0,0.0,0.0,0.0,0.0,0.0,0.0,0.0,2.504,2.2729,0.0,0.0,0.0,0.0,0.0,0.0,0.0,0.0,0.0,2.5568,2.5752,2.6135,2.6796,2.7236,2.7346,2.7236,2.764,2.8117,2.8631,2.8081,2.8191,2.8815,2.8154,2.7787,2.764,2.7787,2.8411,2.9219,2.8631,2.8998,2.9769,2.9195,2.8521,0.0,2.8117,3.0746,3.4458,3.6524,3.8136,3.9823,4.2717,4.4307,4.5432,4.674,4.8509,5.0317,5.1548,5.2972,5.4087,5.4241,5.3857,5.2972,5.1279,5.0495,4.9771,4.8575,4.7883,4.7735,4.8458,4.8933,4.9732,5.1266,5.2398,5.3132,5.3237,5.4686,5.5566,5.5214,5.6602,5.7737,5.8141,5.7943,5.8215,5.9287,5.9005,5.8914,5.9208,6.0456,6.163,6.2585,6.2585,6.2658,6.2805,6.2805,6.2805,6.2805,6.2805,6.2805,6.2842,6.3539,6.3943,6.4127,6.4787,6.5558,6.6292,6.6292,6.6659,6.7283,6.743,6.7467,6.7504,6.765,6.7687,6.7687,0.0,0.0,0.0,0.0,0.0,0.0,0.0,2.7004,2.8317,3.1266,2.9656,2.76,2.5828,2.3989,2.3061,0.0,0.0,0.0,0.0,0.0,0.0,2.474,2.462,2.4986,2.5952,2.6228,2.6425,2.6612,0.0,2.7824,2.7787,2.7824,2.8044,2.8411,2.8044,2.764,2.7236,2.7677,2.7603,2.72,2.764,2.753,2.7126,2.7126,2.6869,0.0,2.7016,2.9428,3.2761,3.4778,3.7103,3.9763,4.3541,4.4536,4.4701,4.6894,4.8394,4.9817,5.201,5.3203,5.3818,5.3818,5.3164,5.2046,5.0193,4.8457,4.7011,4.6243,4.5115,4.469,4.6177,4.6416,4.7164,4.9417,5.0847,5.1806,5.2195,5.3964,5.536,5.5581,5.6638,5.7655,5.8252,5.8142,5.8465,5.9472,5.9716,6.0015,6.0419,6.1594,6.2401,6.2805,6.2805,6.2805,6.2805,6.2805,6.2805,6.2805,6.2805,6.3062,6.3503,6.3906,6.4567,6.5375,6.5778,6.6366,6.71,6.71,6.7357,6.7687,6.7687,6.7687,6.7687,6.7687,6.7687,6.7687,0.0,0.0,0.0,0.0,0.0,0.0,0.0,2.9412,3.0772,3.4023,3.3554,3.2076,2.9866,2.6619,2.4407,0.0,0.0,0.0,0.0,0.0,0.0,0.0,0.0,0.0,2.4908,0.0,0.0,2.5978,2.7259,0.0,0.0,0.0,0.0,0.0,2.7875,2.7383,2.6796,2.7273,2.6722,0.0,0.0,2.5841,2.4887,0.0,0.0,0.0,0.0,2.8202,3.0692,3.2933,3.5477,3.8423,4.2736,4.388,4.4162,4.6778,4.8086,4.924,5.1933,5.2933,5.3164,5.2972,5.2433,5.1296,4.8974,4.6768,4.4912,4.4121,4.2415,4.1699,4.3608,4.3795,4.448,4.6875,4.8679,5.0046,5.0695,5.2747,5.4509,5.5464,5.6308,5.7161,5.8068,5.8235,5.863,5.9541,6.0394,6.119,6.1814,6.2475,6.2805,6.2805,6.2805,6.2805,6.2805,6.2805,6.2805,6.2805,6.2989,6.3429,6.409,6.4457,6.5301,6.6512,6.6659,6.71,6.7687,6.7687,6.7687,6.7687,6.7687,6.7687,6.7687,6.7687,6.7797,6.7944,0.0,0.0,0.0,0.0,0.0,0.0,0.0,2.9292,3.1636,3.6367,3.4599,3.3166,3.3846,3.0688,2.7266,0.0,0.0,0.0,0.0,0.0,0.0,0.0,0.0,0.0,0.0,0.0,0.0,2.397,2.4115,0.0,0.0,0.0,0.0,0.0,0.0,2.3529,2.3419,2.2721,0.0,0.0,0.0,0.0,0.0,0.0,0.0,0.0,0.0,2.7699,2.9568,3.2337,3.3403,3.4261,3.7974,4.2011,4.5432,4.574,4.8009,5.051,5.0818,5.2049,5.301,5.2241,5.1972,5.1029,4.7818,4.6961,4.621,4.3868,4.2158,4.1185,4.1405,4.1989,4.2794,4.3789,4.6471,4.9005,5.0582,5.227,5.3885,5.5427,5.6308,5.7302,5.8516,5.8903,5.9624,6.0815,6.1956,6.2622,6.2695,6.2768,6.2805,6.2805,6.2805,6.2805,6.2805,6.2805,6.2805,6.2805,6.3613,6.4016,6.4127,6.5595,6.6366,6.6549,6.7247,6.7614,6.7687,6.7687,6.7687,6.7687,6.7687,6.7687,6.7687,6.7687,6.8164,6.8788,0.0,0.0,0.0,0.0,0.0,0.0,2.9819,3.0211,3.1947,3.7281,3.5566,3.404,3.4481,3.278,2.9844,2.532,0.0,0.0,0.0,0.0,0.0,0.0,0.0,0.0,0.0,0.0,2.3413,2.4432,2.4432,0.0,0.0,0.0,0.0,0.0,0.0,2.3712,2.3676,2.2868,0.0,0.0,0.0,0.0,0.0,0.0,0.0,0.0,0.0,0.0,2.7956,3.0531,3.2158,3.3418,3.5349,3.8428,4.1741,4.3963,4.6242,4.8506,5.0221,5.1548,5.2318,5.201,5.0741,4.9009,4.68,4.4773,4.2674,4.03,3.8966,3.8212,3.8212,3.8872,3.9974,4.1772,4.4745,4.7609,4.9774,5.1463,5.3445,5.6014,5.643,5.6969,5.8134,5.9072,6.0108,6.1311,6.2291,6.2805,6.2805,6.2805,6.2805,6.2805,6.2805,6.2805,6.2805,6.2805,6.2805,6.2805,6.3686,6.4347,6.4861,6.5999,6.6769,6.7247,6.754,6.7687,6.7687,6.7687,6.7687,6.7687,6.7687,6.7981,6.8421,6.8421,6.8935,6.9633,0.0,0.0,0.0,0.0,0.0,2.6774,3.0309,3.0525,3.1984,3.6802,3.5346,3.41,3.4742,3.3389,3.0852,2.6962,2.5429,0.0,0.0,0.0,0.0,0.0,0.0,0.0,0.0,0.0,2.3554,2.4944,2.4944,2.5157,0.0,0.0,2.521,2.452,0.0,0.0,0.0,0.0,0.0,0.0,0.0,0.0,0.0,0.0,0.0,0.0,0.0,0.0,0.0,0.0,0.0,3.2381,3.3199,3.5152,3.7905,4.1863,4.445,4.6598,4.914,5.0663,5.1548,5.1548,4.9625,4.7338,4.5665,4.2858,3.9863,3.7414,3.6168,3.5569,3.5569,3.6413,3.7771,3.9717,4.313,4.6324,4.8526,5.0472,5.2931,5.6381,5.6404,5.671,5.8226,5.939,6.0589,6.1863,6.2475,6.2805,6.2805,6.2805,6.2904,6.3014,6.3062,6.3062,6.3062,6.3062,6.3113,6.3209,6.4053,6.4861,6.5705,6.6476,6.7136,6.7687,6.7687,6.7687,6.7687,6.7687,6.7687,6.7724,6.7944,6.8385,6.8935,6.9192,6.9779,7.044,0.0,0.0,0.0,0.0,0.0,0.0,2.8558,2.9894,3.17,3.4731,3.3475,3.3152,3.5351,3.2341,2.9837,2.9025,2.7476,0.0,0.0,0.0,0.0,0.0,0.0,0.0,0.0,0.0,2.392,2.4988,2.4988,2.5341,2.5973,2.5973,2.5796,2.5348,0.0,0.0,0.0,0.0,0.0,0.0,0.0,0.0,0.0,0.0,0.0,0.0,0.0,0.0,0.0,0.0,0.0,0.0,0.0,3.2548,3.4766,3.9524,4.2965,4.5583,4.7264,4.9196,5.0702,5.0702,4.8817,4.6377,4.4383,4.1727,3.8916,3.6109,3.4622,3.3844,3.3844,3.5202,3.656,3.7404,4.1552,4.5296,4.6911,4.926,5.2307,5.6345,5.6088,5.6528,5.8951,5.9905,6.108,6.2695,6.2805,6.2805,6.2805,6.2805,6.3062,6.355,6.3587,6.3587,6.3587,6.3587,6.3762,6.409,6.4897,6.5705,6.6512,6.732,6.7687,6.7687,6.7687,6.7687,6.7687,6.7687,6.7687,6.776,6.8568,6.8898,6.9009,6.9779,7.0587,7.1321,0.0,0.0,0.0,0.0,0.0,0.0,0.0,2.7543,2.8833,3.1357,3.0726,3.1055,3.3795,3.1258,2.9228,2.9028,2.7095,0.0,0.0,0.0,0.0,0.0,0.0,0.0,0.0,2.341,2.4432,2.6576,2.6576,2.6813,2.7236,2.744,2.6958,2.5796,2.5283,2.4887,0.0,0.0,0.0,0.0,0.0,0.0,2.3859,0.0,0.0,0.0,0.0,0.0,0.0,0.0,0.0,0.0,0.0,0.0,0.0,3.5291,3.8452,4.1518,4.3421,4.4829,4.5826,4.6458,4.4684,4.2645,4.2003,3.9255,3.6255,3.4209,3.2921,3.2155,3.2155,3.4431,3.6743,3.8102,4.2359,4.6287,4.8489,4.9958,5.2307,5.6345,5.7322,5.8553,6.0743,6.0901,6.1394,6.2695,6.2805,6.2805,6.2805,6.3121,6.3408,6.3593,6.3631,6.3631,6.3631,6.4152,6.4318,6.4127,6.5485,6.6256,6.6512,6.732,6.7687,6.7687,6.7687,6.8017,6.8495,6.7907,6.8348,6.9302,6.9009,6.9596,7.0587,7.0844,7.1431,7.2129,0.0,0.0,0.0,0.0,0.0,0.0,0.0,2.6188,2.7023,2.8617,2.8034,2.8594,3.1433,2.933,2.7807,2.8112,2.6451,0.0,0.0,0.0,0.0,0.0,0.0,0.0,2.3782,2.4357,2.5734,2.7944,2.8218,2.8555,2.8837,2.926,2.8694,2.7367,2.6936,2.6429,0.0,0.0,0.0,0.0,0.0,0.0,2.419,0.0,0.0,0.0,0.0,0.0,0.0,0.0,0.0,0.0,0.0,0.0,0.0,0.0,3.494,3.775,4.0378,4.2019,4.3137,4.3667,4.1888,3.9853,3.9458,3.6878,3.4051,3.2312,3.1642,3.1494,3.1788,3.4284,3.7037,3.9239,4.3167,4.6764,4.9224,5.0545,5.2573,5.6172,5.8136,5.9804,6.1353,6.1263,6.1582,6.2708,6.2805,6.2805,6.2805,6.3121,6.3498,6.3892,6.4059,6.4209,6.4341,6.4865,6.5068,6.5007,6.5999,6.6659,6.6953,6.7467,6.7687,6.7724,6.8017,6.8458,0.0,6.8678,6.9192,7.0073,6.9889,7.044,7.1358,7.1651,7.2092,7.2496,0.0,0.0,0.0,0.0,0.0,0.0,0.0,2.5659,2.6068,2.6508,2.5631,2.5979,2.8523,2.6792,2.5744,2.6488,0.0,0.0,0.0,0.0,0.0,0.0,0.0,0.0,2.4557,2.5913,2.7402,2.9059,2.977,3.0299,3.0663,3.1179,3.0818,2.9692,2.9223,2.8109,2.6355,2.408,2.3529,2.4116,2.3382,2.3529,0.0,0.0,0.0,0.0,0.0,0.0,0.0,0.0,0.0,0.0,0.0,0.0,0.0,0.0,0.0,0.0,0.0,4.034,4.194,4.194,4.0178,3.8177,3.7141,3.4941,0.0,3.093,3.114,3.185,3.2706,3.4835,3.7514,4.0671,4.3901,4.6875,4.9301,5.1176,5.3293,5.5993,5.8418,6.0207,6.1102,6.1135,6.1626,6.2757,6.2805,6.2805,6.2805,6.2855,6.3317,6.437,6.4909,6.5327,6.5576,6.5652,6.5983,6.6512,6.6549,6.699,6.7687,6.7687,6.7687,6.7724,6.8568,6.8935,6.9045,6.9779,7.0183,7.033,7.1027,7.1358,7.1505,7.2239,7.2496,7.2496,0.0,0.0,0.0,0.0,0.0,0.0,0.0,0.0,0.0,0.0,2.5103,2.5449,2.6636,2.5053,2.4309,0.0,0.0,0.0,0.0,0.0,0.0,0.0,0.0,0.0,2.5304,2.5676,2.7165,2.9837,3.004,3.0417,3.1074,3.2041,3.1952,3.0889,2.9853,2.7997,2.5585,2.441,2.4043,2.419,2.4006,2.4043,0.0,0.0,0.0,0.0,2.419,2.485,0.0,0.0,0.0,0.0,0.0,0.0,0.0,0.0,3.1201,3.2291,3.3755,0.0,3.8637,3.8637,3.8192,3.7711,0.0,3.6236,3.4782,3.4351,3.3942,3.3981,3.522,3.6927,3.8982,4.1589,4.4745,4.7611,4.9746,5.3013,5.5466,5.6218,5.8203,6.0077,6.1582,6.1657,6.2098,6.3342,6.3014,6.2805,6.2805,6.3168,6.3723,6.437,6.5479,6.5935,6.5576,6.6217,6.6544,6.6512,6.71,6.7504,6.7687,6.7687,6.7687,6.7724,6.8568,6.9265,6.9816,7.0,7.0844,7.1908,7.1468,7.1688,7.2239,7.2422,7.2496,7.2496,0.0,0.0,0.0,0.0,0.0,0.0,0.0,0.0,0.0,0.0,0.0,2.4197,2.4344,2.3568,0.0,0.0,0.0,0.0,0.0,0.0,0.0,0.0,0.0,2.4932,2.6082,2.7131,2.8653,3.0615,3.0954,3.1618,3.2569,3.2835,3.2754,3.2287,2.9962,2.8033,2.6355,2.4447,2.3859,2.4153,2.3786,0.0,0.0,0.0,0.0,0.0,2.419,2.4704,0.0,2.72,2.8007,2.8558,0.0,0.0,0.0,0.0,3.021,3.0944,3.1384,3.3623,3.5899,3.6266,3.634,3.6397,3.6528,3.5906,3.5192,3.4796,3.4981,3.5557,3.6654,3.9232,4.1915,4.4156,4.7233,5.007,5.2119,5.4422,5.6162,5.6776,5.8726,6.0483,6.1766,6.2183,6.2709,6.3562,6.3073,6.2805,6.2805,6.3308,6.385,6.437,6.5707,6.6417,6.6554,6.7051,6.7385,6.7418,6.7589,6.7687,6.7687,6.7687,6.7907,6.8311,6.9082,6.9926,7.0697,7.1064,7.1725,7.2459,7.2018,7.2129,7.2496,7.2496,7.2496,7.2496,0.0,0.0,0.0,0.0,0.0,0.0,0.0,0.0,0.0,0.0,0.0,0.0,0.0,0.0,0.0,0.0,0.0,0.0,0.0,0.0,0.0,0.0,2.5183,2.6218,2.7199,2.9127,3.0649,3.1698,3.253,3.3528,3.4688,3.4245,3.3949,3.3626,3.0004,2.8179,2.7603,2.452,2.3566,2.4153,2.3456,0.0,0.0,0.0,0.0,0.0,0.0,0.0,0.0,2.7714,2.8535,2.8888,3.0393,0.0,0.0,0.0,0.0,0.0,3.0393,3.2228,3.4321,3.4844,3.5174,3.5394,3.554,3.5707,3.5588,3.4871,3.5993,3.7448,3.8479,4.1623,4.4804,4.7205,5.0164,5.2881,5.4801,5.5495,5.6224,5.745,5.9439,6.1045,6.1911,6.2671,6.3275,6.3691,6.3121,6.2805,6.2805,6.3308,6.385,6.437,6.5821,6.693,6.7583,6.7884,6.8194,6.8511,6.7982,6.7687,6.7687,6.7834,6.8238,6.8972,6.9889,7.066,7.1358,7.2165,7.2496,7.2496,7.2496,7.2496,7.2496,7.2496,7.2496,7.2496,0.0,0.0,0.0,0.0,0.0,0.0,0.0,0.0,0.0,0.0,0.0,0.0,0.0,0.0,0.0,0.0,0.0,0.0,0.0,0.0,0.0,2.5227,2.609,2.7503,2.9533,2.9939,3.1393,3.3998,3.5311,3.6325,3.7089,3.8104,3.7039,3.4051,3.0483,2.8489,2.764,2.5071,2.408,2.419,2.408,0.0,0.0,0.0,0.0,0.0,0.0,0.0,0.0,2.5585,2.6392,2.7126,2.8044,0.0,0.0,0.0,0.0,0.0,3.1201,3.3513,3.5752,3.5137,3.6083,3.7294,3.7991,3.8818,3.9369,3.9007,3.9956,4.1452,4.3774,4.3828,4.4915,4.9073,5.156,5.3616,5.5362,5.624,5.707,5.7966,5.9653,6.1149,6.2382,6.2848,6.3427,6.4218,6.3363,6.2805,6.2805,6.3308,6.385,6.437,6.6387,6.7463,6.7583,6.7884,6.8194,6.8511,6.7982,6.7687,6.7724,6.8421,6.8788,6.8972,7.0477,7.1211,7.1358,7.2165,7.2496,7.2496,7.2496,7.2496,7.2496,7.2496,7.2496,7.2496,0.0,0.0,0.0,0.0,0.0,0.0,0.0,0.0,0.0,0.0,0.0,0.0,0.0,0.0,0.0,0.0,0.0,0.0,0.0,0.0,2.5632,2.7197,2.7703,2.8416,2.9465,3.0991,3.2861,3.5029,3.6781,3.816,3.9103,3.84,3.675,3.4248,3.1284,2.9393,2.8338,2.6355,2.4997,2.419,0.0,0.0,0.0,0.0,0.0,0.0,0.0,0.0,0.0,0.0,2.6282,2.6833,2.8081,0.0,0.0,0.0,0.0,0.0,3.1274,3.3146,3.5165,3.6119,3.8087,4.0073,4.1334,4.2146,4.2575,4.2247,4.2939,4.4214,4.6321,4.7105,4.8701,5.2541,5.3943,5.5032,5.6535,5.702,5.7602,5.8713,6.033,6.1675,6.2513,6.3334,6.3955,6.437,6.3408,6.2805,6.2805,6.3593,6.4138,6.437,6.6771,6.7875,6.7583,6.8338,6.8645,6.8511,6.8373,6.8348,6.8385,6.9192,6.9779,7.0257,7.0991,7.1578,7.1982,7.2349,7.2496,7.2496,7.2496,7.2496,7.2496,7.2496,7.2496,7.2496,0.0,0.0,0.0,0.0,0.0,0.0,0.0,0.0,0.0,0.0,0.0,0.0,0.0,0.0,0.0,0.0,0.0,0.0,0.0,2.5004,2.6267,2.7971,2.8493,2.9336,3.0745,3.2879,3.499,3.6996,3.91,4.038,4.078,3.8567,3.6463,3.4437,3.2198,3.0483,2.9159,2.7383,2.5768,2.4447,0.0,0.0,0.0,0.0,0.0,0.0,0.0,0.0,0.0,0.0,0.0,0.0,0.0,0.0,0.0,2.9696,3.021,3.065,3.1458,3.3146,3.5312,3.7955,3.9986,4.1845,4.3946,4.4768,4.5084,4.4861,4.5589,4.6749,4.8241,5.0252,5.2447,5.4738,5.5559,5.6277,5.7454,5.762,5.8091,5.9279,6.0896,6.2053,6.2552,6.3778,6.4518,6.4407,6.3505,6.2917,6.2805,6.385,6.4483,6.4672,6.708,6.8177,6.7715,6.8981,6.9321,6.8772,6.8852,6.9009,6.9229,7.0,7.0734,7.1321,7.1505,7.1945,7.2496,7.2496,7.2496,7.2496,7.2496,7.2496,7.2496,7.2496,7.2496,7.2496,0.0,0.0,0.0,0.0,0.0,0.0,0.0,0.0,0.0,0.0,0.0,0.0,0.0,0.0,0.0,0.0,0.0,0.0,0.0,2.5004,2.5588,2.5729,2.712,3.0441,3.5833,3.6197,3.8018,4.1428,4.3652,4.3868,4.2142,4.0455,3.7998,3.4889,3.3203,3.1616,2.9953,2.7603,2.6098,2.5274,2.4483,0.0,0.0,0.0,0.0,0.0,0.0,0.0,0.0,0.0,0.0,0.0,0.0,0.0,2.8044,2.8851,3.0136,3.1494,3.2302,3.4835,3.7991,4.1148,4.0997,4.0972,4.4512,4.591,4.6518,4.6825,4.8191,4.9561,5.0409,5.2598,5.4063,5.3482,5.5066,5.6643,5.7482,5.7883,5.8377,5.9276,6.0896,6.2053,6.2552,6.4076,6.4866,6.4407,6.3892,6.3354,6.2805,6.385,6.4709,6.5502,6.7386,6.8258,6.7956,6.9614,7.0148,6.9629,6.911,6.9302,7.0036,7.0844,7.1248,7.1358,7.2092,7.2459,7.2496,7.2496,7.2496,7.2496,7.2496,7.2496,7.2496,7.2496,7.2496,7.2496,0.0,0.0,0.0,0.0,0.0,0.0,0.0,0.0,0.0,0.0,0.0,0.0,0.0,0.0,0.0,0.0,0.0,0.0,0.0,2.4908,2.5941,2.6894,2.7719,3.1046,3.7254,3.7212,3.8854,4.2465,4.4086,4.376,4.1515,3.99,3.7661,3.4954,3.4367,3.2669,3.0099,2.8705,2.7053,2.5348,2.452,2.419,0.0,0.0,0.0,0.0,0.0,0.0,0.0,0.0,2.441,2.4887,2.6209,2.6796,2.742,2.9219,3.0907,3.2449,3.377,3.6676,3.9962,4.2459,4.3144,4.4085,4.7245,4.8777,4.9332,4.873,5.0134,5.1657,5.2167,5.4362,5.5873,5.5275,5.6511,5.7774,5.8262,5.8672,5.905,5.9351,6.0896,6.2053,6.2552,6.3845,6.459,6.4407,6.3593,6.3014,6.2805,6.385,6.4747,6.5578,6.7424,6.8296,6.7992,6.9649,7.0346,6.9938,7.022,7.055,7.0881,7.1688,7.2055,7.2055,7.2386,7.2496,7.2496,7.2496,7.2496,7.2496,7.2496,7.2496,7.2496,7.2496,7.2496,7.2496,0.0,0.0,0.0,0.0,0.0,0.0,0.0,0.0,0.0,0.0,0.0,0.0,0.0,0.0,0.0,0.0,0.0,0.0,2.3858,2.5004,2.6232,2.7548,2.8509,3.1409,3.6702,3.7073,3.9121,4.3032,4.3394,4.247,4.0304,3.8689,3.7037,3.5385,3.4587,3.301,3.087,2.9586,2.775,2.5695,2.4887,2.441,0.0,0.0,0.0,0.0,0.0,0.0,0.0,0.0,2.419,2.4483,2.6098,2.6612,2.709,2.9475,3.1777,3.3857,3.5198,3.8191,4.1409,4.3658,4.4978,4.6487,4.94,5.0643,5.1128,5.1076,5.2015,5.3014,5.3669,5.5091,5.6257,5.6382,5.7479,5.8347,5.8576,5.9062,5.9284,5.899,6.0716,6.2019,6.2357,6.3916,6.4734,6.4407,6.3723,6.3168,6.2805,6.385,6.4898,6.5993,6.7539,6.8526,6.8784,7.0177,7.077,7.0477,7.1284,7.1688,7.1725,7.2275,7.2496,7.2496,7.2496,7.2496,7.2496,7.2496,7.2496,7.2496,7.2496,7.2496,7.2496,7.2496,7.2496,7.2496,0.0,0.0,0.0,0.0,0.0,0.0,0.0,0.0,2.2788,2.3566,2.3674,0.0,0.0,0.0,0.0,0.0,0.0,0.0,2.4116,2.5325,2.6333,2.7175,2.9098,3.151,3.4413,3.5973,3.8961,4.3461,4.1882,4.0304,3.8652,3.7074,3.6303,3.6156,3.3733,3.2632,3.2412,3.0002,2.8081,2.6539,2.5731,2.4924,2.419,0.0,0.0,0.0,0.0,0.0,0.0,0.0,2.419,2.4483,2.6098,2.6612,2.709,2.9475,3.2757,3.5783,3.6595,3.9223,4.238,4.5149,4.6223,4.747,5.0596,5.106,5.1527,5.398,5.3796,5.3596,5.4863,5.476,5.4943,5.6224,5.7479,5.8272,5.8131,5.8861,5.9028,5.8097,6.0332,6.1878,6.1878,6.4335,6.5485,6.4482,6.4407,6.3934,6.2855,6.385,6.5162,6.6861,6.7883,6.9068,7.052,7.1308,7.1546,7.1321,7.2129,7.2496,7.2496,7.2496,7.2496,7.2496,7.2496,7.2496,7.2496,7.2496,7.2496,7.2496,7.2496,7.2496,7.2496,7.2496,7.2496,7.2496,0.0,0.0,0.0,0.0,0.0,0.0,0.0,0.0,2.2319,2.3123,2.2721,0.0,0.0,0.0,0.0,0.0,0.0,0.0,2.3002,2.436,2.5541,2.6405,2.7507,2.9692,3.3095,3.5323,3.8199,4.1809,4.1919,4.0524,3.7845,3.7955,3.645,3.3733,3.411,3.3036,3.0834,2.9525,2.8081,2.6576,2.6355,2.5401,2.4263,0.0,0.0,0.0,0.0,0.0,0.0,0.0,0.0,0.0,2.5254,2.6539,2.7714,2.8998,3.2551,3.638,3.7755,4.1134,4.4722,4.6681,4.795,4.9334,5.1701,5.1896,5.2125,5.376,5.3594,5.3588,5.4863,5.5483,5.614,5.709,5.8322,5.9115,5.9034,5.9238,5.9028,5.8097,6.0332,6.1878,6.1878,6.3975,6.5067,6.4444,6.4019,6.3505,6.2855,6.385,6.5464,6.7731,6.8794,7.0018,7.1388,7.2213,7.2192,7.1321,7.2129,7.2496,7.2496,7.2496,7.2496,7.2496,7.2496,7.2496,7.2496,7.2496,7.2496,7.2496,7.2496,7.2496,7.2496,7.2496,7.2496,7.2496,0.0,0.0,0.0,0.0,0.0,0.0,2.0429,2.096,2.1584,2.2428,2.2097,2.1987,0.0,0.0,0.0,2.1784,2.1914,2.2209,2.2659,2.3873,2.5092,2.6263,2.704,2.8773,3.1604,3.4688,3.7074,3.8658,3.9166,3.8395,3.6523,3.7,3.6119,3.41,3.4697,3.377,3.1568,3.043,2.8851,2.709,2.742,2.6392,2.474,0.0,0.0,0.0,0.0,0.0,0.0,0.0,0.0,0.0,2.4887,2.6502,2.8309,3.0886,3.4736,3.8596,4.0514,4.3821,4.7033,4.8323,4.9504,5.0783,5.2705,5.3289,5.3644,5.423,5.4031,5.4004,5.4939,5.5646,5.6483,5.7698,5.8779,5.9486,5.9412,5.9389,5.9028,5.8097,6.0332,6.1878,6.1878,6.4045,6.5099,6.4444,6.4099,6.3593,6.2855,6.3593,6.5344,6.8109,6.8979,7.0315,7.2256,7.2741,7.2603,7.1798,7.2275,7.2496,7.2496,7.2496,7.2496,7.2496,7.2496,7.2496,7.2496,7.2496,7.2496,7.2496,7.2496,7.2496,7.2496,7.2496,7.2496,7.2496,0.0,0.0,0.0,0.0,0.0,0.0,2.0283,2.0393,2.0703,2.1547,2.1637,2.1601,0.0,0.0,0.0,2.149,2.0923,2.1163,2.2795,2.3639,2.4814,2.6429,2.731,2.8558,3.0173,3.3917,3.5532,3.488,3.51,3.5137,3.499,3.5137,3.5495,3.5936,3.5238,3.4468,3.3587,3.1971,2.9916,2.786,2.8705,2.753,2.5384,2.6172,0.0,0.0,0.0,0.0,0.0,0.0,0.0,0.0,2.4704,2.6429,2.8832,3.3589,3.7807,4.1387,4.3718,4.6569,4.911,4.9997,5.0961,5.2117,5.3671,5.4863,5.5516,5.5019,5.4693,5.4616,5.5102,5.5548,5.6383,5.815,5.9065,5.9511,5.9412,5.9354,5.899,5.8097,6.0332,6.1878,6.1878,6.4335,6.5485,6.4482,6.437,6.3896,6.2855,6.3308,6.5052,6.8222,6.8709,7.0269,7.3081,7.3075,7.2892,7.2496,7.2496,7.2496,7.2496,7.2496,7.2496,7.2496,7.2496,7.2496,7.2496,7.2496,7.2496,7.2496,7.2496,7.2496,7.2496,7.2496,7.2496,7.2496,0.0,0.0,0.0,0.0,0.0,0.0,1.9528,1.9565,1.9858,2.0666,2.0225,2.0079,2.0703,2.0042,0.0,1.9837,2.0262,2.096,2.1987,2.2795,2.3969,2.5585,2.7016,2.8558,3.0173,3.1678,3.2963,3.4064,3.6009,3.6303,3.5027,3.634,3.5679,3.344,3.388,3.3623,3.2742,3.1127,2.9439,2.786,2.8705,2.72,2.4557,2.5328,2.4557,0.0,0.0,0.0,0.0,0.0,0.0,0.0,2.3199,2.5915,2.8962,3.0107,3.504,4.0444,4.1941,4.5573,4.9281,5.0698,5.2464,5.4035,5.469,5.5045,5.4943,5.3859,5.38,5.4409,5.5836,5.6459,5.7256,5.8957,5.9639,5.9845,5.942,5.9065,5.8632,5.8088,6.0332,6.1878,6.1878,6.4335,6.5485,6.4482,6.437,6.3896,6.2855,6.3308,6.5277,6.9015,6.9207,7.0756,7.3991,7.3532,7.3038,7.2496,7.2496,7.2496,7.2496,7.2496,7.2496,7.2496,7.2496,7.2496,7.2496,7.2496,7.2496,7.2496,7.2496,7.2496,7.2496,7.2496,7.2496,7.2496,0.0,0.0,0.0,0.0,0.0,0.0,0.0,0.0,1.9895,1.9932,1.9565,1.9455,1.9895,1.9565,0.0,0.0,1.9675,2.0299,2.1106,2.1951,2.3125,2.474,2.6355,2.742,2.7897,2.9806,3.1237,3.2082,3.4137,3.4724,3.3917,3.5973,3.5385,3.2706,3.4688,3.4688,3.3109,3.2265,3.076,2.8998,2.9402,2.7897,2.5438,2.6245,2.5291,2.3529,2.3088,0.0,0.0,0.0,0.0,0.0,0.0,0.0,2.8346,3.0835,3.4809,3.9194,4.2752,4.5714,4.8526,5.1476,5.3215,5.4317,5.4969,5.479,5.4301,5.362,5.3678,5.4237,5.5761,5.6564,5.7552,5.9226,5.9855,5.9916,5.9458,5.9028,5.8545,5.8088,6.0332,6.1878,6.1878,6.4076,6.5199,6.4482,6.4138,6.3823,6.3443,6.353,6.5539,6.9846,6.9854,7.1217,7.4255,7.398,7.3391,7.2496,7.2496,7.2496,7.2496,7.2496,7.2496,7.2496,7.2496,7.2496,7.2496,7.2496,7.2496,7.2496,7.2496,7.2496,7.2496,7.2496,7.2496,7.2496,0.0,0.0,0.0,0.0,0.0,0.0,0.0,0.0,0.0,1.9381,1.9323,1.9323,1.9323,1.9323,1.9323,0.0,0.0,0.0,2.0429,2.1327,2.2464,2.3933,2.5401,2.5952,2.5421,2.8411,2.9989,2.9989,3.1604,3.2485,3.2669,3.4835,3.4614,3.2522,3.5385,3.5569,3.3807,3.366,3.2375,3.0393,3.0393,2.9035,2.709,2.775,2.6686,2.4814,2.4667,2.3566,2.2061,2.1216,0.0,0.0,0.0,0.0,2.769,3.2151,3.5016,3.7941,4.3641,4.6339,4.8515,5.2448,5.3775,5.4282,5.4863,5.4414,5.3869,5.372,5.387,5.439,5.5697,5.6657,5.784,5.9456,5.9879,5.9855,5.9458,5.8951,5.8461,5.8042,6.0252,6.1805,6.1878,6.3778,6.4799,6.4407,6.3934,6.3771,6.4104,6.3807,6.5827,7.0448,7.027,7.1485,7.4255,7.4206,7.359,7.2496,7.2496,7.2496,7.2496,7.2496,7.2496,7.2496,7.2496,7.2496,7.2496,7.2496,7.2496,7.2496,7.2496,7.2496,7.2496,7.2496,7.2496,7.2496,0.0,0.0,0.0,0.0,0.0,0.0,0.0,0.0,0.0,0.0,1.9323,1.9323,1.9323,1.9323,1.9323,1.9323,1.9323,1.9638,2.0429,0.0,0.0,2.3125,2.4043,2.4777,2.5384,2.786,2.9159,2.9159,3.076,3.1935,3.2632,3.366,3.322,3.1604,3.2742,3.3476,3.3733,3.3073,3.2192,3.1237,3.1237,3.021,2.8682,2.8792,2.8227,2.7236,2.6539,2.5254,2.3749,2.2942,2.2667,0.0,0.0,0.0,2.7919,2.9324,3.2882,3.7202,4.1213,4.6921,5.2179,5.3909,5.4912,5.527,5.4693,5.4484,5.4187,5.344,5.4158,5.5286,5.6564,5.7818,5.9081,6.0426,5.9998,5.9458,5.9389,5.8673,5.8051,5.7997,5.995,6.1462,6.1842,6.3462,6.4444,6.4407,6.3934,6.3771,6.4104,6.4081,6.6044,7.0448,7.0104,7.1261,7.4255,7.3794,7.3172,7.2496,7.2496,7.2496,7.2496,7.2496,7.2496,7.2496,7.2496,7.2496,7.2496,7.2496,7.2496,7.2496,7.2496,7.2496,7.2496,7.2496,7.2496,7.2496,0.0,0.0,0.0,0.0,0.0,0.0,0.0,0.0,0.0,0.0,0.0,1.9323,1.9323,1.9323,1.9323,1.9323,1.9323,1.9638,2.0429,2.0849,2.1437,2.2281,2.2648,2.3015,2.3401,2.5731,2.6759,2.6319,2.9732,3.1347,3.1311,3.2999,3.3403,3.2742,3.2632,3.3073,3.377,3.344,3.3073,3.2742,3.2742,3.2596,3.2239,3.1359,3.1384,3.1678,3.043,2.8925,2.731,2.5585,2.441,2.3602,2.3162,0.0,0.0,0.0,3.1164,3.4803,4.049,4.5556,4.9908,5.2986,5.3666,5.3726,5.439,5.4121,5.3643,5.3272,5.48,5.6353,5.6894,5.8068,5.9234,6.025,5.9855,5.9284,5.9028,5.8418,5.7997,5.7997,6.0124,6.1695,6.1878,6.3676,6.485,6.5049,6.4154,6.4142,6.539,6.4845,6.6582,7.1127,7.0907,7.1848,7.4293,7.4026,7.3442,7.2496,7.2496,7.2496,7.2496,7.2496,7.2496,7.2496,7.2496,7.2496,7.2496,7.2496,7.2496,7.2496,7.2496,7.2496,7.2496,7.2496,7.2496,7.2496,0.0,0.0,0.0,0.0,0.0,0.0,0.0,0.0,0.0,0.0,0.0,1.9323,1.9323,0.0,0.0,0.0,1.9323,1.9565,2.0152,2.0189,2.0482,2.116,2.1363,2.1473,2.1473,2.3639,2.4593,2.419,2.8007,3.021,3.0834,3.2449,3.3733,3.4688,3.344,3.2999,3.322,3.3844,3.41,3.4137,3.4578,3.5092,3.5532,3.4541,3.4908,3.5724,3.4137,3.2632,3.1054,2.8631,2.6906,2.5548,2.4557,2.5181,0.0,0.0,0.0,3.3906,3.9674,4.3497,4.6824,5.079,5.1701,5.2114,5.4069,5.387,5.3433,5.3617,5.5286,5.6771,5.7094,5.8339,5.9557,6.0018,5.9728,5.9212,5.8756,5.8326,5.7997,5.7997,6.0045,6.1657,6.1878,6.3641,6.5002,6.5765,6.4612,6.4707,6.6602,6.5779,6.7232,7.1656,7.1598,7.2472,7.4468,7.4206,7.3541,7.2496,7.2496,7.2496,7.2496,7.2496,7.2496,7.2496,7.2686,7.263,7.2496,7.2686,7.263,7.2496,7.2496,7.2496,7.2496,7.2496,7.2496,7.2496,0.0,0.0,0.0,0.0,0.0,0.0,0.0,0.0,0.0,0.0,0.0,1.9323,1.9323,1.9323,1.9323,1.9323,1.9323,1.9323,1.9344,1.9344,1.9381,1.9433,2.0152,0.0,2.0576,2.2227,2.3492,2.419,2.5237,2.8044,3.2485,3.1825,3.3587,3.7184,3.4798,3.2889,3.1678,3.399,3.4917,3.5064,3.667,3.736,3.7441,3.8138,3.8432,3.8285,3.6707,3.5532,3.4367,3.1971,3.0577,2.9622,2.8044,2.8117,2.8828,0.0,0.0,0.0,3.7828,4.1146,4.4824,4.7366,4.9429,5.1488,5.3849,5.4083,5.4019,5.4764,5.5388,5.6154,5.7349,5.9294,6.0584,6.0161,5.9728,5.9212,5.8756,5.8326,5.7997,5.7997,5.9475,6.0826,6.1805,6.2963,6.4397,6.6222,6.5382,6.5448,6.7161,6.674,6.8074,7.1694,7.1773,7.2848,7.5054,7.3989,7.3119,7.2496,7.2496,7.2496,7.2496,7.2496,7.2496,7.2553,7.3119,7.305,7.2553,7.3119,7.305,7.2496,7.2496,7.2496,7.2496,7.2496,7.2496,7.2496,0.0,0.0,0.0,0.0,0.0,0.0,0.0,0.0,0.0,0.0,0.0,0.0,0.0,2.0903,2.0666,2.0115,1.9601,1.9323,1.9323,1.9323,1.9323,1.9323,1.9565,1.9711,1.9711,2.1363,2.2354,2.2648,2.5034,2.731,2.9549,3.1347,3.2669,3.355,3.322,3.2999,3.2963,3.333,3.377,3.4468,3.7184,3.9203,4.0598,4.0891,4.1662,4.243,4.1607,3.9956,3.7831,3.5614,3.3808,3.2045,2.9402,2.8778,2.9085,2.9622,3.1751,3.4539,3.7243,3.9848,4.2687,4.6367,4.8833,5.0717,5.2139,5.2977,5.3514,5.381,5.4837,5.6015,5.7043,5.8473,5.9578,5.9614,5.9248,5.8796,5.8326,5.8097,5.7997,5.7997,5.9998,6.1503,6.1842,6.4267,6.6211,6.712,6.6484,6.6673,6.7989,6.7059,6.8136,7.1694,7.1769,7.2683,7.4551,7.3794,7.3066,7.2496,7.2496,7.2496,7.2496,7.2496,7.2742,7.3066,7.329,7.305,7.2496,7.2705,7.2686,7.2496,7.2496,7.2496,7.2496,7.2496,7.2496,7.2496,0.0,0.0,0.0,0.0,0.0,0.0,0.0,0.0,2.2208,2.2208,0.0,0.0,0.0,0.0,2.1547,2.0996,2.0189,1.9711,1.9711,1.9455,1.9323,1.9323,1.9323,1.9323,1.9323,2.0115,2.0813,2.1363,2.3529,2.5548,2.7457,2.9879,3.1127,3.1421,3.1971,3.2485,3.2999,3.2999,3.333,3.41,3.7661,4.0047,4.1589,4.2396,4.3534,4.4632,4.3943,4.3051,4.1829,3.9738,3.8328,3.6805,3.3191,3.1175,3.0393,3.1164,3.1788,3.2893,3.6133,3.7809,3.9639,4.3864,4.68,4.908,5.0594,5.2116,5.3419,5.4269,5.4907,5.5744,5.7156,5.7692,5.828,5.9231,5.9028,5.8508,5.8088,5.7997,5.7997,5.7997,6.0221,6.1955,6.2293,6.5155,6.7378,6.8227,6.7614,6.768,6.8721,6.758,6.8396,7.1731,7.2699,7.3571,7.4293,7.3888,7.3327,7.2496,7.2496,7.2496,7.2496,7.2496,7.2816,7.3391,7.3391,7.3172,7.2816,7.2816,7.2686,7.2496,7.2496,7.2496,7.2496,7.2496,7.2496,7.2496,0.0,0.0,0.0,0.0,0.0,0.0,2.2942,2.3125,2.3125,2.3125,0.0,0.0,0.0,0.0,0.0,2.1931,2.1086,2.0556,2.0519,1.9748,1.9323,1.9323,1.9323,1.9323,1.9323,1.8537,1.8904,2.0503,2.0539,2.2557,2.6502,2.7383,2.8998,3.1237,3.1347,3.1384,3.1458,3.3109,3.377,3.41,3.8248,3.9968,4.0262,4.2687,4.4156,4.4741,4.3558,4.4677,4.6382,4.436,4.4107,4.3869,3.9339,3.5539,3.2852,3.355,3.2669,3.1971,0.0,0.0,0.0,3.9639,4.3235,4.6617,4.941,5.1671,5.3846,5.6281,5.5616,5.5337,5.7796,5.7226,5.7034,5.9046,5.899,5.8508,5.8097,5.7997,5.7997,5.8033,6.0173,6.2048,6.3162,6.5464,6.7648,6.9575,6.8666,6.8407,6.9275,6.8346,6.9039,7.1731,7.4533,7.5451,7.4336,7.4336,7.3699,7.2553,7.2553,7.2496,7.2496,7.2496,7.2871,7.3442,7.3442,7.3442,7.3442,7.3391,7.3013,7.2496,7.2496,7.2496,7.2496,7.2496,7.2496,7.2496,0.0,0.0,0.0,0.0,0.0,2.3602,2.3823,2.5364,2.6245,0.0,0.0,0.0,2.5364,2.4857,2.4611,2.4633,2.2789,2.1407,2.0782,1.9819,1.9323,1.9323,1.9323,1.9323,1.9323,1.9087,1.9455,2.0503,2.1143,2.2318,2.4043,2.6025,2.731,2.8044,3.0356,3.1091,3.0687,3.2852,3.3109,3.2559,3.8432,4.1261,4.2411,4.5398,4.7602,4.9107,4.9019,4.8878,4.8626,4.7767,4.5672,4.25,3.7441,3.557,3.4981,3.3403,3.3036,3.3293,3.3954,0.0,0.0,0.0,0.0,0.0,4.8384,5.1066,5.3322,5.3719,5.5115,5.6436,5.7149,5.7466,5.788,5.8765,5.8271,5.7925,5.8433,5.8194,5.8217,5.8804,6.1162,6.3123,6.3992,6.7011,6.9136,6.964,6.9578,6.9436,6.9313,7.0191,7.1019,7.1769,7.4533,7.5654,7.4905,7.4905,7.4299,7.3172,7.3172,7.2889,7.2496,7.2943,7.3492,7.4072,7.4072,7.4072,7.4026,7.3553,7.3013,7.2496,7.2496,7.2496,7.2496,7.2496,7.2496,7.2496,0.0,0.0,2.2611,2.3639,2.4593,2.5438,2.6098,2.742,2.8051,0.0,0.0,0.0,2.6953,2.6912,2.6773,2.6384,2.4445,2.3116,2.2862,2.1012,2.004,2.0315,1.969,1.9323,1.9323,1.8977,1.9198,2.0005,2.0519,2.118,2.2006,2.4116,2.5291,2.5731,2.8594,2.9989,3.0393,3.3146,3.3587,3.2915,3.8929,4.1943,4.3315,4.7072,4.9461,5.079,5.0837,5.0924,5.1074,5.0841,4.83,4.4608,4.1166,3.8785,3.6964,3.5165,3.4027,3.344,3.4137,3.5128,3.6523,3.8982,0.0,0.0,4.7165,5.0638,5.3606,5.41,5.582,5.7256,5.7443,5.7853,5.8342,5.8679,5.8127,5.7974,5.8794,5.885,5.9005,5.9612,6.17,6.3375,6.4332,6.7182,6.9207,6.9679,6.9973,6.9775,6.9021,7.0776,7.1769,7.1769,7.4533,7.5718,7.5091,7.5091,7.4672,7.3747,7.3541,7.3224,7.2926,7.3275,7.3699,7.4293,7.4547,7.4506,7.4249,7.3934,7.3275,7.2496,7.2496,7.2496,7.2496,7.2496,7.2496,7.2569,0.0,0.0,2.3897,2.6213,2.6733,2.738,2.9001,2.931,2.9163,0.0,2.8577,2.8315,2.7749,2.8417,2.8563,2.7661,2.6162,2.5408,2.5747,2.3019,2.1533,2.1799,2.0399,1.95,1.9323,1.861,1.8588,1.9353,1.9396,1.9801,2.0572,2.2244,2.3419,2.43,2.6906,2.8888,3.054,3.3807,3.4972,3.5118,4.0011,4.2492,4.3699,4.8126,5.0458,5.1309,5.0822,5.1877,5.3404,5.3123,5.1252,4.8833,4.737,4.3631,3.9496,3.8138,3.5679,3.366,3.4697,3.4504,3.4504,3.689,4.0304,0.0,4.576,4.9809,5.3599,5.5113,5.6321,5.7167,5.7479,5.7757,5.8055,5.8394,5.8202,5.8278,5.9034,5.9486,5.9869,6.032,6.1886,6.3288,6.4407,6.6711,6.859,6.9613,6.9872,6.9626,6.8614,7.0648,7.1769,7.1769,7.4533,7.5718,7.5236,7.5198,7.4943,7.4379,7.3794,7.3492,7.3391,7.3492,7.3794,7.4336,7.4943,7.4905,7.4379,7.4336,7.359,7.2496,7.2496,7.2496,7.2496,7.2496,7.2496,7.2606,2.2942,2.3656,2.476,2.66,2.7603,2.8686,3.0377,3.1167,3.1505,3.1412,3.1412,3.1072,3.0281,3.0544,3.0426,2.9544,2.8627,2.7586,2.6352,2.5498,2.4172,2.2137,2.1712,2.0841,1.9323,1.9161,1.9199,1.9541,2.0047,2.0415,2.0752,2.2277,2.3419,2.4373,2.8081,3.0283,3.1384,3.4651,3.7664,4.0337,4.2677,4.4355,4.5824,4.9543,5.2537,5.4649,5.3925,5.4326,5.4871,5.2617,5.2486,5.2409,4.732,4.6071,4.5516,4.0818,3.8982,3.7955,3.5614,3.488,3.5238,3.7037,3.9056,0.0,4.356,4.6358,4.8605,4.9332,5.171,5.3474,5.2865,5.4368,5.5806,5.6166,5.7034,5.7898,5.8702,5.8548,5.8906,6.0236,6.1991,6.3727,6.52,6.7158,6.8695,6.9629,6.9535,6.9393,6.9148,7.0818,7.1769,7.1769,7.4533,7.5947,7.5818,7.5818,7.5518,7.4943,7.4422,7.3888,7.3442,7.3888,7.4206,7.4336,7.5379,7.5518,7.4943,7.4506,7.359,7.2496,7.2496,7.2496,7.2496,7.2496,7.2496,7.2606,2.3822,2.4613,2.6059,2.8555,2.9396,3.0447,3.2543,3.2487,3.2392,3.2931,3.3489,3.3347,3.2035,3.2775,3.2872,3.1555,3.1098,3.0509,2.956,2.8221,2.6854,2.5401,2.4157,2.267,2.083,2.042,2.0036,1.9688,1.9996,2.0178,2.0252,2.2173,2.4689,2.7643,2.9588,3.2275,3.5416,3.6599,3.8534,4.0993,4.3437,4.6138,4.9072,5.1844,5.4057,5.5665,5.5241,5.5626,5.6104,5.4484,5.3888,5.3407,5.0525,4.864,4.6823,4.3564,4.1482,3.9711,3.7463,3.5944,3.5284,3.656,3.7808,0.0,0.0,4.4225,4.6364,4.6824,4.9814,5.2296,5.185,5.3433,5.4834,5.4754,5.6145,5.693,5.6084,5.8036,5.9899,6.0908,6.2017,6.3009,6.3691,6.5563,6.74,6.8948,6.906,6.9056,6.9056,7.1067,7.2206,7.2206,7.467,7.6015,7.6015,7.6015,7.5848,7.5551,7.498,7.4551,7.4255,7.4551,7.471,7.4749,7.5622,7.5686,7.5091,7.4828,7.3989,7.2889,7.263,7.2496,7.2496,7.2496,7.2753,7.3193,2.4667,2.5475,2.7017,3.0045,3.076,3.1665,3.3979,3.322,3.2703,3.3738,3.5115,3.5391,3.3814,3.5315,3.5776,3.4045,3.4314,3.426,3.3425,3.1847,3.0605,2.9877,2.7348,2.5156,2.3574,2.2237,2.1103,2.0081,2.021,2.0138,2.0,2.2353,2.5884,3.0282,3.1369,3.4375,3.8602,3.9309,4.0262,4.1563,4.4632,4.8226,5.1942,5.4043,5.5462,5.623,5.5835,5.6242,5.6928,5.6537,5.5417,5.4193,5.4058,5.1479,4.8119,4.6365,4.3997,4.1484,3.9651,3.7647,3.6131,3.6662,3.739,3.8522,0.0,0.0,0.0,4.5208,4.8164,5.0621,5.047,5.1946,5.2982,5.2454,5.4273,5.5096,5.3019,5.6921,6.027,6.0834,6.1693,6.2211,6.2145,6.4747,6.6863,6.7833,6.9061,6.9485,6.8836,7.1201,7.2609,7.2609,7.4804,7.6015,7.6015,7.6015,7.6015,7.5976,7.5413,7.5091,7.5091,7.5091,7.5091,7.5127,7.5718,7.5718,7.5271,7.5127,7.4509,7.3541,7.2889,7.2573,7.2532,7.2679,7.3235,7.4012,2.4823,2.5574,2.6835,2.8717,2.9832,3.106,3.2826,3.2941,3.3146,3.4057,3.6224,3.7353,3.6392,3.8469,3.9238,3.7584,3.9508,3.9492,3.644,3.7416,3.7026,3.455,3.1322,2.9074,2.7979,2.4902,2.2602,2.1145,2.1718,2.1706,2.1151,2.3326,2.556,2.7954,3.3644,3.6096,3.6348,4.2855,4.5902,4.6588,4.9098,5.108,5.2735,5.518,5.7014,5.8148,5.636,5.6242,5.6928,5.6473,5.6877,5.7201,5.5076,5.4747,5.4131,4.9019,4.726,4.6084,4.194,4.0325,3.9565,3.867,3.9283,4.0234,4.0867,0.0,4.2677,4.2709,0.0,4.5324,4.4623,0.0,0.0,4.6911,4.9452,5.1403,5.1096,5.4081,5.6765,5.8217,6.0476,6.2183,6.2935,6.8088,6.9948,6.6436,7.0623,7.1998,6.8951,7.1201,7.2609,7.2609,7.4804,7.6015,7.6015,7.6015,7.6015,7.5976,7.5413,7.5091,7.5091,7.5091,7.5091,7.5127,7.5718,7.5947,7.5848,7.5306,7.4711,7.4117,7.3541,7.2997,7.2606,7.3303,7.4016,7.4778,2.5229,2.6221,2.7915,3.0113,3.1239,3.2429,3.416,3.5238,3.5622,3.5045,3.7584,3.9123,3.8315,4.0046,4.0969,4.0277,4.2085,4.2008,3.9084,3.9585,3.8377,3.4798,3.3248,3.1379,2.8989,2.7063,2.5543,2.4398,2.3694,2.3395,2.3564,2.537,2.8268,3.2057,3.6217,3.9212,4.1366,4.5208,4.8089,5.0241,5.192,5.4487,5.7215,5.6278,5.6688,5.7684,5.7351,5.7742,5.8335,5.7695,5.7974,5.8365,5.708,5.6873,5.6532,5.361,5.1609,4.9602,4.6536,4.4861,4.3588,4.1903,4.1705,4.1762,4.1209,4.0634,4.0341,4.0818,0.0,0.0,0.0,0.0,0.0,0.0,4.8088,4.9492,4.8748,5.1708,5.4741,5.7051,5.9171,6.1178,6.3062,6.6583,6.8186,6.6679,6.9291,7.0462,6.9374,7.1283,7.2587,7.3123,7.5003,7.6015,7.6015,7.6015,7.6015,7.6015,7.5718,7.5616,7.5616,7.5616,7.5616,7.5654,7.5917,7.6015,7.5947,7.534,7.4751,7.4249,7.3602,7.331,7.3288,7.3961,7.5044,7.6327,2.5851,2.6851,2.8467,3.0352,3.1506,3.2814,3.4507,3.643,3.7392,3.6661,3.9469,4.1316,4.0739,4.2585,4.3778,4.3547,4.5278,4.5316,4.2739,4.2816,4.147,3.8161,3.6469,3.4545,3.2275,3.0275,2.8506,2.6967,2.6197,2.5744,2.5543,2.737,3.0452,3.4687,3.784,4.1189,4.4624,4.7138,4.9776,5.2503,5.4231,5.7121,6.0121,5.7774,5.7075,5.7434,5.8088,5.8665,5.9104,5.8587,5.8783,5.912,5.8629,5.84,5.8099,5.6763,5.4922,5.2815,5.0792,4.907,4.7612,4.6466,4.5475,4.4579,4.3791,4.2456,4.1185,4.0671,4.0708,0.0,0.0,0.0,4.3351,4.3828,0.0,4.6965,4.5332,4.8419,5.1972,5.5104,5.7299,5.9521,6.2021,6.522,6.6859,6.6238,6.8693,6.9954,6.9371,7.1168,7.2591,7.3476,7.513,7.6015,7.6015,7.6015,7.6015,7.6015,7.6015,7.6015,7.6015,7.6015,7.6015,7.6015,7.6015,7.6015,7.5947,7.5551,7.5017,7.4506,7.4297,7.4362,7.4569,7.4815,7.6269,7.8113,2.6736,2.7274,2.7928,2.8005,2.939,3.1044,3.2737,3.5122,3.7315,3.8969,4.2085,4.4162,4.4124,4.7124,4.8817,4.7971,5.0202,5.0587,4.8009,4.8663,4.8663,4.7702,4.2162,3.9431,4.0123,3.5276,3.1121,2.7852,2.9429,2.8956,2.661,2.8861,3.0992,3.3186,3.7989,4.1113,4.3039,4.8753,5.1776,5.2957,5.6202,5.831,5.9557,5.9807,5.9163,5.828,5.828,5.8319,5.8389,5.8678,5.934,5.9912,5.9035,5.934,5.956,5.7107,5.6343,5.5805,5.3821,5.2227,5.1447,5.276,5.1118,4.9318,4.9894,4.8972,4.6911,4.302,4.2837,4.269,4.0451,4.1295,4.1589,3.9313,4.1622,0.0,0.0,4.3605,4.7646,5.1646,5.4682,5.7266,5.942,6.5464,6.7807,6.4152,7.0019,7.2172,6.8641,7.0821,7.2591,7.3476,7.513,7.6015,7.6015,7.6015,7.6015,7.6015,7.6015,7.6015,7.6015,7.6015,7.6015,7.6015,7.6015,7.6015,7.6015,7.5976,7.5616,7.5167,7.5969,7.6458,7.6534,7.6032,7.7673,8.0201,2.8429,2.8467,2.889,2.9467,3.0929,3.2622,3.4353,3.6776,3.9046,4.0739,4.3893,4.6432,4.7548,4.9202,5.0356,5.0587,5.1933,5.1933,4.9933,4.9548,4.824,4.5701,4.2624,4.0277,3.8892,3.6084,3.3776,3.2083,3.0968,3.0237,3.0006,3.0753,3.1764,3.3122,3.8155,4.1963,4.4882,4.9381,5.3924,5.8203,5.9906,6.0147,5.9565,6.0252,5.9931,5.9165,5.9742,5.9935,5.9873,5.9432,6.0227,6.1288,6.038,6.1071,6.203,6.1211,5.9982,5.8644,5.7454,5.7139,5.6834,5.5345,5.5529,5.5513,5.3227,5.1268,4.9114,4.6104,4.4011,4.2616,4.2323,4.1405,4.0781,4.1038,4.1552,4.1809,0.0,4.313,4.5002,4.6948,5.164,5.5908,5.8889,6.2845,6.5414,6.5953,6.8776,7.0145,6.9294,7.0591,7.2014,7.3437,7.4591,7.5438,7.5976,7.6015,7.6015,7.6015,7.6015,7.6015,7.6015,7.6015,7.6015,7.6015,7.6015,7.6015,7.5947,7.5584,7.5271,7.513,7.5623,7.6455,7.745,7.8386,7.9692,8.1156,2.939,2.9583,3.0083,3.0352,3.2045,3.3853,3.5276,3.843,4.1046,4.2124,4.6009,4.8856,4.9356,5.0702,5.1818,5.2318,5.3164,5.3318,5.251,5.1933,5.051,4.8048,4.6009,4.4047,4.2085,3.9238,3.7161,3.6007,3.3468,3.2199,3.2122,3.2429,3.3199,3.443,3.8007,4.2354,4.7124,4.9576,5.4373,6.0396,6.1281,6.1127,6.0473,6.105,6.0704,6.005,6.0589,6.1012,6.1166,6.0589,6.155,6.282,6.1973,6.2627,6.3705,6.3397,6.2324,6.113,6.0315,6.0047,5.9622,5.8359,5.8646,5.8684,5.6639,5.4724,5.2754,5.0335,4.7434,4.5611,4.6462,4.4257,4.268,4.3838,4.2881,4.2095,0.0,4.2532,4.3076,4.4517,4.8546,5.2915,5.7225,6.0396,6.3369,6.6183,6.7897,6.8922,6.9217,7.0014,7.1245,7.2976,7.413,7.4976,7.5515,7.5861,7.6015,7.6015,7.6015,7.6015,7.6015,7.6015,7.6015,7.6015,7.6015,7.6015,7.5947,7.5584,7.5604,7.5948,7.6389,7.7341,7.8588,7.9781,8.1041,8.2373,2.9802,3.0698,3.1583,3.084,3.2776,3.4699,3.5507,4.0008,4.3316,4.3355,4.8394,5.1395,4.9894,5.1856,5.3318,5.3318,5.4087,5.4895,5.5665,5.5665,5.5318,5.4587,5.2087,5.0317,4.9471,4.4509,4.1085,3.9354,3.6815,3.4661,3.2968,3.3814,3.5084,3.6699,3.7623,4.2277,4.9356,4.9471,5.3395,5.9588,6.0512,6.1358,6.2089,6.2127,6.1704,6.105,6.1012,6.1512,6.2204,6.2204,6.332,6.4512,6.3705,6.4012,6.4589,6.3782,6.3512,6.332,6.2512,6.1089,6.0204,6.1781,6.0609,5.9302,6.0074,5.9292,5.7716,5.5307,5.2853,5.1415,5.2257,4.9378,4.696,4.7348,4.5214,4.3402,4.2954,4.1728,4.1782,4.4297,4.5761,4.8758,5.4501,5.835,6.1792,6.4908,6.7425,6.8731,6.8487,6.936,7.0591,7.2129,7.3822,7.4707,7.4707,7.5553,7.6015,7.6015,7.6015,7.6015,7.6015,7.6015,7.6015,7.6015,7.6015,7.6015,7.6015,7.6015,7.6515,7.7361,7.8169,7.9092,7.9953,8.0234,8.1719,8.3747,3.2891,3.3237,3.3891,3.4891,3.6699,3.7853,3.743,4.2239,4.6124,4.674,5.0356,5.3164,5.3972,5.4664,5.5049,5.5049,5.5241,5.5472,5.5703,5.5126,5.4972,5.5357,5.2356,5.0587,5.0356,4.597,4.2508,4.02,3.7623,3.5545,3.3853,3.4083,3.4776,3.5892,3.8007,4.247,4.8548,5.0471,5.4472,5.9627,6.1127,6.1897,6.2166,6.2743,6.3666,6.4512,6.3858,6.3782,6.3974,6.3974,6.4666,6.5513,6.5282,6.5782,6.6551,6.6974,6.6628,6.5936,6.5128,6.4589,6.4051,6.3205,6.3187,6.2971,6.1467,6.0519,5.9348,5.6916,5.5404,5.4451,5.4162,5.2256,5.0572,5.0052,4.6825,4.4325,4.4244,4.2787,4.2473,4.4386,4.6771,4.9834,5.3822,5.7367,6.1153,6.5394,6.8032,6.9442,6.936,7.136,7.2437,7.2206,7.3822,7.4707,7.4707,7.5553,7.6015,7.6015,7.6015,7.6015,7.6015,7.6015,7.6015,7.6015,7.6015,7.6015,7.6015,7.6015,7.6515,7.7361,7.8169,7.9785,8.167,8.1766,8.2957,8.4401,3.4866,3.5059,3.593,3.8007,4.077,4.2271,4.0931,4.4855,4.8548,5.0125,5.2972,5.5203,5.6165,5.5934,5.5703,5.5703,5.5703,5.5857,5.6242,5.5818,5.578,5.6242,5.4818,5.3664,5.2895,4.9433,4.6355,4.3816,4.0546,3.7892,3.5853,3.5468,3.6161,3.7738,3.8815,4.3201,5.0048,5.4087,5.7857,6.1281,6.2627,6.3397,0.0,6.4243,6.5243,6.6397,6.632,6.6013,6.5705,6.5705,6.6282,6.6974,6.6974,6.7282,6.7744,6.8282,6.8052,6.7475,6.6628,6.6397,6.609,6.4782,6.4934,6.5035,6.3685,6.2824,6.1949,6.0599,5.9407,5.8644,5.8967,5.6882,5.4572,5.2807,4.9581,4.7381,4.7604,4.5963,4.5382,4.706,4.8706,5.0795,5.3595,5.8119,6.2413,6.6167,6.7878,6.9194,7.0167,7.0681,7.1304,7.2168,7.3822,7.4707,7.4707,7.5938,7.6361,7.6015,7.6015,7.6015,7.6015,7.6015,7.6015,7.6015,7.6015,7.6015,7.6015,7.6015,7.6707,7.7938,7.9169,8.0939,8.2785,8.2054,8.2631,8.3632,3.6587,3.679,3.8161,4.0546,4.4498,4.6827,4.5526,4.8048,5.0894,5.3126,5.5434,5.6857,5.6819,5.6242,5.5857,5.5857,5.5972,5.6357,5.7126,5.7165,5.7203,5.7319,5.7934,5.7627,5.6242,5.3703,5.1164,4.8586,4.4586,4.1316,3.8815,3.793,3.8738,4.0816,4.0546,4.497,5.2933,5.8704,6.1973,6.3397,6.4243,6.5128,6.5897,6.5897,6.6474,6.7359,6.8129,6.7975,6.7436,6.7436,6.8013,6.8706,6.859,6.8629,6.8744,6.8744,6.8744,6.8552,6.7667,6.7436,6.7244,6.6436,6.6128,6.6051,6.6051,6.5397,6.4782,6.4782,6.3589,6.3051,6.4512,6.185,5.8672,5.6139,5.3451,5.1872,5.2394,5.0521,4.9702,5.1318,5.1702,0.0,5.4078,5.9421,6.3834,6.6346,6.7416,6.8762,7.064,6.9284,6.9597,7.2129,7.3822,7.4745,7.4861,7.6361,7.6823,7.6169,7.6053,7.6015,7.6015,7.6015,7.6015,7.6015,7.6015,7.6015,7.6015,7.6015,7.6976,7.8669,8.04,8.1977,8.3093,8.1631,8.1554,8.2131,3.9585,4.0315,4.147,4.3316,4.6155,4.8733,5.049,5.255,5.4051,5.4377,5.5391,5.6022,5.5934,5.6434,5.678,5.678,5.7434,5.7896,5.805,5.8088,5.8357,5.9011,5.8588,5.8473,5.8819,5.6357,5.378,5.1241,4.8394,4.5701,4.3162,4.2354,4.2239,4.2777,4.5393,5.0125,5.6395,6.0935,6.3051,6.3397,6.4243,6.5128,6.5897,6.5897,6.6859,6.8205,6.8359,6.8783,6.9244,6.9244,6.9783,7.036,6.9667,6.9937,7.0475,7.0475,7.0475,7.0283,6.9475,6.9244,6.9052,6.8167,6.7436,6.6898,6.6898,6.6244,6.5667,6.5667,6.5436,6.532,6.5628,6.3924,6.2337,6.1851,5.9057,5.722,5.7981,5.5951,5.4741,5.578,5.7126,5.7566,5.6521,5.8719,6.1069,6.3322,6.7305,6.9725,6.991,7.174,7.2587,7.2206,7.3822,7.5053,7.5784,7.6092,7.6515,7.7053,7.6322,7.6015,7.6015,7.6015,7.6015,7.6015,7.6015,7.6015,7.6015,7.6015,7.6976,7.8669,8.04,8.1285,8.1516,8.1208,8.1208,8.1323,4.3069,4.4547,4.618,4.7486,5.0678,5.351,5.4805,5.5813,5.6519,5.6746,5.7101,5.7527,5.7896,5.7819,5.778,5.778,5.8088,5.8319,5.8319,5.8319,5.8665,5.9473,5.955,5.9588,5.9511,5.9165,5.7319,5.3857,5.2626,5.051,4.7586,4.674,4.6624,4.7201,5.101,5.4318,5.728,6.1512,6.3551,6.4128,6.5859,6.709,6.7859,6.7859,6.8629,6.9629,6.9206,6.9629,7.0321,7.0321,7.0591,7.0821,7.0437,7.0591,7.0898,7.0898,7.0898,7.0821,7.0437,7.0321,7.0206,6.9821,6.9052,6.8436,6.8436,6.7782,6.7051,6.6628,6.6898,6.7205,6.7205,6.6128,6.5128,6.4705,6.2935,6.1396,6.0935,5.9781,5.9165,5.9588,5.9973,5.9965,5.9332,6.0224,6.1656,6.3537,6.7286,6.9719,7.0294,7.1389,7.2275,7.286,7.4514,7.5592,7.6015,7.6861,7.7053,7.663,7.6207,7.6015,7.6015,7.6015,7.6015,7.6015,7.6015,7.6015,7.6053,7.6938,7.8054,7.9285,8.0592,8.1362,8.167,8.1246,8.1093,8.1093,4.695,4.8759,5.051,5.1356,5.4805,5.7429,5.7448,5.7857,5.8304,5.8702,5.8609,5.8818,5.9629,5.9166,5.8837,5.8842,5.905,5.9204,5.9204,5.9358,5.9704,6.0319,6.0973,6.0935,6.0089,6.1396,6.0358,5.678,5.6434,5.4434,5.0933,5.0818,5.1395,5.2702,5.5857,5.7665,5.8588,6.2281,6.4359,6.532,6.7513,6.8936,6.9706,6.9706,7.0206,7.0821,7.0398,7.0744,7.1437,7.1437,7.1321,7.1206,7.1398,7.1437,7.1437,7.1437,7.1437,7.1437,7.1437,7.1437,7.1437,7.1437,7.0975,7.0514,7.0514,6.9975,6.9167,6.8129,6.8167,6.8475,6.8629,6.7975,6.7359,6.7244,6.6205,6.5013,6.3858,6.3397,6.3166,6.3166,6.2551,6.2183,6.2327,6.3194,6.4089,6.5051,6.7485,6.9451,7.0832,7.0776,7.174,7.3947,7.5322,7.6245,7.6784,7.7746,7.7592,7.6284,7.6092,7.6015,7.6015,7.6015,7.6015,7.6015,7.6015,7.6015,7.613,7.7823,7.89,7.9631,8.0708,8.1477,8.1977,8.1323,8.1093,8.1093,5.1395,5.2358,5.3109,5.3336,5.5768,5.741,5.6657,5.7983,5.9022,5.8904,5.8237,5.8046,5.876,5.9437,5.9862,5.987,6.1289,6.2213,6.2213,6.2791,6.3113,6.319,6.3128,6.2704,6.1858,6.2012,6.1512,6.0319,5.8819,5.5895,5.1856,5.4087,5.6395,5.8665,5.8319,5.9858,6.2858,6.482,6.6128,6.6974,6.7975,6.8936,6.9706,6.9706,7.0206,7.0975,7.1706,7.2514,7.3283,7.3283,7.2745,7.2206,7.3014,7.3283,7.3283,7.3283,7.3283,7.3283,7.3283,7.3283,7.3283,7.3283,7.3206,7.3129,7.3129,7.3091,7.2552,7.0898,6.9398,6.8629,6.9436,6.8859,6.9013,7.1245,6.959,6.8282,6.8898,6.7628,6.6628,6.6628,6.6551,6.6244,6.5564,6.7602,6.8398,6.6974,6.8067,6.9419,7.0832,7.1854,7.3428,7.5707,7.5938,7.7092,7.9438,7.8092,7.7323,7.7169,7.6361,7.6015,7.6015,7.6015,7.6015,7.6015,7.6015,7.6015,7.613,7.7823,7.8554,7.8784,8.0439,8.1131,8.1208,8.1131,8.1093,8.1093,5.3841,5.531,5.6451,5.6136,5.8209,5.9733,5.8915,5.9443,6.0078,6.0508,5.9844,5.9412,5.9699,6.0436,6.0885,6.0885,6.1952,6.2593,6.2593,6.3812,6.4677,6.51,6.4999,6.4806,6.4397,6.3858,6.2935,6.1589,6.1396,6.0165,5.805,5.955,6.055,6.105,6.1243,6.205,6.3474,6.5667,6.709,6.8013,6.936,7.0437,7.1245,7.1783,7.2168,7.2514,7.286,7.3206,7.3591,7.4053,7.3668,7.3053,7.3399,7.3514,7.3514,7.3514,7.3514,7.3514,7.3514,7.3514,7.3514,7.3514,7.3514,7.3514,7.3514,7.3514,7.3322,7.2591,7.1091,7.0167,7.1052,7.0475,7.009,7.0591,7.0244,6.9667,6.9013,6.8783,6.8667,6.8667,6.8205,6.7975,6.8167,6.909,6.9398,6.8706,7.0527,7.165,7.1668,7.2601,7.4259,7.6707,7.6284,7.7207,7.9785,7.8631,7.7784,7.7284,7.6399,7.6015,7.6015,7.6015,7.6015,7.6015,7.6015,7.6015,7.613,7.7823,7.8477,7.8669,8.04,8.1093,8.1093,8.1093,8.1093,8.1093,5.6482,5.7899,5.8985,5.857,5.9979,6.0993,6.0473,6.084,6.1484,6.2344,6.2383,6.2226,6.1953,6.2383,6.2812,6.3086,6.3784,6.4263,6.4263,6.555,6.6524,6.6976,6.6946,6.6654,6.6051,6.5436,6.4422,6.2983,6.2998,6.218,6.0695,6.095,6.155,6.2474,6.332,6.3974,6.4551,6.659,6.8129,6.9283,7.0706,7.1783,7.2668,7.3553,7.386,7.3899,7.413,7.4245,7.4322,7.4899,7.4707,7.4245,7.4245,7.4245,7.4245,7.4245,7.4245,7.4245,7.4245,7.4245,7.4245,7.4245,7.4245,7.4245,7.4245,7.4245,7.4168,7.3899,7.2706,7.186,7.2476,7.2091,7.1552,7.1206,7.1245,7.086,6.9667,6.9629,7.009,7.1052,7.0437,7.0321,7.1437,7.1552,7.1245,7.0475,7.236,7.3129,7.2245,7.3476,7.5168,7.7246,7.6938,7.7707,7.9785,7.8938,7.8092,7.7284,7.6399,7.6015,7.6015,7.6015,7.6015,7.6015,7.6015,7.6015,7.613,7.7823,7.8477,7.8669,8.04,8.1093,8.1093,8.1093,8.1093,8.1093,5.9784,6.0145,6.0218,6.034,6.039,6.039,6.039,6.1875,6.3281,6.414,6.5742,6.6484,6.5625,6.5547,6.5898,6.6758,6.7617,6.8125,6.8125,6.8789,6.914,6.914,6.8968,6.809,6.6423,6.6384,6.5947,6.5057,6.3199,6.058,5.7224,5.6252,5.8473,6.332,6.4205,6.5513,6.709,6.8013,6.936,7.0937,7.1822,7.2706,7.3591,7.4399,7.4707,7.4822,7.5668,7.5976,7.5976,7.5976,7.5976,7.5976,7.5976,7.5976,7.5976,7.5976,7.5976,7.5976,7.5976,7.5976,7.5976,7.5976,7.5976,7.5976,7.5976,7.5976,7.5745,7.4861,7.4053,7.3476,7.3476,7.3476,7.3745,7.4514,7.3245,7.2168,7.2168,7.0744,7.0937,7.4245,7.3937,7.4091,7.5745,7.5938,7.4861,7.236,7.3014,7.3129,7.2245,7.4591,7.6361,7.7284,7.8054,7.89,7.9785,7.8938,7.8092,7.7284,7.6399,7.6015,7.6015,7.6015,7.6015,7.6015,7.6015,7.6015,7.613,7.7823,7.8477,7.8669,8.04,8.1093,8.1093,8.1093,8.1093,8.1093,6.0327,6.0347,6.0534,6.117,6.1797,6.2578,6.375,6.4922,6.5976,6.6836,6.7422,6.8125,6.8984,6.7539,6.6601,6.6875,6.7695,6.8203,6.8203,6.9453,7.0195,7.0078,7.0035,6.969,6.9007,6.7881,6.716,6.6866,6.5662,6.4774,6.418,6.4295,6.4897,6.5936,6.6821,6.7821,6.8936,6.9744,7.1091,7.2745,7.3591,7.4091,7.4399,7.5245,7.5592,7.563,7.5899,7.6015,7.6015,7.6015,7.6015,7.6015,7.6015,7.6015,7.6015,7.6015,7.6015,7.6015,7.6015,7.6015,7.6015,7.6015,7.6015,7.6015,7.6015,7.6015,7.5938,7.563,7.4899,7.4322,7.4322,7.386,7.3591,7.386,7.3437,7.2899,7.2283,7.1745,7.1783,7.286,7.2245,7.2168,7.3283,7.3937,7.3976,7.3168,7.6015,7.6438,7.3245,7.386,7.5476,7.8015,7.7246,7.8323,8.1477,7.9515,7.8669,7.8977,7.7553,7.6592,7.6015,7.6015,7.6015,7.6015,7.6015,7.6015,7.6092,7.7207,7.8015,7.8592,7.9785,8.0592,8.1093,8.1093,8.1093,8.1093,6.1914,6.1875,6.2031,6.2578,6.3398,6.4336,6.543,6.6875,6.8047,6.8594,6.9219,7.0039,7.1055,6.9765,6.8828,6.8828,6.9297,6.9648,6.9648,7.0625,7.1133,7.1055,7.1055,7.0848,7.0403,6.935,6.8656,6.8344,6.7415,6.6931,6.6923,6.7667,6.7859,6.7628,6.8821,6.9821,7.0706,7.1514,7.2668,7.4014,7.4514,7.4899,7.5245,7.5784,7.6015,7.6015,7.6015,7.6015,7.6015,7.6015,7.6015,7.6015,7.6015,7.6015,7.6015,7.6015,7.6015,7.6015,7.6015,7.6015,7.6015,7.6015,7.6015,7.6015,7.6015,7.6015,7.6015,7.6015,7.5553,7.5207,7.5207,7.4784,7.4437,7.4437,7.4168,7.3745,7.3206,7.286,7.3168,7.4399,7.3514,7.3283,7.4437,7.4476,7.4168,7.3553,7.6207,7.6746,7.4091,7.5168,7.6553,7.7977,7.7323,7.8361,8.1323,7.9785,7.9246,7.9785,7.8092,7.7169,7.6899,7.6284,7.6169,7.6476,7.613,7.6015,7.6053,7.6938,7.7746,7.8592,7.9477,8.0323,8.1093,8.1093,8.1093,8.1093,6.414,6.4297,6.4336,6.4453,6.5195,6.582,6.5937,6.8008,6.957,6.957,7.0976,7.1992,7.1992,7.1992,7.1992,7.1992,7.1992,7.1992,7.1992,7.1992,7.1992,7.1992,7.1992,7.1601,7.082,7.0781,7.039,6.957,6.8672,6.7664,6.6574,6.7462,6.8205,6.8859,7.0398,7.1591,7.2437,7.3245,7.4053,7.4784,7.4784,7.5284,7.6015,7.6015,7.6015,7.6015,7.6015,7.6015,7.6015,7.6015,7.6015,7.6015,7.6015,7.6015,7.6015,7.6015,7.6015,7.6015,7.6015,7.6015,7.6015,7.6015,7.6015,7.6015,7.6015,7.6015,7.6015,7.6015,7.6015,7.6015,7.6015,7.6015,7.6015,7.6015,7.5322,7.4784,7.4707,7.4053,7.4745,7.7861,7.6899,7.6592,7.8169,7.6976,7.5476,7.4053,7.463,7.5091,7.513,7.8169,7.9131,7.7438,7.8092,7.8938,7.99,7.9823,7.9823,7.9785,7.8207,7.7784,7.8361,7.6784,7.6515,7.7169,7.6361,7.6015,7.6053,7.6861,7.7707,7.8592,7.94,8.0285,8.1093,8.1093,8.1093,8.1093,6.4258,6.4297,6.4726,6.6055,6.6992,6.8008,6.9297,7.0586,7.1367,7.1367,7.1758,7.1992,7.1992,7.1992,7.1992,7.1992,7.1992,7.1992,7.1992,7.1992,7.1992,7.1992,7.1992,7.1914,7.1719,7.168,7.1601,7.1367,7.164,7.1634,7.1384,7.2094,7.2454,7.2542,7.2937,7.3476,7.413,7.4322,7.4899,7.5707,7.5707,7.5822,7.6015,7.6015,7.6015,7.6015,7.6015,7.6015,7.6015,7.6015,7.6015,7.6015,7.6015,7.6015,7.6015,7.6015,7.6015,7.6015,7.6015,7.6015,7.6015,7.6015,7.6015,7.6015,7.6015,7.6015,7.6015,7.6015,7.6015,7.6015,7.6015,7.6015,7.6015,7.6015,7.5822,7.5476,7.4784,7.4553,7.4707,7.5515,7.5822,7.6169,7.6553,7.6823,7.7361,7.8246,7.8477,7.89,7.9554,8.0362,8.0015,7.8246,7.84,7.9246,8.0785,8.0131,7.9823,7.9823,7.94,7.8631,7.7553,7.7169,7.6746,7.6284,7.6092,7.6015,7.6015,7.6207,7.7169,7.8515,7.8707,7.9746,8.1093,8.1093,8.1093,8.1093,6.5508,6.5508,6.5898,6.7265,6.8203,6.918,7.0508,7.1445,7.1992,7.1992,7.1992,7.1992,7.1992,7.1992,7.1992,7.1992,7.1992,7.1992,7.1992,7.1992,7.1992,7.1992,7.1992,7.2187,7.2578,7.2578,7.2773,7.3203,7.3555,7.3672,7.3593,7.3953,7.4187,7.4355,7.4357,7.4707,7.5284,7.5284,7.5553,7.6015,7.6015,7.6015,7.6015,7.6015,7.6015,7.6015,7.6015,7.6015,7.6015,7.6015,7.6015,7.6015,7.6015,7.6015,7.6015,7.6015,7.6015,7.6015,7.6015,7.6015,7.6015,7.6015,7.6015,7.6015,7.6015,7.6015,7.6015,7.6015,7.6015,7.6015,7.6015,7.6015,7.6015,7.6015,7.6015,7.5822,7.5361,7.5284,7.5284,7.5284,7.5707,7.6015,7.6015,7.6784,7.7669,7.8592,7.9361,8.0015,8.0477,8.09,8.0477,7.9131,7.9092,7.9746,8.1093,8.0631,8.04,8.04,7.9977,7.9323,7.84,7.763,7.7053,7.6553,7.6169,7.6015,7.6015,7.6015,7.6976,7.8477,7.8477,7.9554,8.1093,8.1093,8.1093,8.1093,6.6914,6.6914,6.7226,6.8203,6.8945,6.9765,7.0742,7.1523,7.1992,7.1992,7.1992,7.2031,7.2187,7.2187,7.2265,7.2383,7.2383,7.2344,7.2187,7.2187,7.2265,7.2383,7.2383,7.2734,7.3476,7.3515,7.3906,7.4805,7.4805,7.4765,7.4726,7.4726,7.4915,7.53,7.5272,7.5582,7.6053,7.6053,7.6015,7.6015,7.6015,7.6015,7.6015,7.6015,7.6015,7.6015,7.6015,7.6015,7.6015,7.6015,7.6015,7.6015,7.6015,7.6015,7.6015,7.6015,7.6015,7.6015,7.6015,7.6015,7.6015,7.6015,7.6015,7.6015,7.6015,7.6015,7.6015,7.6015,7.6015,7.6015,7.6015,7.6015,7.613,7.6515,7.6361,7.6284,7.6553,7.6361,7.613,7.6015,7.613,7.6207,7.6207,7.7092,7.7669,7.7669,7.9131,8.0015,8.0015,8.0708,8.0746,8.0015,8.0015,8.0362,8.1093,8.1093,8.1093,8.1093,8.0208,7.9746,7.9554,7.8015,7.7207,7.7053,7.6322,7.6015,7.6015,7.6015,7.6976,7.8477,7.8477,7.9554,8.1093,8.1093,8.1093,8.1093,6.6914,6.6914,6.7422,6.9023,6.9414,7.0,7.1562,7.1914,7.1992,7.1992,7.1992,7.2265,7.3008,7.3086,7.3398,7.414,7.4219,7.3867,7.3164,7.3086,7.3437,7.414,7.4219,7.4258,7.4414,7.4414,7.4844,7.5703,7.5703,7.6055,7.6758,7.6758,7.6717,7.6622,7.6609,7.6467,7.6245,7.6245,7.6169,7.6015,7.6015,7.6015,7.6015,7.6015,7.6015,7.6015,7.6015,7.6015,7.6015,7.6015,7.6015,7.6015,7.6015,7.6015,7.6015,7.6015,7.6015,7.6015,7.6015,7.6015,7.6015,7.6015,7.6015,7.6015,7.6015,7.6015,7.6015,7.6015,7.6015,7.6015,7.6015,7.6015,7.6707,7.8861,7.8015,7.7592,7.9015,7.7977,7.6823,7.6092,7.663,7.7092,7.7092,7.8515,7.94,7.94,8.0323,8.09,8.09,8.1016,8.1054,8.09,8.09,8.0977,8.1093,8.1093,8.1093,8.1093,8.0208,7.94,7.8669,7.7707,7.6899,7.6207,7.6053,7.6015,7.6015,7.6015,7.6976,7.8477,7.8477,7.9554,8.1093,8.1093,8.1093,8.1093,6.6914,6.6914,6.7422,6.914,6.9453,7.0195,7.2383,7.2695,7.2851,7.3359,7.3398,7.3555,7.3945,7.3984,7.414,7.457,7.4609,7.4648,7.4687,7.4258,7.418,7.457,7.4609,7.4805,7.5273,7.5742,7.6211,7.6601,7.6601,7.6797,7.7187,7.7187,7.7109,7.6914,7.6907,7.6738,7.6471,7.6453,7.6322,7.6169,7.6169,7.6092,7.6015,7.6015,7.6015,7.6015,7.6015,7.6015,7.6015,7.6015,7.6015,7.6015,7.6015,7.6015,7.6015,7.6015,7.6015,7.6015,7.6015,7.6015,7.6015,7.6015,7.6015,7.6015,7.6015,7.6015,7.6015,7.6015,7.6015,7.6015,7.6015,7.6015,7.6553,7.8207,7.74,7.7015,7.8284,7.7361,7.6438,7.6053,7.6361,7.6784,7.7246,7.84,7.9285,7.9746,8.0592,8.1093,8.1093,8.1093,8.1093,8.1093,8.1093,8.1093,8.1093,8.0631,8.04,8.04,7.9515,7.8669,7.7823,7.7476,7.6823,7.6015,7.6015,7.6015,7.6015,7.6015,7.6976,7.8477,7.8477,7.9554,8.1093,8.1093,8.1093,8.1093,6.7461,6.7461,6.8008,6.9726,7.0,7.082,7.3242,7.3594,7.3828,7.4492,7.4609,7.4687,7.4883,7.4883,7.4961,7.5195,7.5195,7.5508,7.6172,7.5586,7.5195,7.5195,7.5195,7.5508,7.6172,7.6875,7.7187,7.7187,7.7187,7.7187,7.7187,7.7187,7.7109,7.6953,7.6953,7.6853,7.6688,7.6672,7.6529,7.6379,7.637,7.6284,7.613,7.6092,7.6053,7.6053,7.6015,7.6015,7.6015,7.6015,7.6015,7.6015,7.6015,7.6015,7.6015,7.6015,7.6015,7.6015,7.6015,7.6015,7.6015,7.6015,7.6015,7.6015,7.6015,7.6015,7.6015,7.6015,7.6015,7.6015,7.6015,7.6015,7.6399,7.7669,7.713,7.6976,7.8015,7.7246,7.6515,7.6322,7.6284,7.6553,7.7246,7.8207,7.9092,7.9746,8.0592,8.1093,8.1093,8.1093,8.1016,8.0785,8.0785,8.0785,8.0785,7.9939,7.9515,7.9477,7.8631,7.79,7.7284,7.7092,7.663,7.6015,7.6015,7.6015,7.6015,7.6015,7.6976,7.8477,7.8477,7.9554,8.1093,8.1093,8.1093,8.1093,6.9219,6.9219,6.9765,7.1484,7.1797,7.2422,7.4219,7.4492,7.4531,7.4609,7.4609,7.4922,7.5703,7.5781,7.6133,7.6953,7.6992,7.7031,7.7109,7.7031,7.6992,7.6992,7.6992,7.7031,7.7109,7.7187,7.7187,7.7187,7.7187,7.7187,7.7187,7.7187,7.7187,7.7187,7.7187,7.707,7.6873,7.687,7.6763,7.6582,7.6559,7.6583,7.6544,7.6322,7.6284,7.6245,7.6053,7.6015,7.6015,7.6015,7.6015,7.6015,7.6015,7.6015,7.6015,7.6015,7.6015,7.6015,7.6015,7.6015,7.6015,7.6015,7.6015,7.6015,7.6015,7.6015,7.6015,7.6015,7.6015,7.6015,7.6015,7.6015,7.6784,7.9208,7.8861,7.89,8.0592,7.9361,7.8015,7.7284,7.7207,7.7207,7.7284,7.8746,7.9746,7.9823,8.0592,8.1093,8.1093,8.1093,8.0746,7.9939,7.99,7.99,7.99,7.9015,7.8592,7.8592,7.7784,7.7361,7.7284,7.6476,7.6053,7.6015,7.6015,7.6015,7.6015,7.6015,7.6976,7.8477,7.8477,7.9554,8.1093,8.1093,8.1093,8.1093,6.9414,6.9414,6.9765,7.0976,7.164,7.2578,7.4336,7.5078,7.5586,7.6133,7.6211,7.6328,7.668,7.6719,7.6836,7.7187,7.7187,7.7187,7.7187,7.7187,7.7187,7.7187,7.7187,7.7187,7.7187,7.7187,7.7187,7.7187,7.7187,7.7187,7.7187,7.7187,7.7187,7.7187,7.7187,7.7148,7.7109,7.7109,7.6985,7.6789,7.679,7.6699,7.6594,7.6516,7.649,7.6476,7.6399,7.6284,7.6169,7.6169,7.6092,7.6015,7.6015,7.6015,7.6015,7.6015,7.6015,7.6015,7.6015,7.6015,7.6015,7.6015,7.6015,7.6015,7.6015,7.6015,7.6015,7.6015,7.6015,7.6015,7.6015,7.6015,7.6476,7.8015,7.7977,7.8169,7.9323,7.89,7.84,7.8092,7.8015,7.8246,7.8784,7.9438,8.0015,8.0554,8.09,8.0862,8.0323,7.9785,7.9323,7.9015,7.8515,7.8477,7.8977,7.8169,7.7746,7.7746,7.6899,7.6476,7.6476,7.613,7.6015,7.6015,7.6015,7.6015,7.6053,7.6592,7.7476,7.8554,7.9092,8.0054,8.1093,8.1093,8.1093,8.1093,7.0234,7.0234,7.0586,7.1719,7.2422,7.3398,7.5156,7.5937,7.6523,7.7109,7.7187,7.7187,7.7187,7.7187,7.7187,7.7187,7.7187,7.7187,7.7187,7.7187,7.7187,7.7187,7.7187,7.7187,7.7187,7.7187,7.7187,7.7187,7.7187,7.7187,7.7187,7.7187,7.7187,7.7187,7.7187,7.7187,7.7187,7.7187,7.7109,7.6992,7.6992,7.6892,7.678,7.6741,7.6675,7.669,7.663,7.6519,7.6392,7.637,7.6284,7.6169,7.6169,7.6169,7.6169,7.6092,7.6092,7.6092,7.6015,7.6015,7.6015,7.6015,7.6015,7.6015,7.6015,7.6015,7.6015,7.6015,7.6015,7.6015,7.6015,7.6015,7.6284,7.7169,7.7284,7.7592,7.84,7.8477,7.8477,7.8477,7.8746,7.9054,7.9361,7.9631,7.9939,8.0246,8.0285,8.0015,7.9438,7.8592,7.813,7.813,7.7323,7.7169,7.7707,7.7169,7.6899,7.6861,7.6284,7.6015,7.6015,7.6015,7.6015,7.6015,7.6015,7.6015,7.6053,7.6938,7.7746,7.8592,7.9477,8.0323,8.1093,8.1093,8.1093,8.1093,7.1992,7.1992,7.2539,7.4297,7.4609,7.5195,7.6914,7.7187,7.7187,7.7187,7.7187,7.7187,7.7187,7.7187,7.7187,7.7187,7.7187,7.7187,7.7187,7.7187,7.7187,7.7187,7.7187,7.7187,7.7187,7.7187,7.7187,7.7187,7.7187,7.7187,7.7187,7.7187,7.7187,7.7187,7.7187,7.7187,7.7187,7.7187,7.7187,7.7187,7.7187,7.7187,7.7187,7.6992,7.6914,7.6873,7.6671,7.6582,7.6599,7.6598,7.6621,7.6621,7.6621,7.6621,7.6583,7.6352,7.6284,7.6245,7.6053,7.6015,7.6015,7.6015,7.6015,7.6015,7.6015,7.6015,7.6015,7.6015,7.6015,7.6015,7.6015,7.6015,7.6284,7.7169,7.7323,7.7592,7.84,7.8515,7.8515,7.8515,7.9285,7.9477,7.8592,7.9285,7.9438,7.8554,7.8477,7.8477,7.8477,7.7707,7.7284,7.7284,7.6438,7.6015,7.6015,7.6015,7.6015,7.6015,7.6015,7.6015,7.6015,7.6015,7.6015,7.6015,7.6015,7.6015,7.6053,7.6938,7.7784,7.8592,7.9477,8.0323,8.1093,8.1093,8.1093,8.1093,7.1992,7.1992,7.2148,7.2695,7.3789,7.4765,7.5312,7.6406,7.7187,7.7187,7.7187,7.7187,7.7187,7.7187,7.7187,7.7187,7.7187,7.7187,7.7187,7.7187,7.7187,7.7187,7.7187,7.7187,7.7187,7.7187,7.7187,7.7187,7.7187,7.7187,7.7187,7.7187,7.7187,7.7187,7.7187,7.7187,7.7187,7.7187,7.7187,7.7187,7.7187,7.7187,7.7187,7.7148,7.7109,7.7109,7.7055,7.6927,7.6828,7.6809,7.673,7.6614,7.6614,7.6614,7.6575,7.6536,7.6529,7.6438,7.6245,7.6207,7.6169,7.6053,7.6015,7.6015,7.6015,7.6015,7.6015,7.6015,7.6015,7.6015,7.6015,7.6515,7.6976,7.7246,7.8284,7.9131,7.9361,7.9939,8.0092,7.9477,7.9631,7.9477,7.8592,7.8746,7.8784,7.8515,7.7977,7.7669,7.7669,7.6861,7.6399,7.6399,7.613,7.6015,7.6015,7.6015,7.6015,7.6015,7.6015,7.6015,7.6015,7.6015,7.6015,7.6015,7.6015,7.6015,7.6092,7.7553,7.8284,7.8631,8.0131,8.0862,8.1093,8.1093,8.1093,8.1093,7.2461,7.2226,7.2344,7.3359,7.414,7.4844,7.5508,7.6523,7.7187,7.7187,7.7187,7.7187,7.7187,7.7187,7.7187,7.7187,7.7187,7.7187,7.7187,7.7187,7.7187,7.7187,7.7187,7.7187,7.7187,7.7187,7.7187,7.7187,7.7187,7.7187,7.7187,7.7187,7.7187,7.7187,7.7187,7.7187,7.7187,7.7187,7.7187,7.7187,7.7187,7.7187,7.7187,7.7187,7.7187,7.7187,7.7187,7.7109,7.703,7.7004,7.6926,7.6847,7.6847,7.6847,7.6808,7.673,7.6716,7.6671,7.6466,7.643,7.6361,7.6245,7.613,7.6015,7.6015,7.6015,7.6015,7.6015,7.6015,7.6015,7.6015,7.6438,7.7015,7.7669,7.8361,7.9054,7.9708,7.9977,7.9862,7.9361,7.9285,7.8938,7.8092,7.8015,7.7861,7.7553,7.7053,7.6784,7.6784,7.6284,7.6015,7.6015,7.6015,7.6015,7.6015,7.6015,7.6015,7.6015,7.6015,7.6015,7.6015,7.6015,7.6015,7.6015,7.6015,7.6015,7.613,7.7823,7.8477,7.8669,8.04,8.1093,8.1093,8.1093,8.1093,8.1093,7.3047,7.2539,7.2773,7.5234,7.5078,7.5156,7.6836,7.7148,7.7187,7.7187,7.7187,7.7187,7.7187,7.7187,7.7187,7.7187,7.7187,7.7187,7.7187,7.7187,7.7187,7.7187,7.7187,7.7187,7.7187,7.7187,7.7187,7.7187,7.7187,7.7187,7.7187,7.7187,7.7187,7.7187,7.7187,7.7187,7.7187,7.7187,7.7187,7.7187,7.7187,7.7187,7.7187,7.7187,7.7187,7.7187,7.7187,7.7187,7.7187,7.7187,7.7187,7.7187,7.7187,7.7187,7.7148,7.6992,7.6914,7.6868,7.6676,7.6626,7.6621,7.663,7.6321,7.6062,7.6044,7.6053,7.6015,7.6015,7.6015,7.6015,7.6015,7.6053,7.663,7.8246,7.79,7.7977,7.9592,7.9054,7.8477,7.84,7.84,7.8054,7.7246,7.7169,7.6861,7.6053,7.6015,7.6015,7.6015,7.6015,7.6015,7.6015,7.6015,7.6015,7.6015,7.6015,7.6015,7.6015,7.6015,7.6015,7.6015,7.6015,7.6015,7.6015,7.6015,7.6053,7.6245,7.7823,7.8554,7.8784,8.0439,8.1093,8.1093,8.1093,8.1093,8.1093,7.2226,7.2148,7.2383,7.3633,7.4258,7.4961,7.6015,7.6758,7.7187,7.7187,7.7187,7.7187,7.7187,7.7187,7.7187,7.7187,7.7187,7.7187,7.7187,7.7187,7.7187,7.7187,7.7187,7.7187,7.7187,7.7187,7.7187,7.7187,7.7187,7.7187,7.7187,7.7187,7.7187,7.7187,7.7187,7.7187,7.7187,7.7187,7.7187,7.7187,7.7187,7.7187,7.7187,7.7187,7.7187,7.7187,7.7187,7.7187,7.7187,7.7187,7.7187,7.7187,7.7187,7.7187,7.7187,7.7148,7.7148,7.7103,7.687,7.682,7.68,7.6652,7.6514,7.6458,7.6465,7.6322,7.6207,7.6207,7.6092,7.6015,7.6015,7.6553,7.7323,7.8323,7.8361,7.8592,7.9669,7.9054,7.8246,7.763,7.7553,7.7207,7.6361,7.6284,7.6207,7.6015,7.6015,7.6015,7.6015,7.6015,7.6015,7.6015,7.6015,7.6015,7.6015,7.6015,7.6015,7.6015,7.6015,7.6015,7.6015,7.6015,7.6015,7.6015,7.6015,7.6399,7.7092,7.8092,7.89,7.9631,8.0708,8.1093,8.1093,8.1093,8.1093,8.1093,7.2539,7.2617,7.3047,7.4336,7.4922,7.5508,7.6406,7.6914,7.7187,7.7187,7.7187,7.7187,7.7187,7.7187,7.7187,7.7187,7.7187,7.7187,7.7187,7.7187,7.7187,7.7187,7.7187,7.7187,7.7187,7.7187,7.7187,7.7187,7.7187,7.7187,7.7187,7.7187,7.7187,7.7187,7.7187,7.7187,7.7187,7.7187,7.7187,7.7187,7.7187,7.7187,7.7187,7.7187,7.7187,7.7187,7.7187,7.7187,7.7187,7.7187,7.7187,7.7187,7.7187,7.7187,7.7187,7.7187,7.7187,7.7186,7.7056,7.705,7.7034,7.6894,7.6894,7.6832,7.6648,7.6436,7.6289,7.6303,7.613,7.6015,7.6015,7.6707,7.7438,7.7861,7.8246,7.8669,7.9131,7.8438,7.7746,7.7361,7.6938,7.6515,7.6053,7.6015,7.6015,7.6015,7.6015,7.6015,7.6015,7.6015,7.6015,7.6015,7.6015,7.6015,7.6015,7.6015,7.6015,7.6015,7.6015,7.6015,7.6015,7.6015,7.6015,7.6015,7.6015,7.6476,7.7361,7.8169,7.9015,7.99,8.0746,8.1093,8.1093,8.1093,8.1093,8.1093,7.293,7.3086,7.3633,7.5351,7.5664,7.6015,7.7031,7.7187,7.7187,7.7187,7.7187,7.7187,7.7187,7.7187,7.7187,7.7187,7.7187,7.7187,7.7187,7.7187,7.7187,7.7187,7.7187,7.7187,7.7187,7.7187,7.7187,7.7187,7.7187,7.7187,7.7187,7.7187,7.7187,7.7187,7.7187,7.7187,7.7187,7.7187,7.7187,7.7187,7.7187,7.7187,7.7187,7.7187,7.7187,7.7187,7.7187,7.7187,7.7187,7.7187,7.7187,7.7187,7.7187,7.7187,7.7187,7.7187,7.7187,7.7187,7.7187,7.7187,7.7183,7.7209,7.7182,7.7104,7.6793,7.6558,7.6399,7.6388,7.6361,7.6284,7.6284,7.6861,7.7361,7.7476,7.7823,7.813,7.8246,7.7592,7.7092,7.7092,7.6438,7.6015,7.6015,7.6015,7.6015,7.6015,7.6015,7.6015,7.6015,7.6015,7.6015,7.6015,7.6015,7.6015,7.6015,7.6015,7.6015,7.6015,7.6015,7.6015,7.6015,7.6015,7.6015,7.6015,7.6015,7.6553,7.7553,7.8207,7.9092,8.0092,8.0823,8.1093,8.1093,8.1093,8.1093,8.1093,7.2148,7.2187,7.2734,7.4453,7.4765,7.5312,7.6953,7.7187,7.7187,7.7187,7.7187,7.7187,7.7187,7.7187,7.7187,7.7187,7.7187,7.7187,7.7187,7.7187,7.7187,7.7187,7.7187,7.7187,7.7187,7.7187,7.7187,7.7187,7.7187,7.7187,7.7187,7.7187,7.7187,7.7187,7.7187,7.7187,7.7187,7.7187,7.7187,7.7187,7.7187,7.7187,7.7187,7.7187,7.7187,7.7187,7.7187,7.7187,7.7187,7.7187,7.7187,7.7187,7.7187,7.7187,7.7187,7.7187,7.7187,7.7187,7.7187,7.7187,7.7187,7.7184,7.7183,7.7183,7.7144,7.6946,7.6833,7.6816,7.7237,7.7583,7.74,7.7506,7.7737,7.8246,7.7207,7.6592,7.7361,7.6707,7.6169,7.6169,7.6053,7.6015,7.6015,7.6015,7.6015,7.6015,7.6015,7.6015,7.6015,7.6015,7.6015,7.6015,7.6015,7.6015,7.6015,7.6015,7.6015,7.6015,7.6015,7.6015,7.6015,7.6015,7.6015,7.6015,7.6015,7.6899,7.8361,7.8438,7.9438,8.0939,8.1054,8.1093,8.1093,8.1093,8.1093,8.1093,7.1992,7.2773,7.3672,7.4453,7.539,7.6328,7.707,7.7187,7.7187,7.7187,7.7187,7.7187,7.7187,7.7187,7.7187,7.7187,7.7187,7.7187,7.7187,7.7187,7.7187,7.7187,7.7187,7.7187,7.7187,7.7187,7.7187,7.7187,7.7187,7.7187,7.7187,7.7187,7.7187,7.7187,7.7187,7.7187,7.7187,7.7187,7.7187,7.7187,7.7187,7.7187,7.7187,7.7187,7.7187,7.7187,7.7187,7.7187,7.7187,7.7187,7.7187,7.7187,7.7187,7.7187,7.7187,7.7187,7.7187,7.7187,7.7187,7.7187,7.7187,7.7187,7.7187,7.7187,7.7187,7.7148,7.7022,7.6905,7.7442,7.7715,7.7151,7.7705,7.8045,7.7361,7.6938,7.6669,7.6592,7.6245,7.6015,7.6015,7.6015,7.6015,7.6015,7.6015,7.6015,7.6015,7.6015,7.6015,7.6015,7.6015,7.6015,7.6015,7.6015,7.6015,7.6015,7.6015,7.6015,7.6015,7.6015,7.6015,7.6015,7.6015,7.6015,7.6015,7.6515,7.74,7.8515,7.9015,7.9977,8.1093,8.1093,8.1093,8.1093,8.1093,8.1093,8.1093]},{"header":{"parameterUnit":"m.s-1","parameterCategory":1,"la1":30.6,"la2":28.766,"lo1":-90.7593,"lo2":-88.6598,"dx":0.0162,"dy":0.0183,"nx":116,"ny":114,"refTime":"2023-01-01T06:00:00:Z","depth":0,"parameterNumber":3,"parameterNumberName":"V-component_of_WINDS"},"data":[0.0,0.0,0.0,0.0,0.0,0.0,0.0,0.0,0.0,0.0,0.0,0.0,0.0,0.0,0.0,0.0,0.0,0.0,0.0,0.0,0.0,0.0,0.0,0.0,0.0,0.0,0.0,0.0,0.0,0.0,0.0,0.0,0.0,0.0,0.0,0.0,0.0,0.0,0.0,0.0,0.0,0.0,0.0,0.0,0.0,0.0,0.0,0.0,0.0,0.0,0.0,0.0,0.0,0.0,0.0,0.0,0.0,0.0,0.0,0.0,0.0,0.0,0.0,0.0,0.0,0.0,0.0,0.0,0.0,0.0,0.0,0.0,0.0,0.0,0.0,0.0,0.0,0.0,0.0,0.0,0.0,0.0,0.0,0.0,0.0,0.0,0.0,0.0,0.0,0.0,0.0,0.0,0.0,0.0,0.0,0.0,0.0,0.0,0.0,0.0,0.0,0.0,0.0,0.0,0.0,0.0,0.0,0.0,0.0,0.0,0.0,0.0,0.0,0.0,0.0,0.0,0.0,0.0,0.0,0.0,0.0,0.0,0.0,0.0,0.0,0.0,0.0,0.0,0.0,0.0,0.0,0.0,0.0,0.0,0.0,0.0,0.0,0.0,0.0,0.0,0.0,0.0,0.0,0.0,0.0,0.0,0.0,0.0,0.0,0.0,0.0,0.0,0.0,0.0,0.0,0.0,0.0,0.0,0.0,0.0,0.0,0.0,0.0,0.0,0.0,0.0,0.0,0.0,0.0,0.0,0.0,0.0,0.0,0.0,0.0,0.0,0.0,0.0,0.0,0.0,0.0,0.0,0.0,0.0,0.0,0.0,0.0,0.0,0.0,0.0,0.0,0.0,0.0,0.0,0.0,0.0,0.0,0.0,0.0,0.0,0.0,0.0,0.0,0.0,0.0,0.0,0.0,0.0,0.0,0.0,0.0,0.0,0.0,0.0,0.0,0.0,0.0,0.0,0.0,0.0,0.0,0.0,0.0,0.0,0.0,0.0,0.0,0.0,0.0,0.0,0.0,0.0,0.0,0.0,0.0,0.0,0.0,0.0,0.0,0.0,0.0,0.0,0.0,0.0,0.0,0.0,0.0,0.0,0.0,0.0,0.0,0.0,0.0,0.0,0.0,0.0,0.0,0.0,0.0,0.0,0.0,0.0,0.0,0.0,0.0,0.0,0.0,0.0,0.0,0.0,0.0,0.0,0.0,0.0,0.0,0.0,0.0,0.0,0.0,0.0,0.0,0.0,0.0,0.0,0.0,0.0,0.0,0.0,0.0,0.0,0.0,0.0,0.0,0.0,0.0,0.0,0.0,0.0,0.0,0.0,0.0,0.0,0.0,0.0,0.0,0.0,0.0,0.0,0.0,0.0,0.0,0.0,0.0,0.0,0.0,0.0,0.0,0.0,0.0,0.0,0.0,0.0,0.0,0.0,0.0,0.0,0.0,0.0,0.0,0.0,0.0,0.0,0.0,0.0,0.0,0.0,0.0,0.0,0.0,0.0,0.0,0.0,0.0,0.0,0.0,0.0,0.0,0.0,0.0,0.0,0.0,0.0,0.0,0.0,0.0,0.0,0.0,0.0,0.0,0.0,0.0,0.0,0.0,0.0,0.0,0.0,0.0,0.0,0.0,0.0,0.0,0.0,0.0,0.0,0.0,0.0,0.0,0.0,0.0,0.0,0.0,0.0,0.0,0.0,0.0,0.0,0.0,0.0,0.0,0.0,0.0,0.0,0.0,0.0,0.0,0.0,0.0,0.0,0.0,0.0,0.0,0.0,0.0,0.0,0.0,0.0,0.0,0.0,0.0,0.0,0.0,0.0,0.0,0.0,0.0,0.0,0.0,0.0,0.0,0.0,0.0,0.0,0.0,0.0,0.0,0.0,0.0,0.0,0.0,0.0,0.0,0.0,0.0,0.0,0.0,0.0,0.0,0.0,0.0,0.0,0.0,0.0,0.0,0.0,0.0,0.0,0.0,0.0,0.0,0.0,0.0,0.0,0.0,0.0,0.0,0.0,0.0,0.0,0.0,0.0,0.0,0.0,0.0,0.0,0.0,0.0,0.0,0.0,0.0,0.0,0.0,0.0,0.0,0.0,0.0,0.0,0.0,0.0,0.0,0.0,0.0,0.0,0.0,0.0,0.0,0.0,0.0,0.0,0.0,0.0,0.0,0.0,0.0,0.0,0.0,0.0,0.0,0.0,0.0,0.0,0.0,0.0,0.0,0.0,0.0,0.0,0.0,0.0,0.0,0.0,0.0,0.0,0.0,0.0,0.0,0.0,0.0,0.0,0.0,0.0,0.0,0.0,0.0,0.0,0.0,0.0,0.0,0.0,0.0,0.0,0.0,0.0,0.0,0.0,0.0,0.0,0.0,0.0,0.0,0.0,0.0,0.0,0.0,0.0,0.0,0.0,0.0,0.0,0.0,0.0,0.0,0.0,0.0,0.0,0.0,0.0,0.0,0.0,0.0,0.0,0.0,0.0,0.0,0.0,0.0,0.0,0.0,0.0,0.0,0.0,0.0,0.0,0.0,0.0,0.0,0.0,0.0,0.0,0.0,0.0,0.0,0.0,0.0,0.0,0.0,0.0,0.0,0.0,0.0,0.0,0.0,0.0,0.0,0.0,0.0,0.0,0.0,0.0,0.0,0.0,0.0,0.0,0.0,0.0,0.0,0.0,0.0,0.0,0.0,0.0,0.0,0.0,0.0,0.0,0.0,0.0,0.0,0.0,0.0,0.0,0.0,0.0,0.0,0.0,0.0,0.0,0.0,0.0,0.0,0.0,0.0,0.0,0.0,0.0,0.0,0.0,0.0,0.0,0.0,0.0,0.0,0.0,0.0,0.0,0.0,0.0,0.0,0.0,0.0,0.0,0.0,0.0,0.0,0.0,0.0,0.0,0.0,0.0,0.0,0.0,0.0,0.0,0.0,0.0,0.0,0.0,0.0,0.0,0.0,0.0,0.0,0.0,0.0,0.0,0.0,0.0,0.0,0.0,0.0,0.0,0.0,0.0,0.0,0.0,0.0,0.0,0.0,0.0,0.0,0.0,0.0,0.0,0.0,0.0,0.0,0.0,0.0,0.0,0.0,0.0,0.0,0.0,0.0,0.0,0.0,0.0,0.0,0.0,0.0,0.0,0.0,0.0,0.0,0.0,0.0,0.0,0.0,0.0,0.0,0.0,0.0,0.0,0.0,0.0,0.0,0.0,0.0,0.0,0.0,0.0,0.0,0.0,0.0,0.0,0.0,0.0,0.0,0.0,0.0,0.0,0.0,0.0,0.0,0.0,0.0,0.0,0.0,0.0,0.0,0.0,0.0,0.0,0.0,0.0,0.0,0.0,0.0,0.0,0.0,0.0,0.0,0.0,0.0,0.0,0.0,0.0,0.0,0.0,0.0,0.0,0.0,0.0,0.0,0.0,0.0,0.0,0.0,0.0,0.0,0.0,0.0,0.0,0.0,0.0,0.0,0.0,0.0,0.0,0.0,0.0,0.0,0.0,0.0,0.0,0.0,0.0,0.0,0.0,0.0,0.0,0.0,0.0,0.0,0.0,0.0,0.0,0.0,0.0,0.0,0.0,0.0,0.0,0.0,0.0,0.0,0.0,0.0,0.0,0.0,0.0,0.0,0.0,0.0,0.0,0.0,0.0,0.0,0.0,0.0,0.0,0.0,0.0,0.0,0.0,0.0,0.0,0.0,0.0,0.0,0.0,0.0,0.0,0.0,0.0,0.0,0.0,0.0,0.0,0.0,0.0,0.0,0.0,0.0,0.0,0.0,0.0,0.0,0.0,0.0,0.0,0.0,0.0,0.0,0.0,0.0,0.0,0.0,0.0,0.0,0.0,0.0,0.0,0.0,0.0,0.0,0.0,0.0,0.0,0.0,0.0,0.0,0.0,0.0,0.0,0.0,0.0,0.0,0.0,0.0,0.0,0.0,0.0,0.0,0.0,0.0,0.0,0.0,0.0,0.0,0.0,0.0,0.0,0.0,0.0,0.0,0.0,0.0,0.0,0.0,0.0,0.0,0.0,0.0,0.0,0.0,0.0,0.0,0.0,0.0,0.0,0.0,0.0,0.0,0.0,0.0,0.0,0.0,0.0,0.0,0.0,0.0,0.0,0.0,0.0,0.0,0.0,0.0,0.0,0.0,0.0,0.0,0.0,0.0,0.0,0.0,0.0,0.0,0.0,0.0,0.0,0.0,0.0,0.0,0.0,0.0,0.0,0.0,0.0,0.0,0.0,0.0,0.0,0.0,0.0,0.0,0.0,0.0,0.0,0.0,0.0,0.0,0.0,0.0,0.0,0.0,0.0,0.0,0.0,0.0,0.0,0.0,0.0,0.0,0.0,0.0,0.0,0.0,0.0,0.0,0.0,0.0,0.0,0.0,0.0,0.0,0.0,0.0,0.0,0.0,0.0,0.0,0.0,0.0,0.0,0.0,0.0,0.0,0.0,0.0,0.0,0.0,0.0,0.0,0.0,0.0,0.0,0.0,0.0,0.0,0.0,0.0,0.0,0.0,0.0,0.0,0.0,0.0,0.0,0.0,0.0,0.0,0.0,0.0,0.0,0.0,0.0,0.0,0.0,0.0,0.0,0.0,0.0,0.0,0.0,0.0,0.0,0.0,0.0,0.0,0.0,0.0,0.0,0.0,0.0,0.0,0.0,0.0,0.0,0.0,0.0,0.0,0.0,0.0,0.0,0.0,0.0,0.0,0.0,0.0,0.0,0.0,0.0,0.0,0.0,0.0,0.0,0.0,0.0,0.0,0.0,0.0,0.0,0.0,0.0,0.0,0.0,0.0,0.0,0.0,0.0,0.0,0.0,0.0,0.0,0.0,0.0,0.0,0.0,0.0,0.0,0.0,0.0,0.0,0.0,0.0,0.0,0.0,0.0,0.0,0.0,0.0,0.0,0.0,0.0,0.0,0.0,0.0,0.0,0.0,0.0,0.0,0.0,0.0,0.0,0.0,0.0,0.0,0.0,0.0,0.0,0.0,0.0,0.0,0.0,0.0,0.0,0.0,0.0,0.0,0.0,0.0,0.0,0.0,0.0,0.0,0.0,0.0,0.0,0.0,0.0,0.0,0.0,0.0,0.0,0.0,0.0,0.0,0.0,0.0,0.0,0.0,0.0,0.0,0.0,0.0,0.0,0.0,0.0,0.0,0.0,0.0,0.0,0.0,0.0,0.0,0.0,0.0,0.0,0.0,0.0,0.0,0.0,0.0,0.0,0.0,0.0,0.0,0.0,0.0,0.0,0.0,0.0,0.0,0.0,0.0,0.0,0.0,0.0,0.0,0.0,0.0,0.0,0.0,0.0,0.0,0.0,0.0,0.0,0.0,0.0,0.0,0.0,0.0,0.0,0.0,0.0,0.0,0.0,0.0,0.0,0.0,0.0,0.0,0.0,0.0,0.0,0.0,0.0,0.0,0.0,0.0,0.0,0.0,0.0,0.0,0.0,0.0,0.0,0.0,0.0,0.0,0.0,0.0,0.0,0.0,0.0,0.0,0.0,0.0,0.0,0.0,0.0,0.0,0.0,0.0,0.0,0.0,0.0,0.0,0.0,0.0,0.0,0.0,0.0,0.0,0.0,0.0,0.0,0.0,0.0,0.0,0.0,0.0,0.0,0.0,0.0,0.0,0.0,0.0,0.0,0.0,0.0,0.0,0.0,0.0,0.0,0.0,0.0,0.0,0.0,0.0,0.0,0.0,0.0,0.0,0.0,0.0,0.0,0.0,0.0,0.0,0.0,0.0,0.0,0.0,0.0,0.0,0.0,0.0,0.0,0.0,0.0,0.0,0.0,0.0,0.0,0.0,0.0,0.0,0.0,0.0,0.0,0.0,0.0,0.0,0.0,0.0,0.0,0.0,0.0,0.0,0.0,0.0,0.0,0.0,0.0,0.0,0.0,0.0,0.0,0.0,0.0,0.0,0.0,0.0,0.0,0.0,0.0,0.0,0.0,0.0,0.0,0.0,0.0,0.0,0.0,0.0,0.0,0.0,0.0,0.0,0.0,0.0,0.0,0.0,0.0,0.0,0.0,0.0,0.0,0.0,0.0,0.0,0.0,0.0,0.0,0.0,0.0,0.0,0.0,-1.2158,-1.1329,0.0,0.0,0.0,0.0,0.0,0.0,0.0,0.0,0.0,0.0,0.0,0.0,0.0,0.0,0.0,0.0,0.0,0.0,0.0,0.0,0.0,0.0,0.0,-0.5491,-0.5544,-0.5726,-0.5571,0.0,0.0,0.0,0.0,0.0,0.0,0.0,0.0,0.0,-0.6346,-0.6828,-0.66,-0.6574,-0.6719,-0.6657,-0.675,-0.6927,0.0,0.0,0.0,0.0,0.0,0.0,0.0,0.0,0.0,0.0,0.0,0.0,0.0,0.0,0.0,0.0,0.0,0.0,0.0,0.0,0.0,0.0,0.0,0.0,0.0,0.0,0.0,0.0,0.0,0.0,0.0,0.0,0.0,0.0,0.0,0.0,0.0,0.0,0.0,0.0,0.0,0.0,0.0,0.0,0.0,0.0,0.0,0.0,0.0,0.0,0.0,0.0,0.0,0.0,0.0,0.0,0.0,0.0,0.0,0.0,0.0,0.0,0.0,0.0,0.0,0.0,0.0,0.0,0.0,0.0,-1.2906,-1.2345,0.0,0.0,0.0,0.0,0.0,0.0,0.0,0.0,0.0,0.0,0.0,0.0,0.0,0.0,0.0,0.0,0.0,0.0,0.0,0.0,0.0,-0.5451,-0.5691,-0.5758,-0.5892,-0.6169,-0.5932,-0.5812,-0.5865,-0.5638,0.0,0.0,0.0,0.0,-0.5945,-0.6466,-0.7012,-0.7464,-0.7034,-0.6739,-0.6555,-0.6912,-0.7106,-0.7228,-0.7073,0.0,0.0,0.0,0.0,0.0,0.0,0.0,0.0,0.0,0.0,0.0,0.0,0.0,0.0,0.0,0.0,0.0,0.0,0.0,0.0,0.0,0.0,0.0,0.0,0.0,0.0,0.0,0.0,0.0,0.0,0.0,0.0,0.0,0.0,0.0,0.0,0.0,0.0,0.0,0.0,0.0,0.0,0.0,0.0,0.0,0.0,0.0,0.0,0.0,0.0,0.0,0.0,0.0,0.0,0.0,0.0,0.0,0.0,0.0,0.0,0.0,0.0,0.0,-1.3854,-1.3868,-1.3868,-1.3627,-1.3641,-1.3854,-1.3627,-1.3427,-1.328,-1.312,0.0,0.0,0.0,0.0,0.0,0.0,0.0,0.0,0.0,0.0,0.0,0.0,0.0,0.0,0.0,0.0,0.0,0.0,0.0,-0.5665,-0.5705,-0.5945,-0.6156,-0.6196,-0.6156,-0.6236,-0.6453,-0.644,0.0,0.0,0.0,0.0,-0.6813,-0.7174,-0.7342,-0.7302,-0.7021,-0.6703,-0.6419,-0.6654,-0.6848,-0.6958,-0.6936,-0.6963,-0.7072,0.0,0.0,0.0,0.0,0.0,0.0,0.0,0.0,0.0,0.0,0.0,0.0,0.0,0.0,0.0,0.0,0.0,0.0,0.0,0.0,0.0,0.0,0.0,0.0,0.0,0.0,0.0,0.0,0.0,0.0,0.0,0.0,0.0,0.0,0.0,0.0,0.0,0.0,0.0,0.0,0.0,-1.1169,-1.1249,0.0,0.0,0.0,0.0,0.0,0.0,0.0,0.0,0.0,0.0,0.0,0.0,0.0,-1.3587,-1.3854,-1.4215,-1.4402,-1.4402,-1.4669,-1.479,-1.479,-1.475,-1.475,-1.479,-1.475,0.0,-1.3627,-1.4095,0.0,0.0,0.0,0.0,0.0,0.0,0.0,0.0,0.0,0.0,0.0,0.0,0.0,0.0,0.0,0.0,0.0,0.0,0.0,0.0,0.0,-0.6921,-0.7204,-0.7829,-0.7736,-0.7562,-0.7361,-0.7348,0.0,0.0,-0.7304,-0.7455,-0.7281,-0.766,-0.7577,-0.6954,-0.7095,-0.6824,-0.6187,-0.6353,-0.6508,-0.6552,-0.6356,-0.6595,-0.7097,-0.6749,0.0,0.0,0.0,0.0,0.0,0.0,0.0,0.0,0.0,0.0,0.0,0.0,0.0,0.0,0.0,0.0,0.0,0.0,0.0,0.0,0.0,0.0,0.0,0.0,0.0,0.0,0.0,0.0,0.0,0.0,0.0,0.0,0.0,0.0,0.0,0.0,0.0,0.0,0.0,-1.0862,-1.1303,-1.1637,-1.1703,-1.1797,0.0,0.0,0.0,0.0,0.0,0.0,0.0,0.0,0.0,-1.4108,-1.3814,-1.3948,-1.4576,-1.503,-1.5257,-1.5257,-1.5551,-1.5698,-1.5698,-1.5524,-1.5444,-1.5458,-1.5631,-1.5484,-1.511,-1.487,-1.4549,-1.4188,0.0,0.0,0.0,0.0,-1.336,-1.332,0.0,0.0,0.0,0.0,0.0,0.0,0.0,0.0,0.0,0.0,0.0,0.0,-0.7936,-0.7909,-0.823,-0.9259,-0.9085,-0.8791,-0.8459,-0.8446,-0.8323,-0.7949,-0.8363,-0.8457,-0.815,-0.8096,-0.7638,-0.6741,-0.6905,-0.6656,-0.6146,-0.622,-0.6281,-0.6302,-0.6037,-0.6268,-0.6776,-0.6617,-0.652,-0.6551,0.0,0.0,0.0,0.0,0.0,0.0,0.0,0.0,0.0,0.0,0.0,0.0,0.0,0.0,0.0,0.0,0.0,0.0,0.0,0.0,0.0,0.0,0.0,0.0,0.0,0.0,0.0,0.0,0.0,0.0,0.0,0.0,0.0,0.0,0.0,0.0,0.0,-1.1476,-1.1864,-1.2371,-1.2625,-1.2879,0.0,0.0,0.0,0.0,0.0,0.0,-1.3868,-1.3667,-1.3948,-1.483,-1.4429,-1.4563,-1.5284,-1.5805,-1.6019,-1.5952,-1.6246,-1.638,-1.638,-1.6152,-1.6046,-1.6072,-1.6286,-1.638,-1.6339,-1.5685,-1.5364,-1.5271,-1.4977,-1.4763,-1.4589,-1.4229,-1.4041,-1.4068,0.0,0.0,0.0,0.0,0.0,0.0,0.0,0.0,0.0,0.0,0.0,-0.7688,-0.8283,-0.8577,-0.8991,-0.9606,-0.9392,-0.9389,-0.9967,-1.0007,-1.0114,-1.043,-1.047,-1.0287,-0.9993,-0.8491,-0.7417,-0.6911,-0.6309,-0.6173,-0.6444,-0.6322,-0.6335,-0.6458,-0.6302,-0.6222,-0.6103,-0.6324,-0.6562,-0.6867,-0.6911,0.0,0.0,0.0,0.0,0.0,0.0,0.0,0.0,0.0,0.0,0.0,0.0,0.0,0.0,0.0,0.0,0.0,0.0,0.0,0.0,0.0,0.0,0.0,0.0,0.0,0.0,0.0,0.0,0.0,0.0,0.0,0.0,0.0,0.0,0.0,0.0,0.0,0.0,-1.3935,-1.3988,0.0,0.0,0.0,0.0,-1.4041,-1.4055,-1.4188,-1.4456,-1.4456,-1.4856,-1.5738,-1.5738,-1.5872,-1.6206,-1.6513,-1.6526,-1.6259,-1.654,-1.6687,-1.6687,-1.6673,-1.666,-1.666,-1.6673,-1.6687,-1.6687,-1.6633,-1.646,-1.6179,-1.5885,-1.5431,-1.4977,-1.5217,-1.5137,-1.4977,0.0,0.0,0.0,-0.5309,-0.5309,-0.5376,-0.5531,-0.5812,-0.6172,-0.6653,-0.7321,-0.8136,-0.9112,-0.9312,-0.9686,-1.0461,-1.0434,-1.0381,-1.0408,-1.0755,-1.0835,-1.0631,-1.0915,-1.0517,-0.9142,-0.7864,-0.6876,-0.6222,-0.6298,-0.6322,-0.6342,-0.6478,-0.6573,-0.6614,-0.6464,-0.6315,-0.6159,-0.6186,-0.6208,-0.6346,-0.6646,-0.665,0.0,0.0,0.0,0.0,0.0,0.0,0.0,0.0,0.0,0.0,0.0,0.0,0.0,0.0,0.0,0.0,0.0,0.0,0.0,0.0,0.0,0.0,0.0,0.0,0.0,0.0,0.0,0.0,0.0,0.0,0.0,0.0,0.0,0.0,0.0,0.0,0.0,-1.4028,-1.4082,0.0,-1.4763,-1.471,-1.4656,-1.4656,-1.499,-1.5257,-1.5351,-1.5551,-1.5872,-1.638,-1.6206,-1.6259,-1.654,-1.6847,-1.6941,-1.6834,-1.7128,-1.7275,-1.7275,-1.7275,-1.7275,-1.7275,-1.7275,-1.7275,-1.7275,-1.7275,-1.7101,-1.6807,-1.6513,-1.638,-1.6353,-1.6273,-1.6179,-1.6139,0.0,0.0,0.0,-0.5309,-0.5309,-0.5384,-0.5665,-0.6052,-0.6546,-0.7241,-0.7888,-0.8778,-0.986,-0.998,-1.0287,-1.1076,-1.1049,-1.0955,-1.0862,-1.1209,-1.1303,-1.1075,-1.0992,-1.0114,-0.8341,-0.7354,-0.6603,-0.603,-0.6281,-0.643,-0.6491,-0.6688,-0.6776,-0.677,-0.6668,-0.6546,-0.6396,-0.6193,-0.6078,-0.601,-0.6309,-0.6402,-0.6302,0.0,0.0,0.0,0.0,0.0,0.0,0.0,0.0,0.0,0.0,0.0,0.0,0.0,0.0,0.0,0.0,0.0,0.0,0.0,0.0,0.0,0.0,0.0,0.0,0.0,0.0,0.0,0.0,0.0,0.0,0.0,0.0,0.0,0.0,-1.316,-1.3574,-1.4162,-1.4322,-1.4616,-1.5204,-1.5351,-1.5404,-1.5404,-1.5845,-1.6126,-1.6126,-1.6313,-1.6553,-1.6847,-1.6673,-1.6714,-1.6994,-1.7194,-1.7288,-1.7301,-1.7488,-1.7582,-1.7582,-1.7582,-1.7582,-1.7582,-1.7582,-1.7582,-1.7582,-1.7582,-1.7475,-1.7261,-1.6967,-1.6981,-1.7128,-1.6927,-1.686,-1.6901,0.0,0.0,-0.5309,-0.5309,-0.5322,-0.5397,-0.5678,-0.6226,-0.6921,-0.7782,-0.8645,-0.9579,-1.0448,-1.0618,-1.0782,-1.1356,-1.1142,-1.1102,-1.1396,-1.1436,-1.1583,-1.1877,-1.0759,-0.9349,-0.7838,-0.7246,-0.6824,-0.6471,-0.6349,-0.6512,-0.6946,-0.6946,-0.6946,-0.6946,-0.6946,-0.6858,-0.6688,-0.6403,-0.6186,-0.6044,-0.603,-0.6368,-0.6824,0.0,0.0,0.0,0.0,0.0,0.0,0.0,0.0,0.0,0.0,0.0,0.0,0.0,0.0,0.0,0.0,0.0,0.0,0.0,0.0,0.0,0.0,0.0,0.0,0.0,0.0,0.0,0.0,0.0,0.0,0.0,0.0,0.0,-1.3307,-1.3494,-1.3895,-1.4496,-1.4816,-1.5217,-1.5805,-1.6112,-1.6286,-1.6286,-1.6553,-1.6727,-1.6727,-1.6727,-1.686,-1.7154,-1.7168,-1.7301,-1.7582,-1.7582,-1.7582,-1.7582,-1.7582,-1.7582,-1.7582,-1.7582,-1.7582,-1.7582,-1.7582,-1.7582,-1.7582,-1.7595,-1.7595,-1.7569,-1.7275,-1.7168,-1.7168,-1.7168,-1.7168,-1.7208,-0.5309,-0.5309,-0.5309,-0.5309,-0.5451,-0.5691,-0.6021,-0.6533,-0.7228,-0.8136,-0.8831,-0.9442,-1.0167,-1.0434,-1.0685,-1.0782,-1.0728,-1.0795,-1.1089,-1.1516,-1.1971,-1.2553,-1.0576,-0.9237,-0.8763,-0.8054,-0.7305,-0.6471,-0.6756,-0.7021,-0.7251,-0.7366,-0.736,-0.7251,-0.7251,-0.7109,-0.6858,-0.6776,-0.6593,-0.6335,-0.6118,-0.6009,-0.6086,0.0,0.0,0.0,0.0,0.0,0.0,0.0,0.0,0.0,0.0,0.0,0.0,0.0,0.0,0.0,0.0,0.0,0.0,0.0,0.0,0.0,0.0,0.0,0.0,0.0,0.0,0.0,0.0,0.0,0.0,0.0,-1.3895,-1.4322,-1.4469,-1.4362,-1.4656,-1.5671,-1.5671,-1.5818,-1.6406,-1.654,-1.658,-1.658,-1.686,-1.7021,-1.7021,-1.7221,-1.7382,-1.7462,-1.7462,-1.7502,-1.7582,-1.7582,-1.7582,-1.7582,-1.7582,-1.7582,-1.7582,-1.7582,-1.7582,-1.7582,-1.7582,-1.7582,-1.7595,-1.7822,-1.7916,-1.7889,-1.7582,-1.7462,-1.7462,-1.7462,-1.7462,-1.7475,-0.5309,-0.5309,-0.5309,-0.5309,-0.5518,-0.5812,-0.6156,-0.6801,-0.7535,-0.8444,-0.9058,-0.9646,-1.0234,-1.0461,-1.0618,-1.0618,-1.0675,-1.0862,-1.1156,-1.173,-1.1999,-1.1825,-1.0669,-0.9852,-0.9601,-0.9232,-0.8603,-0.7682,-0.7891,-0.7847,-0.7468,-0.7556,-0.755,-0.7461,-0.74,-0.7278,-0.7109,-0.698,-0.6824,-0.6641,-0.6403,-0.6186,-0.5996,-0.6023,-0.5867,-0.57,-0.6067,-0.612,-0.6279,-0.7033,0.0,0.0,0.0,0.0,0.0,0.0,0.0,0.0,0.0,0.0,0.0,0.0,0.0,0.0,0.0,0.0,0.0,0.0,0.0,0.0,0.0,0.0,0.0,0.0,-1.4376,-1.475,-1.5418,-1.515,-1.519,-1.5992,-1.6046,-1.6192,-1.666,-1.682,-1.6887,-1.6887,-1.7168,-1.7328,-1.7328,-1.7488,-1.7582,-1.7582,-1.7582,-1.7582,-1.7582,-1.7582,-1.7582,-1.7582,-1.7716,-1.7769,-1.7782,-1.7903,-1.7969,-1.7969,-1.7969,-1.7969,-1.7983,-1.8156,-1.8237,-1.821,0.0,0.0,0.0,0.0,-1.7969,-1.7969,-0.5309,-0.5309,-0.5309,-0.5309,-0.5544,-0.5852,-0.6156,-0.6975,-0.7829,-0.8697,-0.9352,-0.994,-1.0564,-1.0658,-1.0658,-1.0631,-1.0822,-1.1129,-1.145,-1.1814,-1.1646,-1.0719,-1.0896,-1.0881,-1.0395,-1.0447,-1.011,-0.9281,-0.9216,-0.8598,-0.7651,-0.7651,-0.7638,-0.7617,-0.7482,-0.74,-0.7353,-0.7088,-0.6966,-0.6939,-0.679,-0.6552,-0.6274,-0.6152,-0.6084,-0.6003,-0.5623,-0.5644,-0.5957,-0.6515,0.0,0.0,0.0,0.0,0.0,0.0,0.0,0.0,0.0,0.0,0.0,0.0,0.0,0.0,0.0,0.0,0.0,0.0,0.0,0.0,0.0,0.0,0.0,0.0,-1.483,-1.507,-1.6086,-1.5858,-1.5685,-1.5952,-1.6206,-1.6486,-1.678,-1.7048,-1.7194,-1.7194,-1.7435,-1.7582,-1.7582,-1.7582,0.0,0.0,0.0,-1.7635,-1.7635,-1.7662,-1.7689,-1.7689,-1.7969,-1.8103,-1.8103,-1.837,-1.849,-1.849,-1.849,-1.849,-1.849,-1.8557,-1.8624,-1.8677,-1.8544,-1.849,-1.849,-1.849,-1.849,-1.849,-0.5309,-0.5309,-0.5309,-0.5309,-0.5752,-0.6129,-0.6182,-0.7121,-0.807,-0.8724,-0.9526,-1.0167,-1.0591,-1.0768,-1.0822,-1.0645,-1.0822,-1.1223,-1.1744,-1.115,-1.1242,-1.2319,-1.1834,-1.165,-1.1711,-1.1091,-1.0276,-0.9468,-0.8502,-0.7994,-0.7957,-0.7957,-0.7889,-0.7767,-0.774,-0.7597,-0.7366,-0.7312,-0.721,-0.7088,-0.6946,-0.6702,-0.6444,-0.6532,-0.6424,-0.622,-0.6247,-0.622,-0.6256,-0.6465,-0.6338,-0.6191,-0.6572,-0.7057,0.0,0.0,0.0,0.0,0.0,0.0,0.0,0.0,0.0,0.0,0.0,0.0,0.0,0.0,0.0,0.0,0.0,0.0,0.0,-1.4744,-1.5511,-1.5925,-1.5912,-1.6433,-1.6834,-1.6887,-1.6941,-1.7088,-1.7382,-1.7462,-1.7502,-1.7502,-1.7555,-1.7582,-1.7582,-1.7582,-1.7582,-1.7582,-1.7822,-1.7956,-1.7956,-1.8196,-1.8317,-1.8317,-1.8384,0.0,-1.841,-1.8464,-1.849,-1.849,-1.849,-1.849,-1.8531,-1.8998,-1.9479,-1.98,-1.8851,-1.849,-1.849,-1.849,-1.849,-1.849,-0.5309,-0.5309,-0.5309,-0.5309,-0.5806,-0.6196,-0.6196,-0.7041,-0.7909,-0.851,-0.9218,-0.9846,-1.0287,-1.0728,-1.0942,-1.0795,-1.1182,-1.1623,-1.2051,-1.1642,-1.1749,-1.2719,-1.2698,-1.2877,-1.3294,-1.2483,-1.1662,-1.0659,-0.9518,-0.8547,-0.8038,-0.8038,-0.7997,-0.7923,-0.7841,-0.7726,-0.7584,-0.7434,-0.7326,-0.7244,-0.7095,-0.6946,-0.6797,-0.6729,-0.6607,-0.6478,-0.6471,-0.6424,-0.6369,-0.6369,-0.6315,-0.6268,-0.6342,-0.6949,-0.7575,0.0,0.0,0.0,0.0,0.0,0.0,0.0,0.0,0.0,0.0,0.0,0.0,0.0,0.0,-1.2031,-1.4304,0.0,-1.4523,-1.5471,-1.5992,-1.6326,-1.6473,-1.6874,-1.7154,-1.7154,-1.7275,-1.7422,-1.7569,-1.7582,-1.7582,-1.7582,-1.7582,-1.7582,-1.7582,-1.7729,-1.7809,-1.7809,-1.8103,-1.8263,-1.8263,-1.8424,-1.849,-1.849,-1.8637,-1.8704,-1.8718,-1.8865,-1.8931,-1.8931,-1.9078,-1.9145,-1.9185,-1.9613,-1.9973,-2.0174,-1.9586,-1.9279,-1.9158,-1.9305,-1.9265,-1.9172,-0.5309,-0.5331,-0.5357,-0.5357,-0.5833,-0.6209,-0.6263,-0.6975,-0.7728,-0.8346,-0.8884,-0.9389,-0.998,-1.0608,-1.1009,-1.1076,-1.1557,-1.1971,-1.2198,-1.2265,-1.2465,-1.2903,-1.336,-1.3948,-1.4589,-1.3811,-1.2953,-1.195,-1.0583,-0.9312,-0.8038,-0.8038,-0.8038,-0.8031,-0.7909,-0.7841,-0.7794,-0.7529,-0.74,-0.736,-0.7204,-0.7143,-0.7109,-0.6844,-0.6742,-0.6722,-0.6573,-0.6498,-0.6451,-0.6308,-0.6356,-0.6471,-0.6471,-0.7023,-0.7675,-0.7458,-0.8389,0.0,0.0,0.0,0.0,0.0,0.0,0.0,0.0,-1.0982,-1.1324,-1.1997,-1.207,-1.2654,-1.4718,-1.5139,-1.5347,-1.5869,-1.6209,-1.6607,-1.7088,-1.7194,-1.7235,-1.7235,-1.7435,-1.7582,-1.7582,-1.7582,-1.7582,-1.7582,-1.7635,-1.7675,-1.7675,-1.7969,-1.813,-1.813,-1.8424,-1.8571,-1.8571,-1.8637,-1.8664,-1.8664,-1.8958,-1.9065,-1.9025,-1.9372,-1.9506,-1.9466,-1.9813,-2.004,-2.016,-2.0388,-2.0521,-2.0575,-2.0575,-2.0401,-2.0147,-2.0214,-2.012,-2.0,-0.5309,-0.5491,-0.5665,-0.5665,-0.5981,-0.6277,-0.6506,-0.711,-0.7728,-0.8346,-0.8884,-0.9365,-0.9699,-1.0488,-1.1102,-1.1356,-1.1677,-1.1877,-1.1917,-1.2158,-1.2559,-1.3133,-1.3467,-1.4041,-1.4897,-1.3909,-1.2953,-1.195,-1.0583,-0.9312,-0.8038,-0.8038,-0.8038,-0.8038,-0.8024,-0.7936,-0.7801,-0.7645,-0.7495,-0.736,-0.7204,-0.7143,-0.7122,-0.6966,-0.6905,-0.6885,-0.6729,-0.6586,-0.6451,-0.6308,-0.6356,-0.6471,-0.6471,-0.6551,-0.6857,-0.7683,-0.8594,-0.9528,-1.0285,-1.0663,-1.0548,-0.9253,-0.9517,-0.979,0.0,-0.8671,-0.9597,-1.1071,-1.0734,-1.0849,-1.3408,-1.4219,-1.4469,-1.4654,-1.6049,-1.7074,-1.7141,-1.7368,-1.7542,-1.7542,-1.7569,-1.7582,-1.7582,-1.7582,-1.7582,-1.7582,-1.7836,-1.7996,-1.7996,-1.8277,-1.8437,-1.8437,-1.8731,-1.8878,-1.8878,-1.9132,-1.9265,-1.9279,-1.9559,-1.9573,-1.9332,-1.988,-2.0,-1.9786,-2.0334,-2.0869,-2.1363,-2.139,-2.1563,-2.179,-2.179,-2.1617,-2.1269,-2.0508,-2.0374,-2.0588,-0.582,-0.5927,-0.6025,-0.6186,-0.6319,-0.6492,-0.6573,-0.6947,-0.7361,-0.7836,-0.8216,-0.8657,-0.9125,-1.0261,-1.1102,-1.1396,-1.1703,-1.1864,-1.1864,-1.1984,-1.2318,-1.2919,-1.3227,-1.3721,-1.4442,-1.3615,-1.302,-1.2797,-1.0909,-0.9706,-0.9114,-0.8336,-0.8038,-0.8038,-0.7943,-0.7868,-0.7794,-0.7563,-0.7428,-0.736,-0.7204,-0.7088,-0.7021,-0.7041,-0.7,-0.6912,-0.6756,-0.6661,0.0,-0.6539,-0.6559,-0.6607,-0.6607,-0.6607,-0.681,-0.7642,-0.8225,-0.8705,-0.938,-0.9128,-0.8802,-0.8999,-0.9328,-0.9418,-0.8745,-0.9554,-1.0464,-1.0487,-1.0872,-1.157,-1.2683,-1.3926,-1.4742,-1.4756,-1.6251,-1.7395,-1.7395,-1.7502,-1.7582,-1.7582,-1.7582,-1.7582,-1.7582,-1.7582,-1.7662,-1.7836,-1.7969,-1.8116,-1.829,-1.8584,-1.8744,-1.8744,-1.9025,-1.9265,-1.9426,-1.9559,-1.9706,-1.9867,-2.0,-2.008,-2.0134,-2.0374,-2.0615,-2.0828,-2.1082,-2.1416,-2.1804,-2.1804,-2.1884,-2.1991,-2.1991,-2.1911,-2.1764,-2.139,-2.1229,-2.1216,-0.6196,-0.6263,-0.6384,-0.656,-0.6653,-0.6707,-0.6707,-0.6894,-0.7134,-0.7473,-0.7669,-0.8083,-0.8844,-0.9873,-1.0688,-1.1142,-1.145,-1.1663,-1.1744,-1.1824,-1.2171,-1.2839,-1.3013,-1.34,-1.4068,-1.3598,-1.3297,-1.3181,-1.1326,-1.0184,-0.9744,-0.8539,-0.7957,-0.7916,-0.7801,-0.7753,-0.7733,-0.7482,-0.7373,-0.7353,-0.7163,-0.7041,-0.6987,-0.6966,-0.6946,-0.6912,-0.6803,-0.6763,-0.6756,-0.6715,-0.6702,-0.6702,-0.6702,-0.6943,-0.7304,-0.7778,-0.8295,-0.8647,-0.8798,-0.8205,-0.7818,-0.8746,-0.8934,-0.8934,-0.8934,-0.9827,-1.0484,-1.0143,-1.087,-1.1851,-1.2442,-1.3871,-1.5059,-1.5129,-1.6478,-1.7582,-1.7582,-1.7582,-1.7582,-1.7582,-1.7662,-1.7716,-1.7716,-1.7716,-1.7836,-1.8143,-1.825,-1.8384,-1.8597,-1.8891,-1.9052,-1.9052,-1.9332,-1.9586,-1.98,-1.996,-2.0147,-2.0361,-2.0521,-2.0668,-2.0802,-2.0882,-2.1243,-2.179,-2.179,-2.1964,-2.2231,-2.2231,-2.2231,-2.2231,-2.2231,-2.2231,-2.2231,-2.2231,-2.2044,-2.1817,-0.6196,-0.6424,-0.6573,-0.6587,-0.6827,-0.7014,-0.7014,-0.7014,-0.7134,-0.7473,-0.7513,-0.7923,-0.9044,-0.9216,-0.9646,-1.0514,-1.0848,-1.1142,-1.1423,-1.1717,-1.2265,-1.316,-1.2919,-1.3252,-1.4068,-1.4108,-1.3557,-1.2657,-1.1857,-1.0745,-0.9274,-0.8321,-0.7746,-0.7611,-0.7611,-0.7604,-0.7597,-0.7441,-0.7373,-0.7346,-0.7054,-0.7014,-0.7088,-0.6654,-0.6675,-0.6926,-0.6926,-0.6919,-0.6898,-0.6749,-0.6702,-0.6702,-0.6702,-0.7432,-0.8319,-0.8384,-0.9183,-0.9989,-0.9275,-0.8934,-0.8742,-0.8203,-0.8024,-0.8024,-0.8024,-0.8247,-0.8758,-0.9953,-1.0255,-1.0782,-1.2526,-1.398,-1.5117,-1.5364,-1.6605,-1.7582,-1.7582,-1.7582,-1.7582,-1.7582,-1.7849,-1.8036,-1.8036,-1.8036,-1.8156,-1.845,-1.8744,-1.8905,-1.8905,-1.9199,-1.9359,-1.9359,-1.9639,-1.9786,-1.98,-2.0361,-2.0655,-2.0668,-2.1243,-2.1363,-2.1109,-2.139,-2.1844,-2.2392,-2.2392,-2.2565,-2.2832,-2.2832,-2.2832,-2.2832,-2.2832,-2.2832,-2.2832,-2.2832,-2.2645,-2.2392,-0.6734,-0.6814,-0.688,-0.688,-0.6961,-0.6985,-0.6985,-0.6985,-0.7054,-0.7161,-0.7348,0.0,0.0,0.0,0.0,0.0,-1.0488,-1.0955,-1.0862,-1.149,-1.1997,-1.2305,-1.2412,-1.2786,-1.3494,-1.3694,-1.3776,-1.3886,-1.2971,-1.2264,-1.1731,-0.9681,-0.9214,-0.989,-0.8221,-0.7843,-0.8356,-0.7489,-0.7075,-0.7061,-0.6858,-0.6803,-0.6851,-0.6898,-0.721,-0.7737,0.0,-0.7714,-0.677,-0.6715,-0.7264,-0.8018,-0.8018,-0.8344,-0.87,-0.8606,-0.9084,-0.9561,-0.9288,-0.8906,-0.8492,-0.8254,-0.8194,-0.8194,-0.8194,-0.8932,-0.9501,-0.9102,-1.0553,-1.1756,-1.1618,-1.3583,-1.5317,-1.5399,-1.6605,-1.7582,-1.7582,-1.7582,-1.7662,-1.7862,-1.7983,-1.8196,-1.8597,-1.845,-1.8464,-1.8758,-1.9052,-1.9305,-1.9492,-1.9786,-1.9947,-1.9947,-2.004,-2.0281,-2.0668,-2.0869,-2.1162,-2.155,-2.1937,-2.2071,-2.1991,-2.2285,-2.2525,-2.2712,-2.2712,-2.2766,-2.2859,-2.2859,-2.2859,-2.2859,-2.2859,-2.2859,-2.2859,-2.2859,-2.2806,-2.2712,0.0,-0.6985,-0.6985,-0.6985,-0.6985,0.0,0.0,0.0,0.0,0.0,0.0,0.0,0.0,0.0,0.0,0.0,0.0,-1.0421,-1.0618,-1.1089,-1.1543,-1.185,-1.2051,-1.2331,-1.2719,-1.312,-1.3454,-1.3721,-1.2918,-1.2476,-1.2383,-1.0445,-0.9901,-1.0524,-0.8911,-0.8541,-0.9101,-0.8227,-0.8122,-0.8344,-0.7827,-0.7804,-0.8102,-0.784,-0.7959,0.0,-0.9061,-0.8615,-0.7682,-0.7484,-0.8213,-0.8998,-0.8262,-0.8426,-0.8945,-0.9018,-0.9247,-0.947,-0.9168,-0.878,-0.8438,-0.8492,-0.8547,-0.8574,-0.852,-0.9122,-0.9564,-0.8835,-1.0485,-1.1973,-1.1935,-1.3932,-1.5779,-1.6221,-1.709,-1.7716,-1.7595,-1.7675,-1.7822,-1.8023,-1.8237,-1.8504,-1.8891,-1.8945,-1.9038,-1.9225,-1.9412,-1.9653,-1.9947,-2.0134,-2.0281,-2.0388,-2.0494,-2.0775,-2.1269,-2.147,-2.1817,-2.2298,-2.2485,-2.2579,-2.2579,-2.2779,-2.2859,-2.2859,-2.2859,-2.2859,-2.2859,-2.2859,-2.2859,-2.2873,-2.2979,-2.3033,-2.3046,-2.3153,-2.318,-2.3153,0.0,0.0,-0.6985,0.0,0.0,0.0,0.0,0.0,0.0,0.0,0.0,0.0,0.0,0.0,0.0,0.0,0.0,0.0,-1.0497,-1.0577,-1.0981,-1.1841,-1.1824,-1.1837,-1.1864,-1.2486,-1.2572,-1.2305,-1.1933,-1.1688,-1.1535,-1.047,-0.9955,-0.9837,-0.9676,-0.9666,-0.9737,-0.9656,-1.0188,-1.0855,-0.9617,-0.9707,-1.0444,-0.9316,-0.8961,-0.9226,-0.9476,-0.9615,-0.9488,-0.8852,-0.9193,-0.9452,-0.7469,-0.7788,-0.9063,-0.9598,-0.9715,-0.9546,-0.8913,-0.8723,-0.8757,-0.8913,-0.9049,-0.911,-0.8967,-0.8933,-0.8927,-0.9037,-1.0093,-1.1576,-1.3497,-1.4911,-1.6369,-1.7725,-1.7846,-1.7741,-1.7556,-1.7782,-1.7981,-1.8116,-1.8624,-1.8971,-1.8985,-1.9492,-1.9826,-1.984,-1.984,-1.996,-2.0241,-2.0281,-2.0428,-2.0708,-2.1002,-2.1296,-2.159,-2.2164,-2.2579,-2.2859,-2.2859,-2.2859,-2.2859,-2.2859,-2.2859,-2.2859,-2.2859,-2.2873,-2.2886,-2.2886,-2.2899,-2.2939,-2.3233,-2.3354,-2.338,-2.3661,-2.3768,-2.3688,0.0,0.0,0.0,0.0,0.0,0.0,0.0,0.0,0.0,0.0,0.0,0.0,0.0,0.0,0.0,0.0,0.0,0.0,-0.9566,-0.998,-1.0434,-1.094,-1.1102,-1.1423,-1.1864,-1.2011,-1.2158,-1.2305,-1.2218,-1.2132,-1.2067,-1.0988,-1.09,-1.1526,-0.9848,-0.9514,-1.0181,-0.9285,-0.9173,-0.9587,-0.906,-0.9209,-0.9777,-0.9577,-0.9729,-1.0166,-1.0897,-1.1187,-1.0948,-0.8758,-0.8286,-0.8648,-0.8673,-0.8861,-0.914,-0.8755,-0.8794,-0.8855,-0.8893,-0.8879,-0.8913,-0.9062,-0.9049,-0.8981,-0.8947,-0.8852,-0.9089,-1.0154,-1.1487,-1.3012,-1.4815,-1.5464,-1.5881,-1.6525,-1.5535,-1.5166,-1.6342,-1.6682,-1.739,-1.8884,-1.9359,-1.9666,-1.988,-2.0027,-2.0214,-2.0441,-2.0454,-2.0481,-2.0561,-2.0975,-2.1256,-2.1323,-2.1617,-2.1897,-2.2191,-2.2565,-2.2792,-2.2859,-2.2859,-2.2859,-2.2859,-2.2859,-2.2859,-2.2859,-2.2859,-2.2993,-2.3207,-2.3207,-2.334,-2.3541,-2.3634,-2.3661,-2.3661,-2.3741,-2.3768,-2.3754,0.0,0.0,0.0,0.0,0.0,0.0,0.0,0.0,0.0,0.0,0.0,0.0,0.0,0.0,0.0,0.0,0.0,0.0,0.0,-0.9495,-0.986,-1.0167,-1.0448,-1.0768,-1.1089,-1.1476,-1.169,-1.173,-1.2118,-1.2238,-1.2118,-1.1563,-1.17,-1.2231,-1.0944,-1.0654,-1.0994,-1.0452,-1.0496,0.0,0.0,-1.0244,-1.0667,-1.0296,-1.0137,-1.0387,-1.1095,-1.1009,-1.0405,-0.9673,-0.8622,-0.7772,-0.8836,-0.8885,-0.854,-0.8411,-0.8377,-0.8486,-0.8913,-0.9035,-0.9069,-0.9218,-0.9245,-0.9198,-0.9062,-0.9347,-0.9854,-1.0634,-1.2326,-1.4063,-1.5505,-1.5717,-1.605,-1.7116,-1.6023,-1.541,-1.6906,-1.7565,-1.8224,-1.9229,-1.9733,-2.0054,-2.0214,-2.0347,-2.0494,-2.0668,-2.0681,-2.0788,-2.1042,-2.1376,-2.167,-2.1924,-2.2084,-2.2311,-2.2605,-2.2779,-2.2859,-2.2859,-2.2859,-2.2859,-2.2859,-2.2859,-2.2939,-2.3073,-2.3073,-2.3233,-2.3527,-2.3527,-2.3621,-2.3781,-2.3915,-2.3968,-2.3981,-2.4102,-2.4155,-2.4155,0.0,0.0,0.0,0.0,0.0,0.0,0.0,0.0,0.0,0.0,0.0,-0.9377,-0.9935,-1.0454,0.0,0.0,0.0,0.0,0.0,0.0,-0.9312,-0.9619,-0.986,-1.002,-1.006,-1.0808,-1.1076,-1.0822,-1.1583,-1.185,-1.1637,-1.185,-1.1971,-1.2011,-1.1971,-1.181,-1.1597,-1.185,-1.2278,-1.2705,-1.1663,-1.1583,-1.1957,0.0,-1.0381,-1.018,-1.0688,-1.0075,-0.9227,-1.0762,-0.9275,-0.718,-0.8666,-0.8479,-0.7767,-0.8296,-0.8411,-0.8472,-0.9008,-0.9184,-0.9245,-0.9374,-0.9496,-0.9496,-0.9198,-1.012,-1.0941,-1.0971,-1.2883,-1.4918,-1.5947,-1.5873,-1.627,-1.8194,-1.7261,-1.6744,-1.8065,-1.8876,-1.9245,-1.9479,-2.0,-2.0225,-1.9981,-2.0451,-2.0624,-2.0526,-2.0664,-2.1015,-2.1523,-2.163,-2.1924,-2.2458,-2.2472,-2.2605,-2.2859,-2.2859,-2.2859,-2.2859,-2.2859,-2.2859,-2.2859,-2.2899,-2.3073,-2.3327,-2.3367,-2.3554,-2.3834,-2.3834,-2.3848,-2.3915,-2.4168,-2.4262,-2.4289,-2.4543,-2.4636,-2.4636,0.0,0.0,0.0,0.0,0.0,0.0,0.0,0.0,0.0,0.0,-1.1083,-1.078,0.0,0.0,0.0,0.0,0.0,0.0,0.0,0.0,0.0,-0.9243,-0.9309,-0.9512,-0.9753,-0.9913,-0.9953,-0.9913,-1.006,-1.0234,-1.0421,-1.0221,-1.0261,-1.0488,-1.0247,-1.0114,-1.006,-1.0114,-1.0341,-1.0635,-1.0421,-1.0555,-1.0835,-1.0698,-1.0381,0.0,-1.0234,-1.0288,-1.0207,-0.9787,-0.8455,-0.7201,-0.908,-0.8914,-0.8011,-0.8241,-0.8554,-0.8872,-0.9089,-0.934,-0.9537,-0.9564,-0.9496,-0.934,-0.9042,-1.0044,-1.1376,-1.2336,-1.3843,-1.5395,-1.7041,-1.6254,-1.5561,-1.641,-1.5521,-1.5235,-1.7041,-1.7768,-1.8592,-1.996,-2.0601,-2.0446,-1.8891,-2.0093,-2.0615,-1.9407,-2.0606,-2.1443,-2.155,-2.2004,-2.2432,-2.2779,-2.2779,-2.2806,-2.2859,-2.2859,-2.2859,-2.2859,-2.2859,-2.2859,-2.2873,-2.3126,-2.3273,-2.334,-2.3581,-2.3861,-2.4128,-2.4128,-2.4262,-2.4489,-2.4543,-2.4556,-2.4569,-2.4623,-2.4636,-2.4636,0.0,0.0,0.0,0.0,0.0,0.0,0.0,-1.1462,-1.2166,-1.4002,-1.4224,-1.4063,-1.3661,-1.3366,-1.2783,0.0,0.0,0.0,0.0,0.0,0.0,-0.9005,-0.9328,-0.9466,-0.9446,-0.9937,-1.0077,-0.9686,0.0,-1.0127,-1.0114,-1.0127,-1.0207,-1.0341,-1.0207,-1.006,-0.9913,-1.0074,-1.0047,-0.99,-1.006,-1.002,-0.9873,-0.9873,-0.978,0.0,-0.9833,-0.9918,-1.0016,-1.0633,-0.9423,-0.7729,-0.8562,-0.8355,-0.7882,-0.8269,-0.8533,-0.8784,-0.9171,-0.9381,-0.949,-0.949,-0.9374,-0.9412,-0.9757,-1.0632,-1.183,-1.3042,-1.4225,-1.5388,-1.6693,-1.5531,-1.4871,-1.6655,-1.5788,-1.5592,-1.7464,-1.845,-1.9197,-2.0093,-2.0615,-2.0558,-1.9916,-2.0589,-2.0847,-2.0333,-2.1293,-2.1844,-2.1991,-2.2418,-2.2712,-2.2859,-2.2859,-2.2859,-2.2859,-2.2859,-2.2859,-2.2859,-2.2859,-2.2953,-2.3113,-2.326,-2.35,-2.3794,-2.3941,-2.4155,-2.4422,-2.4422,-2.4516,-2.4636,-2.4636,-2.4636,-2.4636,-2.4636,-2.4636,-2.4636,0.0,0.0,0.0,0.0,0.0,0.0,0.0,-1.3172,-1.3862,-1.6228,-1.7005,-1.7055,-1.6216,-1.4984,-1.3738,0.0,0.0,0.0,0.0,0.0,0.0,0.0,0.0,0.0,-0.9561,0.0,0.0,-0.9713,-1.0192,0.0,0.0,0.0,0.0,0.0,-1.0215,-0.9967,-0.9753,-0.9927,-0.9726,0.0,0.0,-0.9406,-0.9058,0.0,0.0,0.0,0.0,-0.9642,-0.9825,-1.1259,-1.0341,-0.8606,-0.8404,-0.8034,-0.7787,-0.8248,-0.8479,-0.8682,-0.9157,-0.9334,-0.9374,-0.934,-0.9245,-0.9391,-1.0075,-1.1012,-1.2139,-1.3069,-1.4192,-1.5177,-1.5872,-1.4867,-1.4667,-1.683,-1.6643,-1.6624,-1.8326,-1.9199,-1.984,-2.0187,-2.0494,-2.0664,-2.0563,-2.0909,-2.1195,-2.1085,-2.1832,-2.2271,-2.2498,-2.2739,-2.2859,-2.2859,-2.2859,-2.2859,-2.2859,-2.2859,-2.2859,-2.2859,-2.2926,-2.3086,-2.3327,-2.346,-2.3768,-2.4209,-2.4262,-2.4422,-2.4636,-2.4636,-2.4636,-2.4636,-2.4636,-2.4636,-2.4636,-2.4636,-2.4676,-2.473,0.0,0.0,0.0,0.0,0.0,0.0,0.0,-1.4525,-1.5601,-1.9134,-1.83,-1.7914,-1.9345,-1.7628,-1.5348,0.0,0.0,0.0,0.0,0.0,0.0,0.0,0.0,0.0,0.0,0.0,0.0,-0.9806,-0.9866,0.0,0.0,0.0,0.0,0.0,0.0,-0.8564,-0.8524,-0.827,0.0,0.0,0.0,0.0,0.0,0.0,0.0,0.0,0.0,-1.0013,-1.0471,-1.0196,-1.0053,-0.9905,-0.9644,-0.8834,-0.8011,-0.8065,-0.8465,-0.8906,-0.896,-0.9178,-0.9347,-0.9211,-0.9164,-0.9113,-0.8647,-1.0519,-1.2274,-1.196,-1.3597,-1.499,-1.507,-1.5179,-1.5365,-1.583,-1.6799,-1.7716,-1.841,-1.9025,-1.9613,-2.0174,-2.0494,-2.0151,-1.8872,-2.0426,-2.0968,-1.976,-2.1636,-2.2792,-2.2819,-2.2846,-2.2859,-2.2859,-2.2859,-2.2859,-2.2859,-2.2859,-2.2859,-2.2859,-2.3153,-2.33,-2.334,-2.3875,-2.4155,-2.4222,-2.4476,-2.4609,-2.4636,-2.4636,-2.4636,-2.4636,-2.4636,-2.4636,-2.4636,-2.4636,-2.481,-2.5037,0.0,0.0,0.0,0.0,0.0,0.0,-1.4063,-1.4329,-1.5409,-1.8284,-1.8811,-1.9161,-1.9808,-1.8926,-1.7057,-1.4107,0.0,0.0,0.0,0.0,0.0,0.0,0.0,0.0,0.0,0.0,-1.098,-1.012,-1.012,0.0,0.0,0.0,0.0,0.0,0.0,-0.8631,-0.8617,-0.8323,0.0,0.0,0.0,0.0,0.0,0.0,0.0,0.0,0.0,0.0,-1.0106,-1.0438,-1.0371,-1.0137,-1.022,-0.976,-0.9158,-0.8844,-0.9198,-0.9429,-0.8968,-0.9089,-0.9225,-0.9171,-0.8947,-0.9083,-1.0161,-1.0956,-1.1734,-1.261,-1.3417,-1.3908,-1.3908,-1.4148,-1.4549,-1.5204,-1.6286,-1.7328,-1.8116,-1.8731,-1.9452,-2.0388,-1.9568,-1.92,-2.0017,-2.0052,-2.0404,-2.1111,-2.2211,-2.2859,-2.2859,-2.2859,-2.2859,-2.2859,-2.2859,-2.2859,-2.2859,-2.2859,-2.2859,-2.2859,-2.318,-2.342,-2.3607,-2.4022,-2.4302,-2.4476,-2.4583,-2.4636,-2.4636,-2.4636,-2.4636,-2.4636,-2.4636,-2.4743,-2.4903,-2.4903,-2.509,-2.5344,0.0,0.0,0.0,0.0,0.0,-1.2272,-1.3653,-1.4397,-1.56,-1.7751,-1.8893,-1.9687,-2.0059,-1.9277,-1.7812,-1.5566,-1.3663,0.0,0.0,0.0,0.0,0.0,0.0,0.0,0.0,0.0,-1.1937,-1.1106,-1.1106,-1.0614,0.0,0.0,-0.9425,-0.8925,0.0,0.0,0.0,0.0,0.0,0.0,0.0,0.0,0.0,0.0,0.0,0.0,0.0,0.0,0.0,0.0,0.0,-1.0443,-1.0707,-1.0747,-1.0512,-0.9857,-0.9753,-0.9799,-0.9441,-0.9161,-0.9089,-0.9089,-0.875,-0.888,-1.0753,-1.0885,-1.1055,-1.2519,-1.2897,-1.2946,-1.2946,-1.3253,-1.3748,-1.4456,-1.5698,-1.686,-1.7662,-1.837,-1.9265,-2.0521,-1.9284,-1.9112,-2.1049,-2.045,-2.0567,-2.2364,-2.2739,-2.2859,-2.2859,-2.2859,-2.2585,-2.216,-2.2022,-2.2022,-2.2022,-2.2022,-2.2349,-2.3006,-2.3313,-2.3607,-2.3915,-2.4195,-2.4436,-2.4636,-2.4636,-2.4636,-2.4636,-2.4636,-2.4636,-2.4649,-2.473,-2.489,-2.509,-2.5184,-2.5398,-2.5638,0.0,0.0,0.0,0.0,0.0,0.0,-1.3622,-1.5068,-1.6678,-1.8467,-1.8651,-1.9141,-2.041,-1.8672,-1.7227,-1.6758,-1.4303,0.0,0.0,0.0,0.0,0.0,0.0,0.0,0.0,0.0,-1.3328,-1.3077,-1.3077,-1.2291,-1.0891,-1.0891,-1.0292,-0.9163,0.0,0.0,0.0,0.0,0.0,0.0,0.0,0.0,0.0,0.0,0.0,0.0,0.0,0.0,0.0,0.0,0.0,0.0,0.0,-1.1766,-1.2056,-1.0961,-1.0117,-0.9689,-1.0046,-0.9563,-0.894,-0.894,-0.8608,-0.8491,-0.9131,-0.9922,-1.0519,-1.0954,-1.1753,-1.2318,-1.2318,-1.2812,-1.3307,-1.3614,-1.5124,-1.6486,-1.7074,-1.7929,-1.9038,-2.0508,-2.0414,-2.0575,-2.1456,-2.1804,-2.2231,-2.2819,-2.2859,-2.2859,-2.2859,-2.2859,-2.2022,-2.019,-2.0201,-2.0201,-2.0201,-2.0201,-2.118,-2.3327,-2.3621,-2.3915,-2.4209,-2.4502,-2.4636,-2.4636,-2.4636,-2.4636,-2.4636,-2.4636,-2.4636,-2.4663,-2.4957,-2.5077,-2.5117,-2.5398,-2.5692,-2.5959,0.0,0.0,0.0,0.0,0.0,0.0,0.0,-1.2844,-1.4219,-1.5549,-1.6596,-1.793,-1.9512,-1.8047,-1.6875,-1.6675,-1.5174,0.0,0.0,0.0,0.0,0.0,0.0,0.0,0.0,-1.3516,-1.3613,-1.3834,-1.3834,-1.3368,-1.2484,-1.1931,-1.1167,-1.0292,-0.9453,-0.9058,0.0,0.0,0.0,0.0,0.0,0.0,-0.8684,0.0,0.0,0.0,0.0,0.0,0.0,0.0,0.0,0.0,0.0,0.0,0.0,-1.1723,-1.1573,-1.1222,-1.0726,-1.0556,-1.058,-1.0619,-1.0316,-0.9943,-1.0278,-1.061,-1.0739,-1.0622,-1.1175,-1.1703,-1.1703,-1.2532,-1.3373,-1.3868,-1.5418,-1.6847,-1.7649,-1.8183,-1.9038,-2.0508,-1.9738,-1.8884,-1.8426,-1.9495,-2.099,-2.2819,-2.2859,-2.2859,-2.2859,-2.1734,-2.0756,-2.0051,-2.0063,-2.0063,-2.0063,-2.0227,-2.1365,-2.334,-2.3834,-2.4115,-2.4209,-2.4502,-2.4636,-2.4636,-2.4636,-2.4756,-2.493,-2.4716,-2.4877,-2.5224,-2.5117,-2.5331,-2.5692,-2.5785,-2.5999,-2.6253,0.0,0.0,0.0,0.0,0.0,0.0,0.0,-1.1184,-1.2386,-1.3497,-1.4671,-1.6095,-1.8056,-1.6934,-1.6055,-1.623,-1.4965,0.0,0.0,0.0,0.0,0.0,0.0,0.0,-1.373,-1.4062,-1.4486,-1.5172,-1.5321,-1.5023,-1.4299,-1.3412,-1.2476,-1.1406,-1.0272,-0.9619,0.0,0.0,0.0,0.0,0.0,0.0,-0.8804,0.0,0.0,0.0,0.0,0.0,0.0,0.0,0.0,0.0,0.0,0.0,0.0,0.0,-1.2031,-1.1993,-1.1388,-1.1161,-1.1056,-1.1191,-1.0736,-1.0492,-1.0758,-1.0836,-1.0736,-1.0655,-1.105,-1.1463,-1.157,-1.2478,-1.348,-1.4282,-1.5712,-1.7021,-1.7916,-1.8397,-1.8876,-1.9479,-1.903,-1.8427,-1.7883,-1.873,-2.0307,-2.2669,-2.2859,-2.2859,-2.2859,-2.1734,-2.0479,-1.9077,-1.8369,-1.8412,-1.9212,-1.9368,-2.0828,-2.3661,-2.4022,-2.4262,-2.4369,-2.4556,-2.4636,-2.4649,-2.4756,-2.4917,0.0,-2.4997,-2.5184,-2.5504,-2.5438,-2.5638,-2.5972,-2.6079,-2.6239,-2.6386,0.0,0.0,0.0,0.0,0.0,0.0,0.0,-1.0107,-1.1267,-1.2291,-1.2849,-1.3959,-1.622,-1.5391,-1.4863,-1.5216,0.0,0.0,0.0,0.0,0.0,0.0,0.0,0.0,-1.4107,-1.4961,-1.582,-1.6777,-1.7187,-1.6968,-1.6218,-1.5291,-1.4044,-1.2527,-1.1291,-1.037,-0.9593,-0.8764,-0.8564,-0.8778,-0.851,-0.8564,0.0,0.0,0.0,0.0,0.0,0.0,0.0,0.0,0.0,0.0,0.0,0.0,0.0,0.0,0.0,0.0,0.0,-1.1377,-1.0847,-1.0847,-1.0484,-1.0408,-1.0913,-1.0766,0.0,-1.0953,-1.118,-1.1514,-1.1904,-1.2679,-1.3654,-1.4803,-1.5979,-1.6945,-1.7701,-1.8374,-1.848,-1.7655,-1.8279,-1.8839,-1.9119,-1.9276,-2.0172,-2.2532,-2.2859,-2.2859,-2.2859,-2.2722,-2.1032,-1.7248,-1.5434,-1.5533,-1.7725,-1.7745,-1.9858,-2.4209,-2.4222,-2.4382,-2.4636,-2.4636,-2.4636,-2.4649,-2.4957,-2.509,-2.513,-2.5398,-2.5545,-2.5598,-2.5852,-2.5972,-2.6026,-2.6293,-2.6386,-2.6386,0.0,0.0,0.0,0.0,0.0,0.0,0.0,0.0,0.0,0.0,-1.2244,-1.346,-1.4387,-1.4103,-1.3753,0.0,0.0,0.0,0.0,0.0,0.0,0.0,0.0,0.0,-1.4609,-1.4824,-1.5684,-1.7227,-1.7344,-1.7473,-1.7581,-1.7037,-1.5844,-1.4077,-1.2749,-1.1099,-0.9312,-0.8884,-0.8751,-0.8804,-0.8738,-0.8751,0.0,0.0,0.0,0.0,-0.8804,-0.9045,0.0,0.0,0.0,0.0,0.0,0.0,0.0,0.0,-1.1356,-1.1673,-1.187,0.0,-1.2928,-1.2928,-1.2779,-1.2618,0.0,-1.1338,-1.0883,-1.1079,-1.0947,-1.1205,-1.2645,-1.344,-1.4188,-1.5137,-1.6286,-1.686,-1.6284,-1.7353,-1.8022,-1.7591,-1.6965,-1.6802,-1.7223,-1.7389,-1.8394,-2.0581,-2.216,-2.2859,-2.2859,-2.1596,-1.9634,-1.7248,-1.5569,-1.5678,-1.7725,-1.7898,-2.0027,-2.4209,-2.4422,-2.4569,-2.4636,-2.4636,-2.4636,-2.4649,-2.4957,-2.5211,-2.5411,-2.5478,-2.5785,-2.6172,-2.6012,-2.6092,-2.6293,-2.636,-2.6386,-2.6386,0.0,0.0,0.0,0.0,0.0,0.0,0.0,0.0,0.0,0.0,0.0,-1.2396,-1.3287,-1.2997,0.0,0.0,0.0,0.0,0.0,0.0,0.0,0.0,0.0,-1.4394,-1.5059,-1.5664,-1.6543,-1.7676,-1.7871,-1.7889,-1.7868,-1.7458,-1.6509,-1.5056,-1.3184,-1.1326,-0.9593,-0.8898,-0.8684,-0.8791,-0.8657,0.0,0.0,0.0,0.0,0.0,-0.8804,-0.8991,0.0,-0.99,-1.0194,-1.0394,0.0,0.0,0.0,0.0,-1.0995,-1.1263,-1.1423,-1.2238,-1.3066,-1.32,-1.3227,-1.3068,-1.2578,-1.2101,-1.1775,-1.1727,-1.1789,-1.2157,-1.316,-1.3604,-1.433,-1.5963,-1.5919,-1.5787,-1.6433,-1.7946,-1.8655,-1.7901,-1.6701,-1.6206,-1.655,-1.6807,-1.7833,-1.9889,-2.1872,-2.2859,-2.2859,-2.1183,-1.9217,-1.7248,-1.5623,-1.5334,-1.644,-1.7653,-1.9801,-2.305,-2.4101,-2.4636,-2.4636,-2.4636,-2.4716,-2.4863,-2.5144,-2.5451,-2.5732,-2.5865,-2.6106,-2.6373,-2.6213,-2.6253,-2.6386,-2.6386,-2.6386,-2.6386,0.0,0.0,0.0,0.0,0.0,0.0,0.0,0.0,0.0,0.0,0.0,0.0,0.0,0.0,0.0,0.0,0.0,0.0,0.0,0.0,0.0,0.0,-1.4031,-1.5137,-1.5703,-1.6816,-1.7695,-1.8301,-1.8498,-1.8394,-1.7961,-1.7543,-1.665,-1.5324,-1.2891,-1.1171,-1.0047,-0.8925,-0.8577,-0.8791,-0.8537,0.0,0.0,0.0,0.0,0.0,0.0,0.0,0.0,-1.0087,-1.0456,-1.0514,-1.1062,0.0,0.0,0.0,0.0,0.0,-1.1062,-1.173,-1.2492,-1.2768,-1.2889,-1.297,-1.3024,-1.2908,-1.2777,-1.2692,-1.2923,-1.3261,-1.3626,-1.3725,-1.4558,-1.66,-1.5217,-1.4541,-1.6754,-1.8434,-1.9085,-1.7839,-1.6764,-1.6072,-1.6155,-1.6646,-1.7696,-1.9472,-2.1734,-2.2859,-2.2859,-2.1183,-1.9217,-1.7248,-1.565,-1.4838,-1.5138,-1.724,-1.9393,-2.1601,-2.3574,-2.4636,-2.4636,-2.469,-2.4836,-2.5104,-2.5438,-2.5718,-2.5972,-2.6266,-2.6386,-2.6386,-2.6386,-2.6386,-2.6386,-2.6386,-2.6386,-2.6386,0.0,0.0,0.0,0.0,0.0,0.0,0.0,0.0,0.0,0.0,0.0,0.0,0.0,0.0,0.0,0.0,0.0,0.0,0.0,0.0,0.0,-1.2168,-1.4166,-1.5879,-1.7051,-1.7285,-1.8125,-1.9629,-1.8874,-1.8708,-1.9102,-1.8379,-1.6782,-1.4454,-1.1931,-1.0581,-1.006,-0.9125,-0.8764,-0.8804,-0.8764,0.0,0.0,0.0,0.0,0.0,0.0,0.0,0.0,-0.9312,-0.9606,-0.9873,-1.0207,0.0,0.0,0.0,0.0,0.0,-1.1356,-1.2198,-1.3013,-1.2876,-1.3133,-1.3574,-1.3828,-1.3366,-1.3077,-1.4005,-1.366,-1.3369,-1.3802,-1.4771,-1.5575,-1.5827,-1.4906,-1.4366,-1.5093,-1.5729,-1.6096,-1.5939,-1.5984,-1.5672,-1.4402,-1.5961,-1.7144,-1.7658,-2.0894,-2.2859,-2.2859,-2.1183,-1.9217,-1.7248,-1.5632,-1.4956,-1.5138,-1.724,-1.9393,-2.1601,-2.3574,-2.4636,-2.4649,-2.4903,-2.5037,-2.5104,-2.5651,-2.5919,-2.5972,-2.6266,-2.6386,-2.6386,-2.6386,-2.6386,-2.6386,-2.6386,-2.6386,-2.6386,0.0,0.0,0.0,0.0,0.0,0.0,0.0,0.0,0.0,0.0,0.0,0.0,0.0,0.0,0.0,0.0,0.0,0.0,0.0,0.0,-1.2226,-1.3118,-1.5042,-1.6406,-1.7012,-1.709,-1.7657,-1.8822,-1.8238,-1.7896,-1.7717,-1.6896,-1.5694,-1.4186,-1.256,-1.1283,-1.0314,-0.9593,-0.9098,-0.8804,0.0,0.0,0.0,0.0,0.0,0.0,0.0,0.0,0.0,0.0,-0.9566,-0.9766,-1.0221,0.0,0.0,0.0,0.0,0.0,-1.1383,-1.2064,-1.2799,-1.3146,-1.3208,-1.3311,-1.373,-1.2986,-1.251,-1.3829,-1.3848,-1.3835,-1.4162,-1.4402,-1.3965,-1.2735,-1.3575,-1.436,-1.3834,-1.5546,-1.6653,-1.587,-1.6024,-1.5663,-1.4002,-1.5791,-1.7137,-1.7248,-2.0756,-2.2859,-2.2859,-2.0051,-1.8089,-1.7248,-1.465,-1.3964,-1.5138,-1.7356,-1.9522,-2.1601,-2.3877,-2.4877,-2.489,-2.5184,-2.5398,-2.5571,-2.5838,-2.6052,-2.6199,-2.6333,-2.6386,-2.6386,-2.6386,-2.6386,-2.6386,-2.6386,-2.6386,-2.6386,0.0,0.0,0.0,0.0,0.0,0.0,0.0,0.0,0.0,0.0,0.0,0.0,0.0,0.0,0.0,0.0,0.0,0.0,0.0,-1.0872,-1.2529,-1.3492,-1.547,-1.6767,-1.713,-1.7207,-1.7541,-1.8244,-1.7819,-1.714,-1.6166,-1.5387,-1.4547,-1.3826,-1.3009,-1.1931,-1.0685,-0.9967,-0.9379,-0.8898,0.0,0.0,0.0,0.0,0.0,0.0,0.0,0.0,0.0,0.0,0.0,0.0,0.0,0.0,0.0,-1.0808,-1.0995,-1.1156,-1.145,-1.2064,-1.2852,-1.3814,-1.3573,-1.3294,-1.3646,-1.2943,-1.2397,-1.3182,-1.3612,-1.3959,-1.4289,-1.3936,-1.2955,-1.1137,-1.2699,-1.3901,-1.3,-1.5574,-1.707,-1.6022,-1.6175,-1.576,-1.4011,-1.5459,-1.6685,-1.7107,-2.0328,-2.2435,-2.2859,-1.9217,-1.7278,-1.7329,-1.3953,-1.3252,-1.5789,-1.7679,-1.9714,-2.1684,-2.4044,-2.5117,-2.5197,-2.5478,-2.5745,-2.5959,-2.6026,-2.6186,-2.6386,-2.6386,-2.6386,-2.6386,-2.6386,-2.6386,-2.6386,-2.6386,-2.6386,-2.6386,0.0,0.0,0.0,0.0,0.0,0.0,0.0,0.0,0.0,0.0,0.0,0.0,0.0,0.0,0.0,0.0,0.0,0.0,0.0,-1.0872,-1.2136,-1.2203,-1.4725,-1.6874,-1.8554,-1.8443,-1.8645,-1.9208,-1.8529,-1.728,-1.5443,-1.4825,-1.3924,-1.2871,-1.2249,-1.1585,-1.0902,-1.0047,-0.9499,-0.9137,-0.8911,0.0,0.0,0.0,0.0,0.0,0.0,0.0,0.0,0.0,0.0,0.0,0.0,0.0,-1.0207,-1.0501,-1.0969,-1.1463,-1.1757,-1.2679,-1.3828,-1.4977,-1.4821,-1.4308,-1.3928,-1.4036,-1.3779,-1.2547,-1.2575,-1.3048,-1.3507,-1.4093,-1.436,-1.3956,-1.3093,-1.2687,-1.2875,-1.4566,-1.5915,-1.5883,-1.6175,-1.576,-1.4011,-1.4352,-1.5274,-1.7107,-1.9077,-2.1044,-2.2859,-1.9217,-1.7339,-1.7398,-1.4016,-1.4042,-1.805,-1.8653,-1.9949,-2.1954,-2.4134,-2.5224,-2.5491,-2.5785,-2.5932,-2.5972,-2.6239,-2.6373,-2.6386,-2.6386,-2.6386,-2.6386,-2.6386,-2.6386,-2.6386,-2.6386,-2.6386,-2.6386,0.0,0.0,0.0,0.0,0.0,0.0,0.0,0.0,0.0,0.0,0.0,0.0,0.0,0.0,0.0,0.0,0.0,0.0,0.0,-1.109,-1.2304,-1.2756,-1.443,-1.5819,-1.6782,-1.7155,-1.7604,-1.8025,-1.7366,-1.6361,-1.511,-1.4522,-1.3707,-1.2808,-1.2593,-1.1891,-1.0955,-1.0448,-0.9846,-0.9163,-0.8925,-0.8804,0.0,0.0,0.0,0.0,0.0,0.0,0.0,0.0,-0.8884,-0.9058,-0.9539,-0.9753,-0.998,-1.0635,-1.1249,-1.181,-1.2291,-1.2628,-1.3274,-1.514,-1.4961,-1.4112,-1.3659,-1.2956,-1.2529,-1.283,-1.2384,-1.2402,-1.3735,-1.2675,-1.2004,-1.2888,-1.2012,-1.1492,-1.2783,-1.4629,-1.5822,-1.5903,-1.6175,-1.576,-1.4011,-1.5181,-1.6404,-1.7107,-2.0051,-2.216,-2.2859,-1.9217,-1.7349,-1.7418,-1.4024,-1.405,-1.8218,-1.8825,-2.0671,-2.4252,-2.5212,-2.5678,-2.5798,-2.6092,-2.6226,-2.6226,-2.6346,-2.6386,-2.6386,-2.6386,-2.6386,-2.6386,-2.6386,-2.6386,-2.6386,-2.6386,-2.6386,-2.6386,0.0,0.0,0.0,0.0,0.0,0.0,0.0,0.0,0.0,0.0,0.0,0.0,0.0,0.0,0.0,0.0,0.0,0.0,-0.9458,-1.0872,-1.1955,-1.2554,-1.3905,-1.4813,-1.5203,-1.5832,-1.6405,-1.6842,-1.6224,-1.5458,-1.4669,-1.4082,-1.348,-1.2879,-1.2674,-1.2096,-1.1236,-1.0768,-1.01,-0.9352,-0.9058,-0.8884,0.0,0.0,0.0,0.0,0.0,0.0,0.0,0.0,-0.8804,-0.8911,-0.9499,-0.9686,-0.986,-1.0728,-1.1253,-1.1575,-1.212,-1.2409,-1.2858,-1.4291,-1.4398,-1.3881,-1.2891,-1.2275,-1.1921,-1.2144,-1.2248,-1.2605,-1.3381,-1.2466,-1.1701,-1.2242,-1.1173,-1.1209,-1.3523,-1.5,-1.6302,-1.7474,-1.6838,-1.5895,-1.4683,-1.505,-1.599,-1.7107,-1.9634,-2.1596,-2.2859,-1.9217,-1.7238,-1.7529,-1.4048,-1.4097,-1.8431,-1.8968,-2.1299,-2.5651,-2.5945,-2.6092,-2.6106,-2.6306,-2.6386,-2.6386,-2.6386,-2.6386,-2.6386,-2.6386,-2.6386,-2.6386,-2.6386,-2.6386,-2.6386,-2.6386,-2.6386,-2.6386,0.0,0.0,0.0,0.0,0.0,0.0,0.0,0.0,-0.9497,-0.9761,-0.9806,0.0,0.0,0.0,0.0,0.0,0.0,0.0,-0.8778,-1.0103,-1.1042,-1.1256,-1.3108,-1.4029,-1.3991,-1.4717,-1.5347,-1.5818,-1.5244,-1.4669,-1.4068,-1.3494,-1.3213,-1.316,-1.2278,-1.1877,-1.1797,-1.0994,-1.0221,-0.9659,-0.9365,-0.9072,-0.8804,0.0,0.0,0.0,0.0,0.0,0.0,0.0,-0.8804,-0.8911,-0.9499,-0.9686,-0.986,-1.0728,-1.0802,-1.0684,-1.1101,-1.1992,-1.2755,-1.2309,-1.3254,-1.3724,-1.1797,-1.2376,-1.2608,-1.0126,-1.2173,-1.3986,-1.2414,-1.3526,-1.4081,-1.2593,-1.1173,-1.1591,-1.5169,-1.5772,-1.7205,-2.0716,-1.8301,-1.6435,-1.6435,-1.3528,-1.3174,-1.6977,-1.7258,-1.8938,-2.2722,-1.9217,-1.7308,-1.7759,-1.412,-1.4366,-1.8896,-1.9274,-2.1703,-2.5959,-2.6253,-2.6386,-2.6386,-2.6386,-2.6386,-2.6386,-2.6386,-2.6386,-2.6386,-2.6386,-2.6386,-2.6386,-2.6386,-2.6386,-2.6386,-2.6386,-2.6386,-2.6386,0.0,0.0,0.0,0.0,0.0,0.0,0.0,0.0,-0.8456,-0.876,-0.8608,0.0,0.0,0.0,0.0,0.0,0.0,0.0,-0.9177,-1.009,-1.071,-1.087,-1.1676,-1.2223,-1.2539,-1.3383,-1.4282,-1.5217,-1.5257,-1.475,-1.3774,-1.3814,-1.3267,-1.2278,-1.2499,-1.2024,-1.1223,-1.0819,-1.0221,-0.9673,-0.9593,-0.9245,-0.8831,0.0,0.0,0.0,0.0,0.0,0.0,0.0,0.0,0.0,-0.9192,-0.9659,-1.0087,-1.0555,-1.1527,-1.2527,-1.3092,-1.3464,-1.378,-1.405,-1.375,-1.2989,-1.1699,-1.2579,-1.3117,-1.1427,-1.2867,-1.3859,-1.2414,-1.2682,-1.2961,-1.2657,-1.1337,-1.1759,-1.5267,-1.5873,-1.7205,-2.0716,-1.8301,-1.6435,-1.6435,-1.4623,-1.4574,-1.6967,-1.8508,-2.0328,-2.2722,-1.9217,-1.7388,-1.7832,-1.4153,-1.4404,-1.9128,-1.9518,-2.1727,-2.5959,-2.6253,-2.6386,-2.6386,-2.6386,-2.6386,-2.6386,-2.6386,-2.6386,-2.6386,-2.6386,-2.6386,-2.6386,-2.6386,-2.6386,-2.6386,-2.6386,-2.6386,-2.6386,0.0,0.0,0.0,0.0,0.0,0.0,-0.7486,-0.7629,-0.7856,-0.8163,-0.8043,-0.8003,0.0,0.0,0.0,-0.7875,-0.7976,-0.8304,-0.8983,-0.9524,-0.9947,-1.0279,-1.0651,-1.1045,-1.1503,-1.2625,-1.3494,-1.4166,-1.4255,-1.3975,-1.3293,-1.3467,-1.3146,-1.2412,-1.2714,-1.2291,-1.149,-1.1076,-1.0501,-0.986,-0.998,-0.9606,-0.9005,0.0,0.0,0.0,0.0,0.0,0.0,0.0,0.0,0.0,-0.9058,-0.9646,-1.0164,-1.0484,-1.1286,-1.2169,-1.2969,-1.298,-1.2823,-1.3288,-1.2803,-1.2192,-1.1684,-1.1936,-1.2138,-1.2023,-1.3221,-1.3966,-1.2431,-1.2847,-1.304,-1.187,-1.1027,-1.1698,-1.5365,-1.5913,-1.7205,-2.0716,-1.8301,-1.6435,-1.6435,-1.4492,-1.4432,-1.6967,-1.8229,-2.0051,-2.2722,-2.0051,-1.8275,-1.7931,-1.4977,-1.5267,-1.9361,-1.9661,-2.1851,-2.6132,-2.6306,-2.6386,-2.6386,-2.6386,-2.6386,-2.6386,-2.6386,-2.6386,-2.6386,-2.6386,-2.6386,-2.6386,-2.6386,-2.6386,-2.6386,-2.6386,-2.6386,-2.6386,0.0,0.0,0.0,0.0,0.0,0.0,-0.7432,-0.7473,-0.7535,-0.7842,-0.7822,-0.7809,0.0,0.0,0.0,-0.7769,-0.7615,-0.7755,-0.8297,-0.8604,-0.9031,-0.9619,-0.994,-1.0394,-1.0982,-1.2345,-1.2933,-1.2782,-1.2862,-1.2876,-1.2822,-1.2876,-1.2919,-1.308,-1.2826,-1.2545,-1.2225,-1.1637,-1.0889,-1.014,-1.0448,-1.002,-0.9176,-0.9526,0.0,0.0,0.0,0.0,0.0,0.0,0.0,0.0,-0.8991,-0.9619,-1.021,-1.051,-1.0574,-1.08,-1.1612,-1.1503,-1.1112,-1.1084,-1.1065,-1.1078,-1.1653,-1.0913,-1.0415,-1.2072,-1.3636,-1.4252,-1.2595,-1.3593,-1.3797,-1.0777,-1.0548,-1.1972,-1.5365,-1.6043,-1.7334,-2.0716,-1.8301,-1.6435,-1.6435,-1.3528,-1.3174,-1.6977,-1.7248,-1.8927,-2.2722,-2.1183,-1.9424,-1.7961,-1.6337,-1.687,-1.9753,-1.9923,-2.2111,-2.6386,-2.6386,-2.6386,-2.6386,-2.6386,-2.6386,-2.6386,-2.6386,-2.6386,-2.6386,-2.6386,-2.6386,-2.6386,-2.6386,-2.6386,-2.6386,-2.6386,-2.6386,-2.6386,0.0,0.0,0.0,0.0,0.0,0.0,-0.7108,-0.7121,-0.7228,-0.7522,-0.7361,-0.7308,-0.7535,-0.7295,0.0,-0.7171,-0.7375,-0.7629,-0.8003,-0.8297,-0.8724,-0.9312,-0.9833,-1.0394,-1.0982,-1.153,-1.1997,-1.2398,-1.3106,-1.3213,-1.2835,-1.3227,-1.2986,-1.2171,-1.2331,-1.2238,-1.1917,-1.1329,-1.0715,-1.014,-1.0448,-0.99,-0.8938,-0.9218,-0.8938,0.0,0.0,0.0,0.0,0.0,0.0,0.0,-0.8444,-0.9432,-1.0541,-1.0587,-1.198,-1.3434,-1.2723,-1.3391,-1.3783,-1.1704,-1.0555,-1.0259,-1.1749,-1.1952,-1.2055,-1.3429,-1.5173,-1.5601,-1.2891,-1.3815,-1.401,-1.0927,-1.1728,-1.3404,-1.5644,-1.7076,-1.8768,-2.0856,-1.8301,-1.6435,-1.6435,-1.3528,-1.3174,-1.6977,-1.7248,-1.8927,-2.2722,-2.1183,-1.9491,-1.817,-1.7898,-1.8463,-1.9826,-2.1607,-2.3731,-2.6386,-2.6386,-2.6386,-2.6386,-2.6386,-2.6386,-2.6386,-2.6386,-2.6386,-2.6386,-2.6386,-2.6386,-2.6386,-2.6386,-2.6386,-2.6386,-2.6386,-2.6386,-2.6386,0.0,0.0,0.0,0.0,0.0,0.0,0.0,0.0,-0.7241,-0.7255,-0.7121,-0.7081,-0.7241,-0.7121,0.0,0.0,-0.7161,-0.7388,-0.7682,-0.7989,-0.8417,-0.9005,-0.9593,-0.998,-1.0154,-1.0848,-1.1369,-1.1677,-1.2425,-1.2639,-1.2345,-1.3093,-1.2879,-1.1904,-1.2625,-1.2625,-1.2051,-1.1744,-1.1196,-1.0555,-1.0701,-1.0154,-0.9259,-0.9552,-0.9205,-0.8564,-0.8404,0.0,0.0,0.0,0.0,0.0,0.0,0.0,-1.0177,-1.0392,-1.1563,-1.2735,-1.2461,-1.2463,-1.2211,-1.0707,-1.0585,-1.1051,-1.1935,-1.3407,-1.4677,-1.5375,-1.6283,-1.6324,-1.4032,-1.4365,-1.395,-1.0977,-1.2042,-1.397,-1.5654,-1.7345,-1.9164,-2.0856,-1.8301,-1.6435,-1.6435,-1.4352,-1.4156,-1.6977,-1.8089,-1.997,-2.2935,-2.1257,-1.9569,-1.8389,-1.7416,-1.7922,-1.9897,-2.1039,-2.314,-2.6386,-2.6386,-2.6386,-2.6386,-2.6386,-2.6386,-2.6386,-2.6386,-2.6386,-2.6386,-2.6386,-2.6386,-2.6386,-2.6386,-2.6386,-2.6386,-2.6386,-2.6386,-2.6386,0.0,0.0,0.0,0.0,0.0,0.0,0.0,0.0,0.0,-0.7054,-0.6985,-0.6985,-0.6985,-0.6985,-0.6985,0.0,0.0,0.0,-0.7486,-0.7762,-0.8176,-0.8711,-0.9245,-0.9446,-0.919,-1.0341,-1.0915,-1.0915,-1.1503,-1.1824,-1.1891,-1.2679,-1.2599,-1.1837,-1.2879,-1.2946,-1.2305,-1.2251,-1.1784,-1.1062,-1.1062,-1.0568,-0.986,-1.01,-0.9713,-0.9031,-0.8978,-0.8577,-0.8029,-0.7722,0.0,0.0,0.0,0.0,-0.9806,-1.0137,-1.0789,-1.1509,-1.1898,-1.1125,-0.9981,-0.9602,-1.0575,-1.1786,-1.2414,-1.4708,-1.6727,-1.7325,-1.7244,-1.6629,-1.5054,-1.4785,-1.3753,-1.102,-1.2319,-1.4232,-1.5654,-1.7602,-1.9419,-2.0982,-1.8565,-1.6705,-1.6435,-1.5459,-1.5557,-1.7107,-1.8938,-2.1028,-2.3174,-2.1659,-1.9968,-1.8712,-1.7195,-1.7492,-1.9897,-2.0231,-2.2499,-2.6386,-2.6386,-2.6386,-2.6386,-2.6386,-2.6386,-2.6386,-2.6386,-2.6386,-2.6386,-2.6386,-2.6386,-2.6386,-2.6386,-2.6386,-2.6386,-2.6386,-2.6386,-2.6386,0.0,0.0,0.0,0.0,0.0,0.0,0.0,0.0,0.0,0.0,-0.6985,-0.6985,-0.6985,-0.6985,-0.6985,-0.6985,-0.6985,-0.7148,-0.7486,0.0,0.0,-0.8417,-0.8751,-0.9018,-0.9176,-1.014,-1.0685,-1.0685,-1.1196,-1.1623,-1.1877,-1.2251,-1.2091,-1.1503,-1.1917,-1.2184,-1.2278,-1.2037,-1.1717,-1.1369,-1.1369,-1.0995,-1.051,-1.0551,-1.0274,-0.9913,-0.9659,-0.9192,-0.8644,-0.835,-0.8306,0.0,0.0,0.0,-1.0093,-1.0456,-1.1644,-1.29,-1.2698,-1.2025,-1.0972,-0.987,-0.9806,-1.0868,-1.3636,-1.4599,-1.5666,-1.8532,-1.8121,-1.6771,-1.5289,-1.4014,-1.2693,-1.0927,-1.3439,-1.5654,-1.5913,-1.864,-2.0843,-2.1109,-1.9768,-1.8206,-1.657,-1.6708,-1.6967,-1.7107,-1.8938,-2.1028,-2.3174,-2.3007,-2.1618,-1.8712,-2.0102,-2.0602,-1.9897,-2.1684,-2.3952,-2.6386,-2.6386,-2.6386,-2.6386,-2.6386,-2.6386,-2.6386,-2.6386,-2.6386,-2.6386,-2.6386,-2.6386,-2.6386,-2.6386,-2.6386,-2.6386,-2.6386,-2.6386,-2.6386,0.0,0.0,0.0,0.0,0.0,0.0,0.0,0.0,0.0,0.0,0.0,-0.6985,-0.6985,-0.6985,-0.6985,-0.6985,-0.6985,-0.7148,-0.7486,-0.7589,-0.7802,-0.811,-0.8243,-0.8377,-0.8459,-0.9365,-0.974,-0.9579,-1.0822,-1.141,-1.1396,-1.2011,-1.2158,-1.1917,-1.1877,-1.2037,-1.2291,-1.2171,-1.2037,-1.1917,-1.1917,-1.1864,-1.1814,-1.1491,-1.1423,-1.153,-1.1076,-1.0528,-0.994,-0.9312,-0.8884,-0.8591,-0.843,0.0,0.0,0.0,-1.1343,-1.2069,-1.1706,-1.1042,-1.0381,-0.9701,-1.0918,-1.2651,-1.4193,-1.6031,-1.7689,-1.9127,-1.7542,-1.5761,-1.5112,-1.3807,-1.2726,-1.2258,-1.4232,-1.6302,-1.7205,-1.9546,-2.1109,-2.1109,-1.9101,-1.7255,-1.6435,-1.5876,-1.6169,-1.743,-1.9156,-2.1151,-2.3638,-2.2486,-2.0834,-1.8892,-1.8503,-1.8916,-1.9907,-2.0878,-2.298,-2.6386,-2.6386,-2.6386,-2.6386,-2.6386,-2.6386,-2.6386,-2.6386,-2.6386,-2.6386,-2.6386,-2.6386,-2.6386,-2.6386,-2.6386,-2.6386,-2.6386,-2.6386,-2.6386,0.0,0.0,0.0,0.0,0.0,0.0,0.0,0.0,0.0,0.0,0.0,-0.6985,-0.6985,0.0,0.0,0.0,-0.6985,-0.7121,-0.7335,-0.7348,-0.7455,-0.7649,-0.7776,-0.7816,-0.7816,-0.8604,-0.8951,-0.8804,-1.0194,-1.0995,-1.1223,-1.181,-1.2278,-1.2625,-1.2171,-1.2011,-1.2091,-1.2318,-1.2412,-1.2425,-1.2585,-1.2772,-1.2933,-1.2572,-1.2705,-1.3091,-1.2425,-1.1877,-1.1303,-1.0421,-0.9793,-0.9299,-0.8938,-0.9165,0.0,0.0,0.0,-1.1675,-1.1003,-1.0744,-1.0595,-0.9758,-1.1699,-1.4086,-1.4488,-1.6856,-1.879,-1.8855,-1.6771,-1.4814,-1.45,-1.3335,-1.2523,-1.3168,-1.4754,-1.656,-1.8244,-1.9941,-2.1109,-2.1109,-1.9221,-1.7389,-1.6435,-1.6015,-1.6207,-1.6855,-1.8986,-2.1181,-2.3259,-2.2169,-2.0715,-1.9033,-1.752,-1.7399,-1.9085,-2.0231,-2.2659,-2.6386,-2.6386,-2.6386,-2.6386,-2.6386,-2.6386,-2.6386,-2.574,-2.5898,-2.6386,-2.574,-2.5898,-2.6386,-2.6386,-2.6386,-2.6386,-2.6386,-2.6386,-2.6386,0.0,0.0,0.0,0.0,0.0,0.0,0.0,0.0,0.0,0.0,0.0,-0.6985,-0.6985,-0.6985,-0.6985,-0.6985,-0.6985,-0.6985,-0.7041,-0.7041,-0.7054,-0.7025,-0.7335,0.0,-0.754,-0.8145,-0.855,-0.8804,-0.9123,-1.0207,-1.1824,-1.1583,-1.2225,-1.3534,-1.2665,-1.1971,-1.153,-1.2371,-1.2795,-1.2849,-1.3347,-1.3506,-1.3627,-1.3881,-1.3988,-1.3935,-1.336,-1.2933,-1.2593,-1.1637,-1.1129,-1.0782,-1.0207,-1.0234,-1.0564,0.0,0.0,0.0,-1.1746,-1.2383,-1.2747,-1.0501,-1.1639,-1.3556,-1.4555,-1.602,-1.7162,-1.7398,-1.6013,-1.4392,-1.3108,-1.166,-1.1365,-1.3062,-1.4754,-1.656,-1.8244,-1.9941,-2.1109,-2.1109,-2.15,-2.0352,-1.6705,-1.8501,-1.8466,-1.5136,-1.8286,-2.0793,-2.1337,-2.298,-2.2447,-1.9043,-1.8896,-1.8163,-1.6811,-2.0867,-2.4111,-2.6386,-2.6386,-2.6386,-2.6386,-2.6386,-2.6386,-2.6228,-2.4111,-2.4442,-2.6228,-2.4111,-2.4442,-2.6386,-2.6386,-2.6386,-2.6386,-2.6386,-2.6386,-2.6386,0.0,0.0,0.0,0.0,0.0,0.0,0.0,0.0,0.0,0.0,0.0,0.0,0.0,-0.7556,-0.7522,-0.7321,-0.7134,-0.6985,-0.6985,-0.6985,-0.6985,-0.6985,-0.7121,-0.7174,-0.7174,-0.7776,-0.8136,-0.8243,-0.9112,-0.994,-1.0755,-1.141,-1.1891,-1.2211,-1.2091,-1.2011,-1.1997,-1.2131,-1.2291,-1.2545,-1.3534,-1.4269,-1.4776,-1.4883,-1.5164,-1.5338,-1.4022,-1.366,-1.3583,-1.1744,-1.1476,-1.1663,-1.0701,-1.0474,-1.0658,-1.0782,-1.1557,-1.2231,-1.1653,-1.2088,-1.2543,-1.1668,-1.3199,-1.5143,-1.5568,-1.7086,-1.8557,-1.866,-1.6635,-1.4617,-1.4222,-1.3097,-1.28,-1.4725,-1.6431,-1.8116,-1.9941,-2.0716,-2.1109,-2.1109,-1.9495,-1.7927,-1.657,-1.5429,-1.483,-1.488,-1.7349,-1.9591,-2.1437,-2.3254,-2.2633,-1.9043,-1.9063,-1.8966,-1.876,-2.1684,-2.4271,-2.6386,-2.6386,-2.6386,-2.6386,-2.6386,-2.5581,-2.4271,-2.346,-2.4442,-2.6386,-2.5568,-2.574,-2.6386,-2.6386,-2.6386,-2.6386,-2.6386,-2.6386,-2.6386,0.0,0.0,0.0,0.0,0.0,0.0,0.0,0.0,-0.8083,-0.8083,0.0,0.0,0.0,0.0,-0.7842,-0.7642,-0.7348,-0.7174,-0.7174,-0.7081,-0.6985,-0.6985,-0.6985,-0.6985,-0.6985,-0.7321,-0.7575,-0.7776,-0.8564,-0.9299,-0.9993,-1.0875,-1.1329,-1.1436,-1.1637,-1.1824,-1.2011,-1.2011,-1.2131,-1.2412,-1.3707,-1.4576,-1.5137,-1.5431,-1.5845,-1.6025,-1.4172,-1.3884,-1.4097,-1.1771,-1.1444,-1.187,-1.1106,-1.0963,-1.1062,-1.1343,-1.157,-1.1729,-1.1915,-1.2194,-1.2498,-1.2268,-1.4197,-1.6184,-1.6074,-1.7818,-1.9179,-1.8158,-1.6264,-1.4416,-1.359,-1.3187,-1.3589,-1.5594,-1.7345,-1.9152,-2.0856,-2.1109,-2.1109,-2.1109,-1.9567,-1.7912,-1.6546,-1.4893,-1.3861,-1.4191,-1.6545,-1.8769,-2.0519,-2.294,-2.2719,-1.9053,-1.7789,-1.8003,-1.9907,-2.1362,-2.3472,-2.6386,-2.6386,-2.6386,-2.6386,-2.6386,-2.5251,-2.314,-2.314,-2.3952,-2.5251,-2.5251,-2.574,-2.6386,-2.6386,-2.6386,-2.6386,-2.6386,-2.6386,-2.6386,0.0,0.0,0.0,0.0,0.0,0.0,-0.835,-0.8417,-0.8417,-0.8417,0.0,0.0,0.0,0.0,0.0,-0.7928,-0.7623,-0.7482,-0.7468,-0.7188,-0.6985,-0.6985,-0.6985,-0.6985,-0.6985,-0.6747,-0.688,-0.7513,-0.7527,-0.8266,-0.9646,-0.9967,-1.0555,-1.1369,-1.141,-1.1423,-1.145,-1.2051,-1.2291,-1.2412,-1.3921,-1.4449,-1.4555,-1.5431,-1.5963,-1.5953,-1.3838,-1.3659,-1.3959,-1.1783,-1.1202,-1.1345,-1.1466,-1.1719,-1.1957,-1.2211,-1.1891,-1.1637,0.0,0.0,0.0,-1.2498,-1.4571,-1.6623,-1.6054,-1.7792,-1.8672,-1.5873,-1.4902,-1.3797,-1.0973,-1.1643,-1.343,-1.5683,-1.7334,-1.9152,-2.0716,-2.1109,-2.1109,-2.1122,-2.1753,-2.0761,-1.6924,-1.7235,-1.6241,-1.2581,-1.6011,-1.833,-1.8562,-2.2372,-2.2765,-1.9053,-1.5333,-1.5522,-1.9745,-1.9745,-2.2006,-2.6228,-2.6228,-2.6386,-2.6386,-2.6386,-2.5092,-2.298,-2.298,-2.298,-2.298,-2.314,-2.443,-2.6386,-2.6386,-2.6386,-2.6386,-2.6386,-2.6386,-2.6386,0.0,0.0,0.0,0.0,0.0,-0.8591,-0.8671,-0.9232,-0.9552,0.0,0.0,0.0,-0.9232,-0.8438,-0.7937,-0.8123,-0.735,-0.6801,-0.6702,-0.6873,-0.6985,-0.6985,-0.6985,-0.6985,-0.6985,-0.6947,-0.7081,-0.7513,-0.7695,-0.8123,-0.8751,-0.9472,-0.994,-1.0207,-1.1049,-1.1316,-1.1169,-1.1957,-1.2051,-1.185,-1.3988,-1.4308,-1.3576,-1.4751,-1.4781,-1.3965,-1.2335,-1.2413,-1.2916,-1.1028,-1.1387,-1.2488,-1.2437,-1.2596,-1.2732,-1.2158,-1.2024,-1.2118,-1.2358,0.0,0.0,0.0,0.0,0.0,-1.7015,-1.8335,-1.8752,-1.6552,-1.5544,-1.4858,-1.4117,-1.4461,-1.5509,-1.7407,-1.8094,-1.8542,-1.9127,-2.0322,-2.1189,-2.1403,-1.9578,-1.7803,-1.6997,-1.501,-1.3439,-1.2436,-1.4789,-1.6991,-1.8572,-1.9796,-2.0029,-1.9063,-1.5333,-1.4706,-1.7465,-1.7465,-1.9735,-2.3952,-2.3952,-2.492,-2.6386,-2.4761,-2.282,-2.0716,-2.0716,-2.0716,-2.0878,-2.2487,-2.443,-2.6386,-2.6386,-2.6386,-2.6386,-2.6386,-2.6386,-2.6386,0.0,0.0,-0.823,-0.8604,-0.8951,-0.9259,-0.9499,-0.998,-1.0071,0.0,0.0,0.0,-0.8693,-0.8036,-0.7677,-0.7753,-0.7009,-0.6683,-0.6989,-0.6878,-0.6949,-0.7344,-0.7118,-0.6985,-0.6985,-0.6907,-0.6987,-0.7281,-0.7468,-0.7709,-0.8064,-0.8778,-0.9205,-0.9365,-1.0408,-1.0915,-1.1062,-1.2064,-1.2225,-1.1899,-1.3404,-1.3628,-1.3036,-1.3832,-1.3717,-1.3135,-1.162,-1.2108,-1.2971,-1.0691,-1.1151,-1.2791,-1.2586,-1.2977,-1.3454,-1.2799,-1.2385,-1.2171,-1.2425,-1.2786,-1.3293,-1.4188,0.0,0.0,-1.624,-1.7313,-1.7677,-1.5258,-1.4436,-1.401,-1.3394,-1.3356,-1.4007,-1.5998,-1.6805,-1.7863,-1.953,-1.9977,-2.0606,-2.1697,-2.0197,-1.8622,-1.7087,-1.5665,-1.408,-1.2443,-1.4236,-1.6751,-1.9629,-1.9296,-1.9063,-1.9063,-1.5333,-1.4375,-1.6647,-1.6647,-1.8272,-2.1845,-2.2659,-2.3792,-2.4933,-2.3632,-2.2006,-1.9907,-1.8933,-1.9095,-2.0069,-2.12,-2.3632,-2.6386,-2.6386,-2.6386,-2.6386,-2.6386,-2.6386,-2.6413,0.0,0.0,-0.858,-0.9411,-0.9467,-0.9628,-1.0199,-1.0379,-0.997,0.0,-0.8737,-0.8387,-0.737,-0.7283,-0.7188,-0.7089,-0.6644,-0.6749,-0.7566,-0.6873,-0.6789,-0.7719,-0.7224,-0.6953,-0.6985,-0.6774,-0.672,-0.6901,-0.7012,-0.7158,-0.7437,-0.8096,-0.8524,-0.8844,-0.9793,-1.0514,-1.1116,-1.2305,-1.2643,-1.235,-1.2616,-1.2789,-1.2841,-1.267,-1.2698,-1.2674,-1.1151,-1.1977,-1.3315,-1.0446,-1.1011,-1.2743,-1.2471,-1.3339,-1.4376,-1.3881,-1.2986,-1.2251,-1.2714,-1.2559,-1.2559,-1.3427,-1.4669,0.0,-1.4648,-1.5705,-1.6004,-1.3232,-1.2873,-1.2674,-1.1173,-1.0966,-1.168,-1.3616,-1.5052,-1.7263,-2.076,-2.0048,-1.9887,-2.1806,-2.2067,-2.0869,-1.7409,-1.7253,-1.5993,-1.2588,-1.4533,-1.736,-2.1141,-1.9759,-1.9063,-1.9063,-1.5333,-1.4375,-1.6164,-1.6155,-1.7302,-1.9582,-2.1684,-2.282,-2.314,-2.282,-2.1684,-1.9745,-1.7302,-1.7465,-1.9582,-1.9745,-2.2499,-2.6386,-2.6386,-2.6386,-2.6386,-2.6386,-2.6386,-2.6426,-0.835,-0.8088,-0.7985,-0.8387,-0.8177,-0.809,-0.8424,-0.879,-0.8885,-0.849,-0.849,-0.8399,-0.8184,-0.7474,-0.6955,-0.6957,-0.6412,-0.6053,-0.6023,-0.6239,-0.6533,-0.6821,-0.6742,-0.6772,-0.6985,-0.6974,-0.6752,-0.6349,-0.705,-0.7179,-0.6793,-0.7889,-0.8524,-0.8871,-1.0221,-1.1022,-1.1423,-1.2612,-1.2877,-1.2622,-1.3252,-1.2823,-1.1744,-1.1666,-1.1167,-1.0375,-0.9994,-1.0191,-1.0666,-1.0586,-1.2117,-1.4043,-1.3681,-1.5081,-1.6567,-1.4856,-1.4188,-1.3814,-1.305,-1.2782,-1.2826,-1.348,-1.4215,0.0,-1.5425,-1.6302,-1.6617,-1.473,-1.495,-1.546,-1.5034,-1.5461,-1.6531,-1.8521,-1.812,-1.7978,-1.8932,-2.0017,-2.1004,-2.1924,-1.9546,-1.7673,-1.747,-1.4889,-1.3042,-1.2277,-1.5894,-1.827,-1.9176,-1.9141,-1.9063,-1.9063,-1.5333,-1.3562,-1.4052,-1.4052,-1.5193,-1.7302,-1.942,-2.1362,-2.298,-2.1362,-2.0231,-1.9745,-1.5679,-1.5193,-1.7302,-1.9095,-2.2499,-2.6386,-2.6386,-2.6386,-2.6386,-2.6386,-2.6386,-2.6426,-0.7454,-0.7408,-0.7472,-0.8121,-0.8014,-0.8016,-0.8492,-0.8553,-0.8453,-0.7906,-0.7578,-0.7317,-0.7102,-0.6817,-0.6539,-0.6348,-0.6045,-0.6,-0.6351,-0.6256,-0.6447,-0.6925,-0.6586,-0.6394,-0.6418,-0.6292,-0.6078,-0.5739,-0.6209,-0.6411,-0.6434,-0.7473,-0.8201,-0.8716,-0.9685,-1.0643,-1.1593,-1.2246,-1.2987,-1.3517,-1.2764,-1.1932,-1.1104,-1.0666,-1.0141,-0.9815,-0.9741,-0.9808,-1.0019,-1.1209,-1.2813,-1.3936,-1.3067,-1.4177,-1.5667,-1.4576,-1.3779,-1.3287,-1.3451,-1.3171,-1.2929,-1.3307,-1.3761,0.0,0.0,-1.469,-1.5065,-1.3427,-1.4049,-1.4749,-1.4745,-1.5322,-1.6373,-1.8188,-1.7433,-1.7134,-1.8766,-1.9701,-2.0771,-2.2018,-1.9852,-1.7919,-1.7066,-1.4685,-1.2949,-1.2313,-1.5152,-1.6898,-1.6898,-1.7226,-1.7502,-1.7502,-1.4853,-1.3403,-1.3403,-1.3403,-1.3887,-1.5028,-1.7138,-1.876,-1.9897,-1.876,-1.8281,-1.8118,-1.4871,-1.4541,-1.6647,-1.7792,-2.0867,-2.492,-2.5898,-2.6386,-2.6386,-2.6386,-2.648,-2.664,-0.6494,-0.6648,-0.6924,-0.77,-0.7741,-0.7822,-0.8393,-0.8206,-0.7851,-0.7171,-0.6667,-0.624,-0.5962,-0.6227,-0.6308,-0.6003,-0.6051,-0.635,-0.6952,-0.6479,-0.6505,-0.7242,-0.6566,-0.6156,-0.6042,-0.5751,-0.5457,-0.5193,-0.5321,-0.5585,-0.5924,-0.7048,-0.779,-0.8327,-0.9218,-1.0346,-1.1618,-1.2112,-1.2985,-1.3907,-1.2273,-1.1801,-1.1872,-1.0627,-1.0279,-1.0422,-0.9971,-0.9917,-1.0294,-1.1888,-1.3305,-1.4015,-1.2604,-1.3433,-1.4826,-1.4286,-1.3346,-1.2881,-1.3944,-1.3517,-1.2883,-1.3253,-1.3424,-1.3264,0.0,0.0,0.0,-1.2537,-1.3131,-1.392,-1.3878,-1.4406,-1.5192,-1.6539,-1.6205,-1.6451,-1.8905,-1.9461,-2.0166,-2.1992,-2.0343,-1.8428,-1.6797,-1.5097,-1.3452,-1.2113,-1.4208,-1.5404,-1.5261,-1.5785,-1.5931,-1.5931,-1.4371,-1.3403,-1.3403,-1.3403,-1.3403,-1.3397,-1.5514,-1.6647,-1.6647,-1.6647,-1.6647,-1.6483,-1.4375,-1.4375,-1.5999,-1.6483,-1.8923,-2.2659,-2.492,-2.6056,-2.64,-2.6453,-2.6294,-2.6209,-0.6362,-0.6258,-0.6011,-0.6366,-0.6002,-0.5827,-0.6158,-0.618,-0.6143,-0.6159,-0.6469,-0.6586,-0.6417,-0.6783,-0.6919,-0.6627,-0.6966,-0.7052,-0.6589,-0.6682,-0.6862,-0.7108,-0.6515,-0.6379,-0.6782,-0.6209,-0.5583,-0.4785,-0.5415,-0.5462,-0.4932,-0.6799,-0.7511,-0.736,-0.9647,-1.0864,-1.1373,-1.3205,-1.3379,-1.2374,-1.2812,-1.4166,-1.5621,-1.312,-1.264,-1.2758,-1.0573,-0.9917,-1.0294,-1.2004,-1.3918,-1.5327,-1.45,-1.5698,-1.7067,-1.5221,-1.4562,-1.453,-1.4852,-1.3787,-1.2856,-1.3789,-1.3335,-1.3073,-1.4371,0.0,-1.5113,-1.5019,0.0,-1.5828,-1.5583,0.0,0.0,-1.6727,-1.7512,-1.8203,-1.8597,-1.9417,-2.0381,-2.1189,-1.8634,-1.6807,-1.6716,-1.4473,-1.2491,-1.1714,-1.4368,-1.5797,-1.5286,-1.5785,-1.5931,-1.5931,-1.4371,-1.3403,-1.3403,-1.3403,-1.3403,-1.3397,-1.5514,-1.6647,-1.6647,-1.6647,-1.6647,-1.6483,-1.4375,-1.3562,-1.3887,-1.5835,-1.8109,-2.0554,-2.2659,-2.4602,-2.6426,-2.668,-2.5486,-2.3937,-0.5305,-0.5335,-0.5426,-0.5785,-0.5719,-0.5718,-0.6023,-0.6213,-0.6281,-0.6179,-0.6627,-0.6898,-0.6756,-0.7061,-0.7224,-0.7102,-0.7421,-0.7407,-0.6892,-0.698,-0.6853,-0.6449,-0.6237,-0.6028,-0.5832,-0.5506,-0.5139,-0.4687,-0.4821,-0.4919,-0.5062,-0.6267,-0.6917,-0.718,-0.8611,-0.9686,-1.041,-1.2537,-1.311,-1.276,-1.4643,-1.5753,-1.5867,-1.2348,-1.1147,-1.1343,-1.0371,-1.0181,-1.0417,-1.1084,-1.2455,-1.3743,-1.2524,-1.3261,-1.4489,-1.3615,-1.3708,-1.4223,-1.4784,-1.4252,-1.3743,-1.4839,-1.3853,-1.3168,-1.4694,-1.479,-1.4683,-1.4856,0.0,0.0,0.0,0.0,0.0,0.0,-1.6558,-1.68,-1.7623,-1.7804,-1.8715,-2.0624,-1.809,-1.5395,-1.3692,-1.3849,-1.3408,-1.1907,-1.4255,-1.5138,-1.3642,-1.3856,-1.4109,-1.4214,-1.3732,-1.3403,-1.3403,-1.3403,-1.3403,-1.3403,-1.4375,-1.4698,-1.4698,-1.4698,-1.4698,-1.4706,-1.3728,-1.3403,-1.3562,-1.5671,-1.7946,-2.0069,-2.2327,-2.4529,-2.6494,-2.5286,-2.4383,-2.37,-0.4558,-0.4735,-0.502,-0.5352,-0.5555,-0.5786,-0.6084,-0.6424,-0.6593,-0.6464,-0.6959,-0.7285,-0.7183,-0.7509,-0.7719,-0.7678,-0.7984,-0.7991,-0.7536,-0.755,-0.7312,-0.6729,-0.643,-0.6091,-0.5691,-0.5338,-0.5026,-0.4755,-0.4619,-0.4713,-0.5139,-0.5943,-0.6473,-0.6821,-0.7785,-0.8755,-0.9689,-1.1644,-1.2526,-1.2726,-1.4785,-1.5172,-1.4295,-1.1886,-1.0578,-1.0127,-1.0243,-1.0344,-1.0555,-1.0991,-1.1826,-1.2701,-1.1396,-1.1749,-1.2615,-1.2325,-1.268,-1.3413,-1.4325,-1.3955,-1.3653,-1.4874,-1.412,-1.3311,-1.4758,-1.5034,-1.499,-1.4803,-1.4816,0.0,0.0,0.0,-1.5778,-1.5952,0.0,-1.5487,-1.6388,-1.6436,-1.739,-1.992,-1.7929,-1.5255,-1.2759,-1.4608,-1.4975,-1.2576,-1.4445,-1.471,-1.2388,-1.2549,-1.28,-1.2956,-1.3247,-1.3403,-1.3403,-1.3403,-1.3403,-1.3403,-1.3403,-1.3403,-1.3403,-1.3403,-1.3403,-1.3403,-1.3403,-1.3403,-1.3562,-1.5028,-1.6975,-1.9095,-2.0779,-2.2912,-2.4951,-2.3948,-2.2954,-2.2214,-0.4714,-0.4809,-0.4925,-0.4938,-0.5182,-0.5474,-0.5772,-0.6193,-0.658,-0.6871,-0.7421,-0.7787,-0.778,-0.8309,-0.8608,-0.8459,-0.8852,-0.892,-0.8465,-0.8581,-0.8581,-0.8411,-0.7434,-0.6953,-0.7075,-0.622,-0.5488,-0.4911,-0.5189,-0.5171,-0.4752,-0.6069,-0.6376,-0.5926,-0.7643,-0.8739,-0.9443,-1.092,-1.136,-1.1256,-1.2331,-1.1996,-1.0904,-1.2849,-1.2306,-1.0276,-1.0276,-1.0283,-1.0558,-1.2339,-1.3155,-1.3282,-1.3088,-1.3155,-1.3068,-1.2399,-1.2233,-1.2499,-1.3419,-1.2539,-1.1759,-1.3154,-1.3578,-1.3793,-1.4898,-1.6386,-1.7074,-1.5658,-1.5591,-1.5538,-1.4723,-1.503,-1.5137,-1.4309,-1.5046,0.0,0.0,-1.5763,-1.7224,-1.8798,-1.8031,-1.6827,-1.5644,-1.7083,-1.6906,-1.4369,-1.5523,-1.5176,-1.2258,-1.2488,-1.28,-1.2956,-1.3247,-1.3403,-1.3403,-1.3403,-1.3403,-1.3403,-1.3403,-1.3403,-1.3403,-1.3403,-1.3403,-1.3403,-1.3403,-1.3403,-1.3403,-1.3397,-1.4698,-1.6664,-1.7016,-1.8532,-2.1045,-2.3064,-2.1176,-1.778,-0.5013,-0.502,-0.5094,-0.5196,-0.5454,-0.5752,-0.6057,-0.6485,-0.6885,-0.7183,-0.774,-0.8187,-0.8384,-0.8676,-0.8879,-0.892,-0.9157,-0.9157,-0.8804,-0.8737,-0.8506,-0.8058,-0.7516,-0.7102,-0.6858,-0.6363,-0.5956,-0.5657,-0.546,-0.5332,-0.5291,-0.5769,-0.5887,-0.584,-0.6986,-0.7872,-0.8623,-1.0609,-1.1216,-1.0919,-1.1374,-1.1148,-1.0637,-1.1439,-1.1243,-1.0432,-1.0534,-1.0568,-1.0692,-1.1149,-1.1571,-1.1636,-1.16,-1.1733,-1.1917,-1.1621,-1.2203,-1.2867,-1.3,-1.2798,-1.273,-1.3927,-1.462,-1.5135,-1.602,-1.7279,-1.7876,-1.678,-1.6019,-1.5511,-1.5404,-1.507,-1.4843,-1.4937,-1.5124,-1.5217,0.0,-1.5698,-1.638,-1.7088,-1.6903,-1.5899,-1.3731,-1.5815,-1.6007,-1.282,-1.4619,-1.475,-1.2374,-1.2447,-1.2698,-1.2949,-1.3152,-1.3302,-1.3397,-1.3403,-1.3403,-1.3403,-1.3403,-1.3403,-1.3403,-1.3403,-1.3403,-1.3403,-1.3403,-1.3403,-1.3562,-1.4863,-1.5999,-1.6828,-1.833,-1.8708,-1.8415,-1.9362,-1.8949,-1.7621,-0.5182,-0.5216,-0.5304,-0.5352,-0.565,-0.5969,-0.622,-0.6776,-0.7238,-0.7428,-0.8113,-0.8615,-0.8703,-0.894,-0.9137,-0.9225,-0.9374,-0.9401,-0.9259,-0.9157,-0.8906,-0.8472,-0.8113,-0.7767,-0.7421,-0.6919,-0.6552,-0.6349,-0.5901,-0.5677,-0.5664,-0.5718,-0.5854,-0.6071,-0.6702,-0.7468,-0.8309,-0.9861,-1.0569,-1.0649,-1.0806,-1.0778,-1.0663,-1.0765,-1.0704,-1.0588,-1.0683,-1.0758,-1.0785,-1.0683,-1.0853,-1.1077,-1.0928,-1.1043,-1.1233,-1.1179,-1.1833,-1.2437,-1.2134,-1.208,-1.2401,-1.3071,-1.408,-1.4904,-1.5309,-1.647,-1.7141,-1.6113,-1.5184,-1.46,-1.4761,-1.4594,-1.4384,-1.4244,-1.4765,-1.5114,0.0,-1.4334,-1.4309,-1.468,-1.5423,-1.5423,-1.4135,-1.5619,-1.5653,-1.2865,-1.4432,-1.4493,-1.2361,-1.2345,-1.2562,-1.2868,-1.3071,-1.322,-1.3315,-1.3376,-1.3403,-1.3403,-1.3403,-1.3403,-1.3403,-1.3403,-1.3403,-1.3403,-1.3403,-1.3403,-1.3562,-1.4863,-1.5554,-1.5624,-1.7285,-1.7146,-1.6168,-1.714,-1.7226,-1.6572,-0.5322,-0.5413,-0.5569,-0.5507,-0.5779,-0.6118,-0.6261,-0.7054,-0.7638,-0.7645,-0.8533,-0.9062,-0.8798,-0.9144,-0.9401,-0.9401,-0.9537,-0.968,-0.9815,-0.9815,-0.9754,-0.9625,-0.9184,-0.8872,-0.8723,-0.7848,-0.7244,-0.6939,-0.6491,-0.6112,-0.5813,-0.5962,-0.6186,-0.6471,-0.6634,-0.7455,-0.8703,-0.8723,-0.9415,-1.0507,-1.067,-1.0819,-1.0948,-1.0955,-1.088,-1.0765,-1.0758,-1.0846,-1.0968,-1.0968,-1.1165,-1.1375,-1.1233,-1.1287,-1.1389,-1.1246,-1.1199,-1.1165,-1.1023,-1.0772,-1.0616,-1.0894,-1.2056,-1.3147,-1.2906,-1.4235,-1.5061,-1.3918,-1.3423,-1.3058,-1.2908,-1.3578,-1.3799,-1.2245,-1.4039,-1.505,-1.3543,-1.2064,-1.1293,-1.1869,-1.3446,-1.514,-1.6533,-1.6594,-1.5837,-1.439,-1.4948,-1.4453,-1.223,-1.223,-1.2447,-1.2718,-1.3017,-1.3173,-1.3173,-1.3322,-1.3403,-1.3403,-1.3403,-1.3403,-1.3403,-1.3403,-1.3403,-1.3403,-1.3403,-1.3403,-1.3403,-1.3403,-1.3492,-1.3641,-1.3783,-1.3946,-1.4458,-1.6506,-1.6255,-1.4767,-0.58,-0.5861,-0.5976,-0.6152,-0.6471,-0.6675,-0.66,-0.7448,-0.8133,-0.8241,-0.8879,-0.9374,-0.9517,-0.9639,-0.9707,-0.9707,-0.9741,-0.9781,-0.9822,-0.972,-0.9693,-0.9761,-0.9232,-0.892,-0.8879,-0.8106,-0.7495,-0.7088,-0.6634,-0.6268,-0.5969,-0.601,-0.6132,-0.6329,-0.6702,-0.7489,-0.856,-0.8899,-0.9605,-1.0514,-1.0778,-1.0914,-1.0962,-1.1063,-1.1226,-1.1375,-1.126,-1.1246,-1.128,-1.128,-1.1402,-1.1552,-1.1511,-1.1599,-1.1735,-1.1809,-1.1748,-1.1626,-1.1484,-1.1389,-1.1294,-1.1145,-1.2712,-1.4105,-1.3486,-1.4809,-1.5764,-1.472,-1.4328,-1.3955,-1.3504,-1.3393,-1.3197,-1.2711,-1.2547,-1.2501,-1.2062,-1.1465,-1.1281,-1.1686,-1.1661,-1.1964,-1.2922,-1.3376,-1.3278,-1.2415,-1.2763,-1.287,-1.223,-1.2583,-1.2773,-1.2732,-1.3017,-1.3173,-1.3173,-1.3322,-1.3403,-1.3403,-1.3403,-1.3403,-1.3403,-1.3403,-1.3403,-1.3403,-1.3403,-1.3403,-1.3403,-1.3403,-1.3492,-1.3641,-1.3783,-1.4068,-1.4401,-1.497,-1.5188,-1.4882,-0.6069,-0.6103,-0.6335,-0.6702,-0.7005,-0.7263,-0.7217,-0.7909,-0.856,-0.8838,-0.934,-0.9734,-0.9903,-0.9863,-0.9822,-0.9822,-0.9822,-0.9849,-0.9917,-0.9842,-0.9836,-0.9917,-0.9666,-0.9462,-0.9327,-0.8716,-0.8174,-0.7726,-0.7149,-0.6681,-0.6322,-0.6254,-0.6376,-0.6654,-0.6844,-0.7617,-0.8825,-0.9537,-1.0202,-1.0806,-1.1043,-1.1179,0.0,-1.1328,-1.1504,-1.1708,-1.1694,-1.164,-1.1586,-1.1586,-1.1687,-1.1809,-1.1809,-1.1864,-1.1945,-1.204,-1.1999,-1.1898,-1.1748,-1.1708,-1.1653,-1.1423,-1.2328,-1.3231,-1.2812,-1.3497,-1.4018,-1.3434,-1.3034,-1.2867,-1.2668,-1.2871,-1.2976,-1.3289,-1.1675,-1.0613,-1.1209,-1.0506,-1.0061,-1.0433,-1.002,-1.0334,-1.1637,-1.1956,-1.1991,-1.1667,-1.2734,-1.3137,-1.2372,-1.3259,-1.3538,-1.2725,-1.3017,-1.3173,-1.3173,-1.339,-1.3464,-1.3403,-1.3403,-1.3403,-1.3403,-1.3403,-1.3403,-1.3403,-1.3403,-1.3403,-1.3403,-1.3403,-1.3526,-1.3743,-1.396,-1.4272,-1.4597,-1.4468,-1.457,-1.4746,-0.6205,-0.6404,-0.6729,-0.7149,-0.7446,-0.7731,-0.7925,-0.8472,-0.8974,-0.9367,-0.9774,-1.0025,-1.0019,-0.9917,-0.9849,-0.9849,-0.9869,-0.9937,-1.0073,-1.008,-1.0086,-1.0107,-1.0215,-1.0161,-0.9917,-0.9469,-0.9022,-0.8567,-0.7862,-0.7285,-0.6844,-0.6688,-0.6831,-0.7197,-0.7149,-0.7929,-0.9334,-1.0351,-1.0928,-1.1179,-1.1328,-1.1484,-1.1619,-1.1619,-1.1721,-1.1877,-1.2013,-1.1986,-1.1891,-1.1891,-1.1993,-1.2115,-1.2094,-1.2101,-1.2121,-1.2121,-1.2121,-1.2088,-1.1932,-1.1891,-1.1857,-1.1714,-1.166,-1.1647,-1.1647,-1.1531,-1.1423,-1.1423,-1.1212,-1.1118,-1.1375,-1.2022,-1.2739,-1.3478,-1.0996,-0.9497,-1.0898,-0.9706,-0.8764,-0.9049,-0.9117,0.0,-1.1618,-1.1416,-1.1399,-1.1997,-1.3869,-1.4303,-1.2615,-1.4096,-1.4318,-1.2718,-1.3017,-1.318,-1.32,-1.3464,-1.3546,-1.3431,-1.341,-1.3403,-1.3403,-1.3403,-1.3403,-1.3403,-1.3403,-1.3403,-1.3403,-1.3403,-1.3573,-1.3871,-1.4177,-1.4455,-1.4652,-1.4394,-1.438,-1.4482,-0.698,-0.7109,-0.7312,-0.7638,-0.7724,-0.7937,-0.8562,-0.903,-0.9288,-0.9466,-1.0016,-1.0257,-0.9863,-0.9951,-1.0012,-1.0012,-1.0127,-1.0209,-1.0236,-1.0243,-1.029,-1.0405,-1.0331,-1.031,-1.0371,-0.9937,-0.9483,-0.9035,-0.8533,-0.8058,-0.7611,-0.7468,-0.7448,-0.7543,-0.8004,-0.8838,-0.9944,-1.0744,-1.1118,-1.1179,-1.1328,-1.1484,-1.1619,-1.1619,-1.1789,-1.2026,-1.2054,-1.2128,-1.221,-1.221,-1.2305,-1.2406,-1.2284,-1.2332,-1.2427,-1.2427,-1.2427,-1.2393,-1.225,-1.221,-1.2176,-1.202,-1.1891,-1.1796,-1.1796,-1.1681,-1.1579,-1.1579,-1.1538,-1.1518,-1.1572,-1.1559,-1.1553,-1.1603,-1.0812,-1.0218,-1.0615,-0.9992,-0.9652,-0.9836,-1.0073,-1.028,-1.0348,-1.0486,-1.1319,-1.3027,-1.4767,-1.4662,-1.2484,-1.4759,-1.5098,-1.2732,-1.3017,-1.3234,-1.3363,-1.3417,-1.3492,-1.3587,-1.3458,-1.3403,-1.3403,-1.3403,-1.3403,-1.3403,-1.3403,-1.3403,-1.3403,-1.3403,-1.3573,-1.3871,-1.4177,-1.4333,-1.4373,-1.4319,-1.4319,-1.434,-0.7691,-0.7855,-0.8039,-0.8053,-0.814,-0.8236,-0.8803,-0.7596,-0.669,-0.7093,-0.9044,-1.0273,-1.0209,-1.0195,-1.0188,-1.0188,-1.0243,-1.0283,-1.0283,-1.0283,-1.0344,-1.0487,-1.05,-1.0507,-1.0493,-1.0432,-1.0107,-0.9496,-0.9279,-0.8906,-0.8391,-0.8241,-0.8221,-0.8323,-0.8994,-0.9578,-1.01,-1.0846,-1.1206,-1.1307,-1.1613,-1.183,-1.1965,-1.1965,-1.2101,-1.2277,-1.2203,-1.2277,-1.24,-1.24,-1.2447,-1.2488,-1.242,-1.2447,-1.2501,-1.2501,-1.2501,-1.2488,-1.242,-1.24,-1.2379,-1.2311,-1.2176,-1.2067,-1.2067,-1.1952,-1.1823,-1.1748,-1.1796,-1.185,-1.185,-1.166,-1.1484,-1.1409,-1.1097,-1.0826,-1.0744,-1.0541,-1.0432,-1.0507,-1.0575,-1.0843,-1.1667,-1.1162,-1.1149,-1.235,-1.4302,-1.4501,-1.2553,-1.4524,-1.4869,-1.2847,-1.3139,-1.3329,-1.3403,-1.3553,-1.3587,-1.3512,-1.3437,-1.3403,-1.3403,-1.3403,-1.3403,-1.3403,-1.3403,-1.3403,-1.341,-1.3566,-1.3763,-1.398,-1.4211,-1.4346,-1.4401,-1.4326,-1.4299,-1.4299,-0.8173,-0.8488,-0.8679,-0.8594,-0.8558,-0.8711,-0.8842,-0.5571,-0.3311,-0.3848,-0.6289,-0.8397,-0.9311,-0.9239,-0.9319,-1.0243,-1.0412,-1.0439,-1.0439,-1.0466,-1.0527,-1.0636,-1.0751,-1.0744,-1.0595,-1.0826,-1.0643,-1.0012,-0.9951,-0.9598,-0.8981,-0.896,-0.9062,-0.9293,-0.9849,-1.0168,-1.0331,-1.0982,-1.1348,-1.1518,-1.1904,-1.2155,-1.2291,-1.2291,-1.2379,-1.2488,-1.2413,-1.2474,-1.2596,-1.2596,-1.2576,-1.2556,-1.2589,-1.2596,-1.2596,-1.2596,-1.2596,-1.2596,-1.2596,-1.2596,-1.2596,-1.2596,-1.2515,-1.2433,-1.2433,-1.2338,-1.2196,-1.2013,-1.202,-1.2074,-1.2101,-1.1986,-1.1877,-1.1857,-1.1674,-1.1463,-1.126,-1.1179,-1.1138,-1.1138,-1.1029,-1.1525,-1.2822,-1.1855,-1.1301,-1.147,-1.373,-1.4446,-1.2649,-1.44,-1.4759,-1.3205,-1.3281,-1.3444,-1.3539,-1.3709,-1.3682,-1.3451,-1.3417,-1.3403,-1.3403,-1.3403,-1.3403,-1.3403,-1.3403,-1.3403,-1.3424,-1.3722,-1.3912,-1.4041,-1.4231,-1.4367,-1.4455,-1.434,-1.4299,-1.4299,-0.8601,-0.8762,-0.9007,-0.9525,-0.9207,-0.8836,-0.8847,-0.4055,-0.0386,-0.0514,-0.0762,-0.2154,-0.5141,-0.5461,-0.6688,-1.0019,-1.0531,-1.069,-1.069,-1.0789,-1.0987,-1.1,-1.1131,-1.1056,-1.0907,-1.0934,-1.0846,-1.0636,-1.0371,-0.9856,-0.9144,-0.9537,-0.9944,-1.0344,-1.0283,-1.0555,-1.1084,-1.143,-1.166,-1.1809,-1.1986,-1.2155,-1.2291,-1.2291,-1.2379,-1.2515,-1.2644,-1.2786,-1.2922,-1.2922,-1.2827,-1.2732,-1.2874,-1.2922,-1.2922,-1.2922,-1.2922,-1.2922,-1.2922,-1.2922,-1.2922,-1.2922,-1.2908,-1.2895,-1.2895,-1.2888,-1.2793,-1.2501,-1.2237,-1.2101,-1.2244,-1.2142,-1.2169,-1.2562,-1.2271,-1.204,-1.2149,-1.1925,-1.1748,-1.1748,-1.1735,-1.1681,-1.1708,-1.2072,-1.206,-1.1809,-1.4003,-1.4597,-1.2649,-1.4782,-1.5273,-1.3349,-1.339,-1.3593,-1.4007,-1.377,-1.3634,-1.3607,-1.3464,-1.3403,-1.3403,-1.3403,-1.3403,-1.3403,-1.3403,-1.3403,-1.3424,-1.3722,-1.3851,-1.3892,-1.4183,-1.4306,-1.4319,-1.4306,-1.4299,-1.4299,-0.9131,-0.7527,-0.6931,-0.8891,-1.0002,-1.013,-0.9068,-0.3896,0.0,0.0,0.0,-0.0518,-0.1824,-0.1978,-0.2525,-0.3991,-0.6238,-0.7547,-0.7547,-0.7553,-0.8802,-1.1186,-1.1315,-1.1281,-1.1355,-1.126,-1.1097,-1.086,-1.0826,-1.0609,-1.0236,-1.05,-1.0677,-1.0765,-1.0799,-1.0941,-1.1192,-1.1579,-1.183,-1.1993,-1.223,-1.242,-1.2562,-1.2657,-1.2725,-1.2786,-1.2847,-1.2908,-1.2976,-1.3057,-1.299,-1.2881,-1.2942,-1.2963,-1.2963,-1.2963,-1.2963,-1.2963,-1.2963,-1.2963,-1.2963,-1.2963,-1.2963,-1.2963,-1.2963,-1.2963,-1.2929,-1.28,-1.2535,-1.2372,-1.2528,-1.2427,-1.2359,-1.2447,-1.2386,-1.2284,-1.2169,-1.2128,-1.2108,-1.2108,-1.2026,-1.1986,-1.202,-1.2182,-1.2237,-1.2115,-1.3231,-1.3603,-1.2637,-1.362,-1.4099,-1.3526,-1.3451,-1.3614,-1.4068,-1.3865,-1.3715,-1.3627,-1.3471,-1.3403,-1.3403,-1.3403,-1.3403,-1.3403,-1.3403,-1.3403,-1.3424,-1.3722,-1.3838,-1.3871,-1.4177,-1.4299,-1.4299,-1.4299,-1.4299,-1.4299,-0.9199,-0.7623,-0.607,-0.6285,-0.7365,-0.7759,-0.6489,-0.2656,0.0,0.0,0.0,0.0,0.0,0.0,0.0,0.0,-0.2367,-0.379,-0.379,-0.3866,-0.509,-0.8075,-1.0304,-1.1603,-1.1647,-1.1538,-1.1214,-1.0822,-1.0967,-1.1104,-1.0975,-1.0884,-1.0853,-1.1016,-1.1165,-1.128,-1.1382,-1.1742,-1.2013,-1.2216,-1.2467,-1.2657,-1.2813,-1.2969,-1.3024,-1.303,-1.3071,-1.3091,-1.3105,-1.3207,-1.3173,-1.3091,-1.3091,-1.3091,-1.3091,-1.3091,-1.3091,-1.3091,-1.3091,-1.3091,-1.3091,-1.3091,-1.3091,-1.3091,-1.3091,-1.3091,-1.3078,-1.303,-1.282,-1.2671,-1.2779,-1.2712,-1.2617,-1.2556,-1.2562,-1.2494,-1.2284,-1.2277,-1.2359,-1.2528,-1.242,-1.24,-1.2596,-1.2617,-1.2562,-1.2427,-1.2759,-1.2895,-1.2739,-1.2956,-1.3254,-1.362,-1.3566,-1.3702,-1.4068,-1.3919,-1.377,-1.3627,-1.3471,-1.3403,-1.3403,-1.3403,-1.3403,-1.3403,-1.3403,-1.3403,-1.3424,-1.3722,-1.3838,-1.3871,-1.4177,-1.4299,-1.4299,-1.4299,-1.4299,-1.4299,-0.8535,-0.9795,-0.7661,-0.1185,-0.0132,-0.0132,-0.0132,-0.0,0.0,0.0,0.0,0.0,0.0,0.0,0.0,0.0,-0.0,-0.0,-0.0,-0.0,-0.0151,-0.0151,-0.7858,-1.2006,-1.1563,-1.1556,-1.1332,-1.0741,-1.0718,-1.0955,-1.1253,-1.0299,-1.031,-1.1165,-1.1321,-1.1552,-1.183,-1.1993,-1.223,-1.2508,-1.2664,-1.282,-1.2976,-1.3119,-1.3173,-1.3193,-1.3342,-1.3397,-1.3397,-1.3397,-1.3397,-1.3397,-1.3397,-1.3397,-1.3397,-1.3397,-1.3397,-1.3397,-1.3397,-1.3397,-1.3397,-1.3397,-1.3397,-1.3397,-1.3397,-1.3397,-1.3356,-1.32,-1.3057,-1.2956,-1.2956,-1.2956,-1.3003,-1.3139,-1.2915,-1.2725,-1.2725,-1.2474,-1.2508,-1.3091,-1.3037,-1.3064,-1.3356,-1.339,-1.32,-1.2759,-1.2874,-1.2895,-1.2739,-1.3152,-1.3464,-1.3627,-1.3763,-1.3912,-1.4068,-1.3919,-1.377,-1.3627,-1.3471,-1.3403,-1.3403,-1.3403,-1.3403,-1.3403,-1.3403,-1.3403,-1.3424,-1.3722,-1.3838,-1.3871,-1.4177,-1.4299,-1.4299,-1.4299,-1.4299,-1.4299,-0.2766,-0.3163,-0.2511,-0.04,0.0,0.0,0.0,0.0,0.0,0.0,0.0,0.0,0.0,0.0,0.0,0.0,0.0,0.0,0.0,0.0,0.0,0.0,-0.2446,-0.5179,-0.7862,-0.7734,-0.7504,-0.7323,-0.7191,-0.8671,-1.1461,-1.1482,-1.1443,-1.1626,-1.1782,-1.1959,-1.2155,-1.2298,-1.2535,-1.2827,-1.2976,-1.3064,-1.3119,-1.3268,-1.3329,-1.3336,-1.3383,-1.3403,-1.3403,-1.3403,-1.3403,-1.3403,-1.3403,-1.3403,-1.3403,-1.3403,-1.3403,-1.3403,-1.3403,-1.3403,-1.3403,-1.3403,-1.3403,-1.3403,-1.3403,-1.3403,-1.339,-1.3336,-1.3207,-1.3105,-1.3105,-1.3024,-1.2976,-1.3024,-1.2949,-1.2854,-1.2745,-1.2651,-1.2657,-1.2847,-1.2739,-1.2725,-1.2922,-1.3037,-1.3044,-1.2901,-1.3403,-1.3478,-1.2915,-1.3024,-1.3308,-1.3756,-1.362,-1.381,-1.4367,-1.4021,-1.3871,-1.3926,-1.3675,-1.3505,-1.3403,-1.3403,-1.3403,-1.3403,-1.3403,-1.3403,-1.3417,-1.3614,-1.3756,-1.3858,-1.4068,-1.4211,-1.4299,-1.4299,-1.4299,-1.4299,0.0,0.0,0.0,0.0,0.0,0.0,0.0,0.0,0.0,0.0,0.0,0.0,0.0,0.0,0.0,0.0,0.0,0.0,0.0,0.0,0.0,0.0,0.0,-0.1237,-0.3844,-0.3786,-0.3598,-0.3582,-0.3386,-0.6297,-1.165,-1.1932,-1.1965,-1.1925,-1.2135,-1.2311,-1.2467,-1.261,-1.2813,-1.3051,-1.3139,-1.3207,-1.3268,-1.3363,-1.3403,-1.3403,-1.3403,-1.3403,-1.3403,-1.3403,-1.3403,-1.3403,-1.3403,-1.3403,-1.3403,-1.3403,-1.3403,-1.3403,-1.3403,-1.3403,-1.3403,-1.3403,-1.3403,-1.3403,-1.3403,-1.3403,-1.3403,-1.3403,-1.3322,-1.3261,-1.3261,-1.3186,-1.3125,-1.3125,-1.3078,-1.3003,-1.2908,-1.2847,-1.2901,-1.3119,-1.2963,-1.2922,-1.3125,-1.3132,-1.3078,-1.2969,-1.3437,-1.3532,-1.3064,-1.3254,-1.3498,-1.3749,-1.3634,-1.3817,-1.434,-1.4068,-1.3973,-1.4068,-1.377,-1.3607,-1.3559,-1.3451,-1.3431,-1.3485,-1.3424,-1.3403,-1.341,-1.3566,-1.3709,-1.3858,-1.4014,-1.4163,-1.4299,-1.4299,-1.4299,-1.4299,0.0,0.0,0.0,0.0,0.0,0.0,0.0,0.0,0.0,0.0,0.0,0.0,0.0,0.0,0.0,0.0,0.0,0.0,0.0,0.0,0.0,0.0,0.0,0.0,0.0,0.0,0.0,0.0,0.0,-0.3842,-1.1141,-1.1744,-1.2026,-1.2142,-1.2413,-1.2623,-1.2773,-1.2915,-1.3057,-1.3186,-1.3186,-1.3275,-1.3403,-1.3403,-1.3403,-1.3403,-1.3403,-1.3403,-1.3403,-1.3403,-1.3403,-1.3403,-1.3403,-1.3403,-1.3403,-1.3403,-1.3403,-1.3403,-1.3403,-1.3403,-1.3403,-1.3403,-1.3403,-1.3403,-1.3403,-1.3403,-1.3403,-1.3403,-1.3403,-1.3403,-1.3403,-1.3403,-1.3403,-1.3403,-1.3281,-1.3186,-1.3173,-1.3057,-1.318,-1.3729,-1.3559,-1.3505,-1.3783,-1.3573,-1.3308,-1.3057,-1.3159,-1.3241,-1.3247,-1.3783,-1.3953,-1.3654,-1.377,-1.3919,-1.4089,-1.4075,-1.4075,-1.4068,-1.379,-1.3715,-1.3817,-1.3539,-1.3492,-1.3607,-1.3464,-1.3403,-1.341,-1.3553,-1.3702,-1.3858,-1.4,-1.4156,-1.4299,-1.4299,-1.4299,-1.4299,0.0,0.0,0.0,0.0,0.0,0.0,0.0,0.0,0.0,0.0,0.0,0.0,0.0,0.0,0.0,0.0,0.0,0.0,0.0,0.0,0.0,0.0,0.0,0.0,0.0,0.0,0.0,0.0,0.0,-0.0938,-0.2961,-0.9331,-1.245,-1.2628,-1.2861,-1.2956,-1.3071,-1.3105,-1.3207,-1.3349,-1.3349,-1.337,-1.3403,-1.3403,-1.3403,-1.3403,-1.3403,-1.3403,-1.3403,-1.3403,-1.3403,-1.3403,-1.3403,-1.3403,-1.3403,-1.3403,-1.3403,-1.3403,-1.3403,-1.3403,-1.3403,-1.3403,-1.3403,-1.3403,-1.3403,-1.3403,-1.3403,-1.3403,-1.3403,-1.3403,-1.3403,-1.3403,-1.3403,-1.3403,-1.337,-1.3308,-1.3186,-1.3146,-1.3173,-1.3315,-1.337,-1.3431,-1.3498,-1.3546,-1.3641,-1.3797,-1.3838,-1.3912,-1.4027,-1.417,-1.4109,-1.3797,-1.3824,-1.3973,-1.4245,-1.4129,-1.4075,-1.4075,-1.4,-1.3865,-1.3675,-1.3607,-1.3532,-1.3451,-1.3417,-1.3403,-1.3403,-1.3437,-1.3607,-1.3844,-1.3878,-1.4061,-1.4299,-1.4299,-1.4299,-1.4299,0.0,0.0,0.0,0.0,0.0,0.0,0.0,0.0,0.0,0.0,0.0,0.0,0.0,0.0,0.0,0.0,0.0,0.0,0.0,0.0,0.0,0.0,0.0,0.0,0.0,0.0,0.0,0.0,0.0,0.0,-0.0161,-0.4685,-0.8289,-1.0947,-1.2443,-1.3173,-1.3275,-1.3275,-1.3322,-1.3403,-1.3403,-1.3403,-1.3403,-1.3403,-1.3403,-1.3403,-1.3403,-1.3403,-1.3403,-1.3403,-1.3403,-1.3403,-1.3403,-1.3403,-1.3403,-1.3403,-1.3403,-1.3403,-1.3403,-1.3403,-1.3403,-1.3403,-1.3403,-1.3403,-1.3403,-1.3403,-1.3403,-1.3403,-1.3403,-1.3403,-1.3403,-1.3403,-1.3403,-1.3403,-1.3403,-1.337,-1.3288,-1.3275,-1.3275,-1.3275,-1.3349,-1.3403,-1.3403,-1.3539,-1.3695,-1.3858,-1.3994,-1.4109,-1.419,-1.4265,-1.419,-1.3953,-1.3946,-1.4061,-1.4299,-1.4217,-1.4177,-1.4177,-1.4102,-1.3987,-1.3824,-1.3688,-1.3587,-1.3498,-1.3431,-1.3403,-1.3403,-1.3403,-1.3573,-1.3838,-1.3838,-1.4027,-1.4299,-1.4299,-1.4299,-1.4299,0.0,0.0,0.0,0.0,0.0,0.0,0.0,0.0,0.0,0.0,0.0,0.0,0.0,0.0,0.0,0.0,0.0,0.0,0.0,0.0,0.0,0.0,0.0,0.0,0.0,0.0,0.0,0.0,0.0,0.0,0.0,0.0,-0.2616,-0.7416,-1.1417,-1.3157,-1.341,-1.341,-1.3403,-1.3403,-1.3403,-1.3403,-1.3403,-1.3403,-1.3403,-1.3403,-1.3403,-1.3403,-1.3403,-1.3403,-1.3403,-1.3403,-1.3403,-1.3403,-1.3403,-1.3403,-1.3403,-1.3403,-1.3403,-1.3403,-1.3403,-1.3403,-1.3403,-1.3403,-1.3403,-1.3403,-1.3403,-1.3403,-1.3403,-1.3403,-1.3403,-1.3403,-1.3424,-1.3492,-1.3464,-1.3451,-1.3498,-1.3464,-1.3424,-1.3403,-1.3424,-1.3437,-1.3437,-1.3593,-1.3695,-1.3695,-1.3953,-1.4109,-1.4109,-1.4231,-1.4238,-1.4109,-1.4109,-1.417,-1.4299,-1.4299,-1.4299,-1.4299,-1.4143,-1.4061,-1.4027,-1.3756,-1.3614,-1.3587,-1.3458,-1.3403,-1.3403,-1.3403,-1.3573,-1.3838,-1.3838,-1.4027,-1.4299,-1.4299,-1.4299,-1.4299,0.0,0.0,0.0,0.0,0.0,0.0,0.0,0.0,0.0,0.0,0.0,0.0,0.0,0.0,0.0,0.0,0.0,0.0,0.0,0.0,0.0,0.0,0.0,0.0,0.0,0.0,0.0,0.0,0.0,0.0,0.0,0.0,-0.0502,-0.1672,-0.9746,-1.3311,-1.3444,-1.3444,-1.3431,-1.3403,-1.3403,-1.3403,-1.3403,-1.3403,-1.3403,-1.3403,-1.3403,-1.3403,-1.3403,-1.3403,-1.3403,-1.3403,-1.3403,-1.3403,-1.3403,-1.3403,-1.3403,-1.3403,-1.3403,-1.3403,-1.3403,-1.3403,-1.3403,-1.3403,-1.3403,-1.3403,-1.3403,-1.3403,-1.3403,-1.3403,-1.3403,-1.3403,-1.3526,-1.3905,-1.3756,-1.3682,-1.3933,-1.3749,-1.3546,-1.3417,-1.3512,-1.3593,-1.3593,-1.3844,-1.4,-1.4,-1.4163,-1.4265,-1.4265,-1.4285,-1.4292,-1.4265,-1.4265,-1.4278,-1.4299,-1.4299,-1.4299,-1.4299,-1.4143,-1.4,-1.3871,-1.3702,-1.3559,-1.3437,-1.341,-1.3403,-1.3403,-1.3403,-1.3573,-1.3838,-1.3838,-1.4027,-1.4299,-1.4299,-1.4299,-1.4299,0.0,0.0,0.0,0.0,0.0,0.0,0.0,0.0,0.0,0.0,0.0,0.0,0.0,0.0,0.0,0.0,0.0,0.0,0.0,0.0,0.0,0.0,0.0,0.0,0.0,0.0,0.0,0.0,0.0,0.0,0.0,0.0,0.0,-0.0168,-0.4367,-0.7558,-0.9898,-1.2451,-1.3458,-1.3431,-1.3431,-1.3417,-1.3403,-1.3403,-1.3403,-1.3403,-1.3403,-1.3403,-1.3403,-1.3403,-1.3403,-1.3403,-1.3403,-1.3403,-1.3403,-1.3403,-1.3403,-1.3403,-1.3403,-1.3403,-1.3403,-1.3403,-1.3403,-1.3403,-1.3403,-1.3403,-1.3403,-1.3403,-1.3403,-1.3403,-1.3403,-1.3403,-1.3498,-1.379,-1.3648,-1.358,-1.3804,-1.3641,-1.3478,-1.341,-1.3464,-1.3539,-1.362,-1.3824,-1.398,-1.4061,-1.4211,-1.4299,-1.4299,-1.4299,-1.4299,-1.4299,-1.4299,-1.4299,-1.4299,-1.4217,-1.4177,-1.4177,-1.4021,-1.3871,-1.3722,-1.3661,-1.3546,-1.3403,-1.3403,-1.3403,-1.3403,-1.3403,-1.3573,-1.3838,-1.3838,-1.4027,-1.4299,-1.4299,-1.4299,-1.4299,0.0,0.0,0.0,0.0,0.0,0.0,0.0,0.0,0.0,0.0,0.0,0.0,0.0,0.0,0.0,0.0,0.0,0.0,0.0,0.0,0.0,0.0,0.0,0.0,0.0,0.0,0.0,0.0,0.0,0.0,0.0,0.0,0.0,0.0,0.0,-0.1845,-0.5363,-0.8905,-1.0926,-1.1926,-1.2951,-1.3451,-1.3424,-1.3417,-1.341,-1.341,-1.3403,-1.3403,-1.3403,-1.3403,-1.3403,-1.3403,-1.3403,-1.3403,-1.3403,-1.3403,-1.3403,-1.3403,-1.3403,-1.3403,-1.3403,-1.3403,-1.3403,-1.3403,-1.3403,-1.3403,-1.3403,-1.3403,-1.3403,-1.3403,-1.3403,-1.3403,-1.3471,-1.3695,-1.36,-1.3573,-1.3756,-1.362,-1.3492,-1.3458,-1.3451,-1.3498,-1.362,-1.379,-1.3946,-1.4061,-1.4211,-1.4299,-1.4299,-1.4299,-1.4285,-1.4245,-1.4245,-1.4245,-1.4245,-1.4095,-1.4021,-1.4014,-1.3865,-1.3736,-1.3627,-1.3593,-1.3512,-1.3403,-1.3403,-1.3403,-1.3403,-1.3403,-1.3573,-1.3838,-1.3838,-1.4027,-1.4299,-1.4299,-1.4299,-1.4299,0.0,0.0,0.0,0.0,0.0,0.0,0.0,0.0,0.0,0.0,0.0,0.0,0.0,0.0,0.0,0.0,0.0,0.0,0.0,0.0,0.0,0.0,0.0,0.0,0.0,0.0,0.0,0.0,0.0,0.0,0.0,0.0,0.0,0.0,0.0,-0.0168,-0.0503,-0.0839,-0.3352,-0.7543,-1.1784,-1.3331,-1.3325,-1.3458,-1.3451,-1.3444,-1.341,-1.3403,-1.3403,-1.3403,-1.3403,-1.3403,-1.3403,-1.3403,-1.3403,-1.3403,-1.3403,-1.3403,-1.3403,-1.3403,-1.3403,-1.3403,-1.3403,-1.3403,-1.3403,-1.3403,-1.3403,-1.3403,-1.3403,-1.3403,-1.3403,-1.3403,-1.3539,-1.3966,-1.3905,-1.3912,-1.4211,-1.3994,-1.3756,-1.3627,-1.3614,-1.3614,-1.3627,-1.3885,-1.4061,-1.4075,-1.4211,-1.4299,-1.4299,-1.4299,-1.4238,-1.4095,-1.4089,-1.4089,-1.4089,-1.3933,-1.3858,-1.3858,-1.3715,-1.3641,-1.3627,-1.3485,-1.341,-1.3403,-1.3403,-1.3403,-1.3403,-1.3403,-1.3573,-1.3838,-1.3838,-1.4027,-1.4299,-1.4299,-1.4299,-1.4299,0.0,0.0,0.0,0.0,0.0,0.0,0.0,0.0,0.0,0.0,0.0,0.0,0.0,0.0,0.0,0.0,0.0,0.0,0.0,0.0,0.0,0.0,0.0,0.0,0.0,0.0,0.0,0.0,0.0,0.0,0.0,0.0,0.0,0.0,0.0,0.0,0.0,0.0,-0.1008,-0.2682,-0.436,-0.671,-0.9235,-0.9226,-1.092,-1.3485,-1.3471,-1.3451,-1.3431,-1.3431,-1.3417,-1.3403,-1.3403,-1.3403,-1.3403,-1.3403,-1.3403,-1.3403,-1.3403,-1.3403,-1.3403,-1.3403,-1.3403,-1.3403,-1.3403,-1.3403,-1.3403,-1.3403,-1.3403,-1.3403,-1.3403,-1.3403,-1.3485,-1.3756,-1.3749,-1.3783,-1.3987,-1.3912,-1.3824,-1.377,-1.3756,-1.3797,-1.3892,-1.4007,-1.4109,-1.4204,-1.4265,-1.4258,-1.4163,-1.4068,-1.3987,-1.3933,-1.3844,-1.3838,-1.3926,-1.3783,-1.3709,-1.3709,-1.3559,-1.3485,-1.3485,-1.3424,-1.3403,-1.3403,-1.3403,-1.3403,-1.341,-1.3505,-1.3661,-1.3851,-1.3946,-1.4116,-1.4299,-1.4299,-1.4299,-1.4299,0.0,0.0,0.0,0.0,0.0,0.0,0.0,0.0,0.0,0.0,0.0,0.0,0.0,0.0,0.0,0.0,0.0,0.0,0.0,0.0,0.0,0.0,0.0,0.0,0.0,0.0,0.0,0.0,0.0,0.0,0.0,0.0,0.0,0.0,0.0,0.0,0.0,0.0,0.0,0.0,0.0,-0.1846,-0.4528,-0.4526,-0.654,-0.9416,-1.077,-1.1265,-1.1587,-1.2951,-1.3451,-1.3431,-1.3431,-1.3431,-1.3431,-1.3417,-1.3417,-1.3417,-1.3403,-1.3403,-1.3403,-1.3403,-1.3403,-1.3403,-1.3403,-1.3403,-1.3403,-1.3403,-1.3403,-1.3403,-1.3403,-1.3403,-1.3451,-1.3607,-1.3627,-1.3682,-1.3824,-1.3838,-1.3838,-1.3838,-1.3885,-1.3939,-1.3994,-1.4041,-1.4095,-1.415,-1.4156,-1.4109,-1.4007,-1.3858,-1.3777,-1.3777,-1.3634,-1.3607,-1.3702,-1.3607,-1.3559,-1.3553,-1.3451,-1.3403,-1.3403,-1.3403,-1.3403,-1.3403,-1.3403,-1.3403,-1.341,-1.3566,-1.3709,-1.3858,-1.4014,-1.4163,-1.4299,-1.4299,-1.4299,-1.4299,0.0,0.0,0.0,0.0,0.0,0.0,0.0,0.0,0.0,0.0,0.0,0.0,0.0,0.0,0.0,0.0,0.0,0.0,0.0,0.0,0.0,0.0,0.0,0.0,0.0,0.0,0.0,0.0,0.0,0.0,0.0,0.0,0.0,0.0,0.0,0.0,0.0,0.0,0.0,0.0,0.0,0.0,0.0,0.0,0.0,-0.0503,-0.5025,-0.67,-0.7376,-1.179,-1.3338,-1.3338,-1.3338,-1.3338,-1.3331,-1.3291,-1.3451,-1.3444,-1.341,-1.3403,-1.3403,-1.3403,-1.3403,-1.3403,-1.3403,-1.3403,-1.3403,-1.3403,-1.3403,-1.3403,-1.3403,-1.3403,-1.3451,-1.3607,-1.3634,-1.3682,-1.3824,-1.3844,-1.3844,-1.3844,-1.398,-1.4014,-1.3858,-1.398,-1.4007,-1.3851,-1.3838,-1.3838,-1.3838,-1.3702,-1.3627,-1.3627,-1.3478,-1.3403,-1.3403,-1.3403,-1.3403,-1.3403,-1.3403,-1.3403,-1.3403,-1.3403,-1.3403,-1.3403,-1.3403,-1.3403,-1.341,-1.3566,-1.3715,-1.3858,-1.4014,-1.4163,-1.4299,-1.4299,-1.4299,-1.4299,0.0,0.0,0.0,0.0,0.0,0.0,0.0,0.0,0.0,0.0,0.0,0.0,0.0,0.0,0.0,0.0,0.0,0.0,0.0,0.0,0.0,0.0,0.0,0.0,0.0,0.0,0.0,0.0,0.0,0.0,0.0,0.0,0.0,0.0,0.0,0.0,0.0,0.0,0.0,0.0,0.0,0.0,0.0,0.0,0.0,-0.0168,-0.1513,-0.2014,-0.2683,-0.7227,-0.8742,-0.8729,-0.8729,-0.8729,-0.8725,-0.872,-1.0926,-1.3478,-1.3444,-1.3437,-1.3431,-1.341,-1.3403,-1.3403,-1.3403,-1.3403,-1.3403,-1.3403,-1.3403,-1.3403,-1.3403,-1.3492,-1.3573,-1.362,-1.3804,-1.3953,-1.3994,-1.4095,-1.4122,-1.4014,-1.4041,-1.4014,-1.3858,-1.3885,-1.3892,-1.3844,-1.3749,-1.3695,-1.3695,-1.3553,-1.3471,-1.3471,-1.3424,-1.3403,-1.3403,-1.3403,-1.3403,-1.3403,-1.3403,-1.3403,-1.3403,-1.3403,-1.3403,-1.3403,-1.3403,-1.3403,-1.3417,-1.3675,-1.3804,-1.3865,-1.4129,-1.4258,-1.4299,-1.4299,-1.4299,-1.4299,0.0,0.0,0.0,0.0,0.0,0.0,0.0,0.0,0.0,0.0,0.0,0.0,0.0,0.0,0.0,0.0,0.0,0.0,0.0,0.0,0.0,0.0,0.0,0.0,0.0,0.0,0.0,0.0,0.0,0.0,0.0,0.0,0.0,0.0,0.0,0.0,0.0,0.0,0.0,0.0,0.0,0.0,0.0,0.0,0.0,0.0,0.0,0.0,-0.0336,-0.3194,-0.4031,-0.4027,-0.4027,-0.4027,-0.4025,-0.4021,-0.6038,-0.8566,-1.0237,-1.2105,-1.3464,-1.3444,-1.3424,-1.3403,-1.3403,-1.3403,-1.3403,-1.3403,-1.3403,-1.3403,-1.3403,-1.3478,-1.358,-1.3695,-1.3817,-1.3939,-1.4055,-1.4102,-1.4082,-1.3994,-1.398,-1.3919,-1.377,-1.3756,-1.3729,-1.3675,-1.3587,-1.3539,-1.3539,-1.3451,-1.3403,-1.3403,-1.3403,-1.3403,-1.3403,-1.3403,-1.3403,-1.3403,-1.3403,-1.3403,-1.3403,-1.3403,-1.3403,-1.3403,-1.3403,-1.3403,-1.3424,-1.3722,-1.3838,-1.3871,-1.4177,-1.4299,-1.4299,-1.4299,-1.4299,-1.4299,0.0,0.0,0.0,0.0,0.0,0.0,0.0,0.0,0.0,0.0,0.0,0.0,0.0,0.0,0.0,0.0,0.0,0.0,0.0,0.0,0.0,0.0,0.0,0.0,0.0,0.0,0.0,0.0,0.0,0.0,0.0,0.0,0.0,0.0,0.0,0.0,0.0,0.0,0.0,0.0,0.0,0.0,0.0,0.0,0.0,0.0,0.0,0.0,0.0,0.0,0.0,0.0,0.0,0.0,0.0,0.0,0.0,-0.1006,-0.553,-0.9918,-1.3338,-1.2823,-1.2772,-1.2899,-1.3238,-1.341,-1.3403,-1.3403,-1.3403,-1.3403,-1.3403,-1.341,-1.3512,-1.3797,-1.3736,-1.3749,-1.4034,-1.3939,-1.3838,-1.3824,-1.3824,-1.3763,-1.362,-1.3607,-1.3553,-1.341,-1.3403,-1.3403,-1.3403,-1.3403,-1.3403,-1.3403,-1.3403,-1.3403,-1.3403,-1.3403,-1.3403,-1.3403,-1.3403,-1.3403,-1.3403,-1.3403,-1.3403,-1.3403,-1.3403,-1.341,-1.3444,-1.3722,-1.3851,-1.3892,-1.4183,-1.4299,-1.4299,-1.4299,-1.4299,-1.4299,0.0,0.0,0.0,0.0,0.0,0.0,0.0,0.0,0.0,0.0,0.0,0.0,0.0,0.0,0.0,0.0,0.0,0.0,0.0,0.0,0.0,0.0,0.0,0.0,0.0,0.0,0.0,0.0,0.0,0.0,0.0,0.0,0.0,0.0,0.0,0.0,0.0,0.0,0.0,0.0,0.0,0.0,0.0,0.0,0.0,0.0,0.0,0.0,0.0,0.0,0.0,0.0,0.0,0.0,0.0,0.0,0.0,-0.1009,-0.5544,-0.9943,-1.2508,-0.9072,-0.8211,-0.9049,-1.2624,-1.3458,-1.3437,-1.3437,-1.3417,-1.3403,-1.3403,-1.3498,-1.3634,-1.381,-1.3817,-1.3858,-1.4048,-1.3939,-1.3797,-1.3688,-1.3675,-1.3614,-1.3464,-1.3451,-1.3437,-1.3403,-1.3403,-1.3403,-1.3403,-1.3403,-1.3403,-1.3403,-1.3403,-1.3403,-1.3403,-1.3403,-1.3403,-1.3403,-1.3403,-1.3403,-1.3403,-1.3403,-1.3403,-1.3403,-1.3403,-1.3471,-1.3593,-1.377,-1.3912,-1.4041,-1.4231,-1.4299,-1.4299,-1.4299,-1.4299,-1.4299,0.0,0.0,0.0,0.0,0.0,0.0,0.0,0.0,0.0,0.0,0.0,0.0,0.0,0.0,0.0,0.0,0.0,0.0,0.0,0.0,0.0,0.0,0.0,0.0,0.0,0.0,0.0,0.0,0.0,0.0,0.0,0.0,0.0,0.0,0.0,0.0,0.0,0.0,0.0,0.0,0.0,0.0,0.0,0.0,0.0,0.0,0.0,0.0,0.0,0.0,0.0,0.0,0.0,0.0,0.0,0.0,0.0,-0.0505,-0.2859,-0.5219,-0.6909,-0.6727,-0.6727,-0.7398,-0.9751,-1.0742,-1.1742,-1.3111,-1.3424,-1.3403,-1.3403,-1.3526,-1.3654,-1.3729,-1.3797,-1.3871,-1.3953,-1.3831,-1.3709,-1.3641,-1.3566,-1.3492,-1.341,-1.3403,-1.3403,-1.3403,-1.3403,-1.3403,-1.3403,-1.3403,-1.3403,-1.3403,-1.3403,-1.3403,-1.3403,-1.3403,-1.3403,-1.3403,-1.3403,-1.3403,-1.3403,-1.3403,-1.3403,-1.3403,-1.3403,-1.3485,-1.3641,-1.3783,-1.3933,-1.4089,-1.4238,-1.4299,-1.4299,-1.4299,-1.4299,-1.4299,0.0,0.0,0.0,0.0,0.0,0.0,0.0,0.0,0.0,0.0,0.0,0.0,0.0,0.0,0.0,0.0,0.0,0.0,0.0,0.0,0.0,0.0,0.0,0.0,0.0,0.0,0.0,0.0,0.0,0.0,0.0,0.0,0.0,0.0,0.0,0.0,0.0,0.0,0.0,0.0,0.0,0.0,0.0,0.0,0.0,0.0,0.0,0.0,0.0,0.0,0.0,0.0,0.0,0.0,0.0,0.0,0.0,0.0,0.0,0.0,-0.0842,-0.4553,-0.5566,-0.5561,-0.5538,-0.653,-0.8536,-1.2612,-1.3464,-1.3451,-1.3451,-1.3553,-1.3641,-1.3661,-1.3722,-1.3777,-1.3797,-1.3682,-1.3593,-1.3593,-1.3478,-1.3403,-1.3403,-1.3403,-1.3403,-1.3403,-1.3403,-1.3403,-1.3403,-1.3403,-1.3403,-1.3403,-1.3403,-1.3403,-1.3403,-1.3403,-1.3403,-1.3403,-1.3403,-1.3403,-1.3403,-1.3403,-1.3403,-1.3403,-1.3403,-1.3498,-1.3675,-1.379,-1.3946,-1.4122,-1.4251,-1.4299,-1.4299,-1.4299,-1.4299,-1.4299,0.0,0.0,0.0,0.0,0.0,0.0,0.0,0.0,0.0,0.0,0.0,0.0,0.0,0.0,0.0,0.0,0.0,0.0,0.0,0.0,0.0,0.0,0.0,0.0,0.0,0.0,0.0,0.0,0.0,0.0,0.0,0.0,0.0,0.0,0.0,0.0,0.0,0.0,0.0,0.0,0.0,0.0,0.0,0.0,0.0,0.0,0.0,0.0,0.0,0.0,0.0,0.0,0.0,0.0,0.0,0.0,0.0,0.0,0.0,0.0,-0.0168,-0.0674,-0.0842,-0.0842,-0.0842,-0.1007,-0.3523,-1.1652,-1.3445,-1.3506,-1.3648,-1.3492,-1.3532,-1.3797,-1.3614,-1.3505,-1.3641,-1.3526,-1.3431,-1.3431,-1.341,-1.3403,-1.3403,-1.3403,-1.3403,-1.3403,-1.3403,-1.3403,-1.3403,-1.3403,-1.3403,-1.3403,-1.3403,-1.3403,-1.3403,-1.3403,-1.3403,-1.3403,-1.3403,-1.3403,-1.3403,-1.3403,-1.3403,-1.3403,-1.3403,-1.3559,-1.3817,-1.3831,-1.4007,-1.4272,-1.4292,-1.4299,-1.4299,-1.4299,-1.4299,-1.4299,0.0,0.0,0.0,0.0,0.0,0.0,0.0,0.0,0.0,0.0,0.0,0.0,0.0,0.0,0.0,0.0,0.0,0.0,0.0,0.0,0.0,0.0,0.0,0.0,0.0,0.0,0.0,0.0,0.0,0.0,0.0,0.0,0.0,0.0,0.0,0.0,0.0,0.0,0.0,0.0,0.0,0.0,0.0,0.0,0.0,0.0,0.0,0.0,0.0,0.0,0.0,0.0,0.0,0.0,0.0,0.0,0.0,0.0,0.0,0.0,0.0,0.0,0.0,0.0,0.0,0.0,-0.1176,-0.5041,-0.7969,-0.9714,-0.9815,-1.1786,-1.3586,-1.3641,-1.3566,-1.3519,-1.3505,-1.3444,-1.3403,-1.3403,-1.3403,-1.3403,-1.3403,-1.3403,-1.3403,-1.3403,-1.3403,-1.3403,-1.3403,-1.3403,-1.3403,-1.3403,-1.3403,-1.3403,-1.3403,-1.3403,-1.3403,-1.3403,-1.3403,-1.3403,-1.3403,-1.3403,-1.3403,-1.3403,-1.3492,-1.3648,-1.3844,-1.3933,-1.4102,-1.4299,-1.4299,-1.4299,-1.4299,-1.4299,-1.4299,-1.4299]}]]